[[{"header":{"parameterUnit":"m.s-1","parameterCategory":1,"la1":31.0,"la2":29.5877,"lo1":-88.7671,"lo2":-86.6584,"dy":0.0162,"dx":0.0185,"nx":115,"ny":88,"refTime":"2024-06-30T00:00:00:Z","depth":0,"parameterNumber":2,"parameterNumberName":"U-component_of_WINDS"},"data":[0.0,0.0,0.0,0.0,0.0,0.0,0.0,0.0,0.0,0.0,0.0,0.0,0.0,0.0,0.0,0.0,0.0,0.0,0.0,0.0,0.0,0.0,0.0,0.0,0.0,0.0,0.0,0.0,0.0,0.0,0.0,0.0,0.0,0.0,0.0,0.0,0.0,0.0,0.0,0.0,0.0,0.0,0.0,0.0,0.0,0.0,0.0,0.0,0.0,0.0,0.0,0.0,0.0,0.0,0.0,0.0,0.0,0.0,0.0,0.0,0.0,0.0,0.0,0.0,0.0,0.0,0.0,0.0,0.0,0.0,0.0,0.0,0.0,0.0,0.0,0.0,0.0,0.0,0.0,0.0,0.0,0.0,0.0,0.0,0.0,0.0,0.0,0.0,0.0,0.0,0.0,0.0,0.0,0.0,0.0,0.0,0.0,0.0,0.0,0.0,0.0,0.0,0.0,0.0,0.0,0.0,0.0,0.0,0.0,0.0,0.0,0.0,0.0,0.0,0.0,0.0,0.0,0.0,0.0,0.0,0.0,0.0,0.0,0.0,0.0,0.0,0.0,0.0,0.0,0.0,0.0,0.0,0.0,0.0,0.0,0.0,0.0,0.0,0.0,0.0,0.0,0.0,0.0,0.0,0.0,0.0,0.0,0.0,0.0,0.0,0.0,0.0,0.0,0.0,0.0,0.0,0.0,0.0,0.0,0.0,0.0,0.0,0.0,0.0,0.0,0.0,0.0,0.0,0.0,0.0,0.0,0.0,0.0,0.0,0.0,0.0,0.0,0.0,0.0,0.0,0.0,0.0,0.0,0.0,0.0,0.0,0.0,0.0,0.0,0.0,0.0,0.0,0.0,0.0,0.0,0.0,0.0,0.0,0.0,0.0,0.0,0.0,0.0,0.0,0.0,0.0,0.0,0.0,0.0,0.0,0.0,0.0,0.0,0.0,0.0,0.0,0.0,0.0,0.0,0.0,0.0,0.0,0.0,0.0,0.0,0.0,0.0,0.0,0.0,0.0,0.0,0.0,0.0,0.0,0.0,0.0,0.0,0.0,0.0,0.0,0.0,0.0,0.0,0.0,0.0,0.0,0.0,0.0,0.0,0.0,0.0,0.0,0.0,0.0,0.0,0.0,0.0,0.0,0.0,0.0,0.0,0.0,0.0,0.0,0.0,0.0,0.0,0.0,0.0,0.0,0.0,0.0,0.0,0.0,0.0,0.0,0.0,0.0,0.0,0.0,0.0,0.0,0.0,0.0,0.0,0.0,0.0,0.0,0.0,0.0,0.0,0.0,0.0,0.0,0.0,0.0,0.0,0.0,0.0,0.0,0.0,0.0,0.0,0.0,0.0,0.0,0.0,0.0,0.0,0.0,0.0,0.0,0.0,0.0,0.0,0.0,0.0,0.0,0.0,0.0,0.0,0.0,0.0,0.0,0.0,0.0,0.0,0.0,0.0,0.0,0.0,0.0,0.0,0.0,0.0,0.0,0.0,0.0,0.0,0.0,0.0,0.0,0.0,0.0,0.0,0.0,0.0,0.0,0.0,0.0,0.0,0.0,0.0,0.0,0.0,0.0,0.0,0.0,0.0,0.0,0.0,0.0,0.0,0.0,0.0,0.0,0.0,0.0,0.0,0.0,0.0,0.0,0.0,0.0,0.0,0.0,0.0,0.0,0.0,0.0,0.0,0.0,0.0,0.0,0.0,0.0,0.0,0.0,0.0,0.0,0.0,0.0,0.0,0.0,0.0,0.0,0.0,0.0,0.0,0.0,0.0,0.0,0.0,0.0,0.0,0.0,0.0,0.0,0.0,0.0,0.0,0.0,0.0,0.0,0.0,0.0,0.0,0.0,0.0,0.0,0.0,0.0,0.0,0.0,0.0,0.0,0.0,0.0,0.0,0.0,0.0,0.0,0.0,0.0,0.0,0.0,0.0,0.0,0.0,0.0,0.0,0.0,0.0,0.0,0.0,0.0,0.0,0.0,0.0,0.0,0.0,0.0,0.0,0.0,0.0,0.0,0.0,0.0,0.0,0.0,0.0,0.0,0.0,0.0,0.0,0.0,0.0,0.0,0.0,0.0,0.0,0.0,0.0,0.0,0.0,0.0,0.0,0.0,0.0,0.0,0.0,0.0,0.0,0.0,0.0,0.0,0.0,0.0,0.0,0.0,0.0,0.0,0.0,0.0,0.0,0.0,0.0,0.0,0.0,0.0,0.0,0.0,0.0,0.0,0.0,0.0,0.0,0.0,0.0,0.0,0.0,0.0,0.0,0.0,0.0,0.0,0.0,0.0,0.0,0.0,0.0,0.0,0.0,0.0,0.0,0.0,0.0,0.0,0.0,0.0,0.0,0.0,0.0,0.0,0.0,0.0,0.0,0.0,0.0,0.0,0.0,0.0,0.0,0.0,0.0,0.0,0.0,0.0,0.0,0.0,0.0,0.0,0.0,0.0,0.0,0.0,0.0,0.0,0.0,0.0,0.0,0.0,0.0,0.0,0.0,0.0,0.0,0.0,0.0,0.0,0.0,0.0,0.0,0.0,0.0,0.0,0.0,0.0,0.0,0.0,0.0,0.0,0.0,0.0,0.0,0.0,0.0,0.0,0.0,0.0,0.0,0.0,0.0,0.0,0.0,0.0,0.0,0.0,0.0,0.0,0.0,0.0,0.0,0.0,0.0,0.0,0.0,0.0,0.0,0.0,0.0,0.0,0.0,0.0,0.0,0.0,0.0,0.0,0.0,0.0,0.0,0.0,0.0,0.0,0.0,0.0,0.0,0.0,0.0,0.0,0.0,0.0,0.0,0.0,0.0,0.0,0.0,0.0,0.0,0.0,0.0,0.0,0.0,0.0,0.0,0.0,0.0,0.0,0.0,0.0,0.0,0.0,0.0,0.0,0.0,0.0,0.0,0.0,0.0,0.0,0.0,0.0,0.0,0.0,0.0,0.0,0.0,0.0,0.0,0.0,0.0,0.0,0.0,0.0,0.0,0.0,0.0,0.0,0.0,0.0,0.0,0.0,0.0,0.0,0.0,0.0,0.0,0.0,0.0,0.0,0.0,0.0,0.0,0.0,0.0,0.0,0.0,0.0,0.0,0.0,0.0,0.0,0.0,0.0,0.0,0.0,0.0,0.0,0.0,0.0,0.0,0.0,0.0,0.0,0.0,0.0,0.0,0.0,0.0,0.0,0.0,0.0,0.0,0.0,0.0,0.0,0.0,0.0,0.0,0.0,0.0,0.0,0.0,0.0,0.0,0.0,0.0,0.0,0.0,0.0,0.0,0.0,0.0,0.0,0.0,0.0,0.0,0.0,0.0,0.0,0.0,0.0,0.0,0.0,0.0,0.0,0.0,0.0,0.0,0.0,0.0,0.0,0.0,0.0,0.0,0.0,0.0,0.0,0.0,0.0,0.0,0.0,0.0,0.0,0.0,0.0,0.0,0.0,0.0,0.0,0.0,0.0,0.0,0.0,0.0,0.0,0.0,0.0,0.0,0.0,0.0,0.0,0.0,0.0,0.0,0.0,0.0,0.0,0.0,0.0,0.0,0.0,0.0,0.0,0.0,0.0,0.0,0.0,0.0,0.0,0.0,0.0,0.0,0.0,0.0,0.0,0.0,0.0,0.0,0.0,0.0,0.0,0.0,0.0,0.0,0.0,0.0,0.0,0.0,0.0,0.0,0.0,0.0,0.0,0.0,0.0,0.0,0.0,0.0,0.0,0.0,0.0,0.0,0.0,0.0,0.0,0.0,0.0,0.0,0.0,0.0,0.0,0.0,0.0,0.0,0.0,0.0,0.0,0.0,0.0,0.0,0.0,0.0,0.0,0.0,0.0,0.0,0.0,0.0,0.0,0.0,0.0,0.0,0.0,0.0,0.0,0.0,0.0,0.0,0.0,0.0,0.0,0.0,0.0,0.0,0.0,0.0,0.0,0.0,0.0,0.0,0.0,0.0,0.0,0.0,0.0,0.0,0.0,0.0,0.0,0.0,0.0,0.0,0.0,0.0,0.0,0.0,0.0,0.0,0.0,0.0,0.0,0.0,0.0,0.0,0.0,0.0,0.0,0.0,0.0,0.0,0.0,0.0,0.0,0.0,0.0,0.0,0.0,0.0,0.0,0.0,0.0,0.0,0.0,0.0,0.0,0.0,0.0,0.0,0.0,0.0,0.0,0.0,0.0,0.0,0.0,0.0,0.0,0.0,0.0,0.0,0.0,0.0,0.0,0.0,0.0,0.0,0.0,0.0,0.0,0.0,0.0,0.0,0.0,0.0,0.0,-3.9031,0.0,0.0,0.0,0.0,0.0,0.0,0.0,0.0,0.0,0.0,0.0,0.0,0.0,0.0,0.0,0.0,0.0,0.0,0.0,0.0,0.0,0.0,0.0,0.0,0.0,0.0,0.0,0.0,0.0,0.0,0.0,0.0,0.0,0.0,0.0,0.0,0.0,0.0,0.0,0.0,0.0,0.0,0.0,0.0,0.0,0.0,0.0,0.0,0.0,0.0,0.0,0.0,0.0,0.0,0.0,0.0,0.0,0.0,0.0,0.0,0.0,0.0,0.0,0.0,0.0,0.0,0.0,0.0,0.0,0.0,0.0,0.0,0.0,0.0,0.0,0.0,0.0,0.0,0.0,0.0,0.0,0.0,0.0,0.0,0.0,0.0,0.0,0.0,0.0,0.0,0.0,0.0,0.0,0.0,0.0,0.0,0.0,0.0,0.0,0.0,0.0,0.0,0.0,0.0,0.0,0.0,0.0,0.0,0.0,0.0,-4.2715,-4.3559,-4.2537,-4.1176,-3.9443,0.0,0.0,0.0,0.0,0.0,0.0,0.0,0.0,0.0,0.0,0.0,0.0,0.0,0.0,0.0,0.0,0.0,0.0,0.0,0.0,0.0,0.0,0.0,0.0,0.0,0.0,0.0,0.0,0.0,0.0,0.0,0.0,0.0,0.0,0.0,0.0,0.0,0.0,0.0,0.0,0.0,0.0,0.0,0.0,0.0,0.0,0.0,0.0,0.0,0.0,0.0,0.0,0.0,0.0,0.0,0.0,0.0,0.0,0.0,0.0,0.0,0.0,0.0,0.0,0.0,0.0,0.0,0.0,0.0,0.0,0.0,0.0,0.0,0.0,0.0,0.0,0.0,0.0,0.0,0.0,0.0,0.0,0.0,0.0,0.0,0.0,0.0,0.0,0.0,0.0,0.0,0.0,0.0,0.0,0.0,0.0,0.0,0.0,0.0,0.0,0.0,0.0,0.0,0.0,0.0,0.0,0.0,0.0,0.0,0.0,0.0,0.0,-4.4019,-4.233,-3.9738,0.0,0.0,0.0,0.0,0.0,0.0,0.0,0.0,0.0,0.0,0.0,0.0,0.0,0.0,0.0,0.0,0.0,0.0,0.0,0.0,0.0,0.0,0.0,0.0,0.0,0.0,0.0,0.0,0.0,0.0,0.0,0.0,0.0,0.0,0.0,0.0,0.0,0.0,0.0,0.0,0.0,0.0,0.0,0.0,0.0,0.0,0.0,0.0,0.0,0.0,0.0,0.0,0.0,0.0,0.0,0.0,0.0,0.0,0.0,0.0,0.0,0.0,0.0,0.0,0.0,0.0,0.0,0.0,0.0,0.0,0.0,0.0,0.0,0.0,0.0,0.0,0.0,0.0,0.0,0.0,0.0,0.0,0.0,0.0,0.0,0.0,0.0,0.0,0.0,0.0,0.0,0.0,0.0,0.0,0.0,0.0,0.0,0.0,0.0,0.0,0.0,0.0,0.0,0.0,0.0,0.0,0.0,0.0,0.0,0.0,-4.4203,-4.6644,-4.5326,0.0,-3.9989,0.0,0.0,0.0,0.0,0.0,0.0,0.0,0.0,0.0,0.0,0.0,0.0,0.0,0.0,0.0,0.0,0.0,0.0,0.0,0.0,0.0,0.0,0.0,0.0,0.0,0.0,0.0,0.0,0.0,0.0,0.0,0.0,0.0,0.0,0.0,0.0,0.0,0.0,0.0,0.0,0.0,0.0,0.0,0.0,0.0,0.0,0.0,0.0,0.0,0.0,0.0,0.0,0.0,0.0,0.0,0.0,0.0,0.0,0.0,0.0,0.0,0.0,0.0,0.0,0.0,0.0,0.0,0.0,0.0,0.0,0.0,0.0,0.0,0.0,0.0,0.0,0.0,0.0,0.0,0.0,0.0,0.0,0.0,0.0,0.0,0.0,0.0,0.0,0.0,0.0,0.0,0.0,0.0,0.0,0.0,0.0,0.0,0.0,0.0,0.0,0.0,0.0,0.0,0.0,0.0,0.0,0.0,0.0,0.0,0.0,-4.5459,-4.7142,-4.5187,-4.2757,0.0,0.0,0.0,0.0,0.0,0.0,0.0,0.0,0.0,0.0,0.0,0.0,0.0,0.0,0.0,0.0,0.0,0.0,0.0,0.0,0.0,0.0,0.0,0.0,0.0,0.0,0.0,0.0,0.0,0.0,0.0,0.0,0.0,0.0,0.0,0.0,0.0,0.0,0.0,0.0,0.0,0.0,0.0,0.0,0.0,0.0,0.0,0.0,0.0,0.0,0.0,0.0,0.0,0.0,0.0,0.0,0.0,0.0,0.0,0.0,0.0,0.0,0.0,0.0,0.0,0.0,0.0,0.0,0.0,0.0,0.0,0.0,0.0,0.0,0.0,0.0,0.0,0.0,0.0,0.0,0.0,0.0,0.0,0.0,0.0,0.0,0.0,0.0,0.0,0.0,0.0,0.0,0.0,0.0,0.0,0.0,0.0,0.0,0.0,0.0,0.0,0.0,0.0,0.0,0.0,0.0,0.0,0.0,0.0,0.0,-4.5107,-4.6169,-4.6861,-4.53,-4.2949,-3.9899,0.0,0.0,0.0,0.0,0.0,0.0,0.0,0.0,0.0,0.0,0.0,0.0,0.0,0.0,0.0,0.0,0.0,0.0,0.0,0.0,0.0,0.0,0.0,0.0,0.0,0.0,0.0,0.0,0.0,0.0,0.0,0.0,0.0,0.0,0.0,0.0,0.0,0.0,0.0,0.0,0.0,0.0,0.0,0.0,0.0,0.0,0.0,0.0,0.0,0.0,0.0,0.0,0.0,0.0,0.0,0.0,0.0,0.0,0.0,0.0,0.0,0.0,0.0,0.0,0.0,0.0,0.0,0.0,0.0,0.0,0.0,0.0,0.0,0.0,0.0,0.0,0.0,0.0,0.0,0.0,0.0,0.0,0.0,0.0,0.0,0.0,0.0,0.0,0.0,0.0,0.0,0.0,0.0,0.0,0.0,0.0,0.0,0.0,0.0,0.0,0.0,0.0,0.0,0.0,0.0,0.0,0.0,0.0,-4.5511,-4.575,-4.5969,-4.6267,-4.6145,-4.4126,0.0,0.0,0.0,0.0,0.0,0.0,0.0,0.0,0.0,0.0,0.0,0.0,0.0,0.0,0.0,0.0,0.0,0.0,0.0,0.0,0.0,0.0,0.0,0.0,0.0,0.0,0.0,0.0,0.0,0.0,0.0,0.0,0.0,0.0,0.0,0.0,0.0,0.0,0.0,0.0,0.0,0.0,0.0,0.0,0.0,0.0,0.0,0.0,0.0,0.0,0.0,0.0,0.0,0.0,0.0,0.0,0.0,0.0,0.0,0.0,0.0,0.0,0.0,0.0,0.0,0.0,0.0,0.0,0.0,0.0,0.0,0.0,0.0,0.0,0.0,0.0,0.0,0.0,0.0,0.0,0.0,0.0,0.0,0.0,0.0,0.0,0.0,0.0,0.0,0.0,0.0,0.0,0.0,0.0,0.0,0.0,0.0,0.0,0.0,0.0,0.0,0.0,0.0,0.0,0.0,0.0,0.0,0.0,0.0,-4.4118,-4.5949,-4.6943,-4.6974,-4.5464,-4.3361,0.0,0.0,0.0,0.0,0.0,0.0,0.0,0.0,0.0,0.0,0.0,0.0,0.0,0.0,0.0,0.0,0.0,0.0,0.0,0.0,0.0,0.0,0.0,0.0,0.0,0.0,0.0,0.0,0.0,0.0,0.0,0.0,0.0,0.0,0.0,0.0,0.0,0.0,0.0,0.0,0.0,0.0,0.0,0.0,0.0,0.0,0.0,0.0,0.0,0.0,0.0,0.0,0.0,0.0,0.0,0.0,0.0,0.0,0.0,0.0,0.0,0.0,0.0,0.0,0.0,0.0,0.0,0.0,0.0,0.0,0.0,0.0,0.0,0.0,0.0,0.0,0.0,0.0,0.0,0.0,0.0,0.0,0.0,0.0,0.0,0.0,0.0,0.0,0.0,0.0,0.0,0.0,0.0,0.0,0.0,0.0,0.0,0.0,0.0,0.0,0.0,0.0,0.0,0.0,0.0,0.0,0.0,0.0,0.0,-4.404,0.0,-4.7662,0.0,-4.516,-4.3038,0.0,0.0,0.0,0.0,0.0,0.0,0.0,0.0,0.0,0.0,0.0,0.0,0.0,0.0,0.0,0.0,0.0,0.0,0.0,0.0,0.0,0.0,0.0,0.0,0.0,0.0,0.0,0.0,0.0,0.0,0.0,0.0,0.0,0.0,0.0,0.0,0.0,0.0,0.0,0.0,0.0,0.0,0.0,0.0,0.0,0.0,0.0,0.0,0.0,0.0,0.0,0.0,0.0,0.0,0.0,0.0,0.0,0.0,0.0,0.0,0.0,0.0,0.0,0.0,0.0,0.0,0.0,0.0,0.0,0.0,0.0,0.0,0.0,0.0,0.0,0.0,0.0,0.0,0.0,0.0,0.0,0.0,0.0,0.0,0.0,0.0,0.0,0.0,0.0,0.0,0.0,0.0,0.0,0.0,0.0,0.0,0.0,0.0,0.0,0.0,0.0,0.0,0.0,0.0,0.0,0.0,0.0,0.0,-4.293,-4.5679,-4.7657,-4.7881,-4.6301,-4.5352,-4.3331,0.0,0.0,0.0,0.0,0.0,0.0,0.0,0.0,0.0,0.0,0.0,0.0,0.0,0.0,0.0,0.0,0.0,0.0,0.0,0.0,0.0,0.0,0.0,0.0,0.0,0.0,0.0,0.0,0.0,0.0,0.0,0.0,0.0,0.0,0.0,0.0,0.0,0.0,0.0,0.0,0.0,0.0,0.0,0.0,0.0,0.0,0.0,0.0,0.0,0.0,0.0,0.0,0.0,0.0,0.0,0.0,0.0,0.0,0.0,0.0,0.0,0.0,0.0,0.0,0.0,0.0,0.0,0.0,0.0,0.0,0.0,0.0,0.0,0.0,0.0,0.0,0.0,0.0,0.0,0.0,0.0,0.0,0.0,0.0,0.0,0.0,0.0,0.0,0.0,0.0,0.0,0.0,0.0,0.0,0.0,0.0,0.0,0.0,0.0,0.0,0.0,0.0,0.0,0.0,0.0,0.0,0.0,0.0,0.0,-4.4898,-4.6186,-4.6963,-4.7067,-4.4598,-4.2982,0.0,0.0,0.0,0.0,0.0,0.0,0.0,0.0,0.0,0.0,0.0,0.0,0.0,0.0,0.0,0.0,0.0,0.0,0.0,0.0,0.0,0.0,0.0,0.0,0.0,0.0,0.0,0.0,0.0,0.0,0.0,0.0,0.0,0.0,0.0,0.0,0.0,0.0,0.0,0.0,0.0,0.0,0.0,0.0,0.0,0.0,0.0,0.0,0.0,0.0,0.0,0.0,0.0,0.0,0.0,0.0,0.0,0.0,0.0,0.0,0.0,0.0,0.0,0.0,0.0,0.0,0.0,0.0,0.0,0.0,0.0,0.0,0.0,0.0,0.0,0.0,0.0,0.0,0.0,0.0,0.0,0.0,0.0,0.0,0.0,0.0,0.0,0.0,0.0,0.0,0.0,0.0,0.0,0.0,0.0,0.0,0.0,0.0,0.0,0.0,0.0,0.0,0.0,0.0,0.0,0.0,0.0,0.0,0.0,-4.5517,-4.645,-4.7157,-4.7541,-4.5146,-4.3645,-4.3138,0.0,0.0,0.0,0.0,0.0,0.0,0.0,0.0,0.0,0.0,0.0,0.0,0.0,0.0,0.0,0.0,0.0,0.0,0.0,0.0,0.0,0.0,0.0,0.0,0.0,0.0,0.0,0.0,0.0,0.0,0.0,0.0,0.0,0.0,0.0,0.0,0.0,0.0,0.0,0.0,0.0,0.0,0.0,0.0,0.0,0.0,0.0,0.0,0.0,0.0,0.0,0.0,0.0,0.0,0.0,0.0,0.0,0.0,0.0,0.0,0.0,0.0,0.0,0.0,0.0,0.0,0.0,0.0,0.0,0.0,0.0,0.0,0.0,0.0,0.0,0.0,0.0,0.0,0.0,0.0,0.0,0.0,0.0,0.0,0.0,0.0,0.0,0.0,0.0,0.0,0.0,0.0,0.0,0.0,0.0,0.0,0.0,0.0,0.0,0.0,0.0,0.0,0.0,0.0,0.0,0.0,0.0,0.0,-4.7152,-4.8102,-4.8265,-4.7589,-4.6726,-4.5129,0.0,0.0,0.0,0.0,0.0,0.0,0.0,0.0,0.0,0.0,0.0,0.0,0.0,0.0,0.0,0.0,0.0,0.0,0.0,0.0,0.0,0.0,0.0,0.0,0.0,0.0,0.0,0.0,0.0,0.0,0.0,0.0,0.0,0.0,0.0,0.0,0.0,0.0,0.0,0.0,0.0,0.0,0.0,0.0,0.0,0.0,0.0,0.0,0.0,0.0,0.0,0.0,0.0,0.0,0.0,0.0,0.0,0.0,0.0,0.0,0.0,0.0,0.0,0.0,0.0,0.0,0.0,0.0,0.0,0.0,0.0,0.0,0.0,0.0,0.0,0.0,0.0,0.0,0.0,0.0,0.0,0.0,0.0,0.0,0.0,0.0,0.0,0.0,0.0,0.0,0.0,0.0,0.0,0.0,0.0,0.0,0.0,0.0,0.0,0.0,0.0,0.0,0.0,0.0,0.0,0.0,0.0,0.0,0.0,-4.8025,-4.8275,-4.8404,-4.8439,-4.704,-4.5695,0.0,0.0,0.0,0.0,0.0,0.0,0.0,0.0,0.0,0.0,0.0,0.0,0.0,0.0,0.0,0.0,0.0,0.0,0.0,0.0,0.0,0.0,0.0,0.0,0.0,0.0,0.0,0.0,0.0,0.0,0.0,0.0,0.0,0.0,0.0,0.0,0.0,0.0,0.0,0.0,0.0,0.0,0.0,0.0,0.0,0.0,0.0,0.0,0.0,0.0,0.0,0.0,0.0,0.0,0.0,0.0,0.0,0.0,0.0,0.0,0.0,0.0,0.0,0.0,0.0,0.0,0.0,0.0,0.0,0.0,0.0,0.0,0.0,0.0,0.0,0.0,0.0,0.0,0.0,0.0,0.0,0.0,0.0,0.0,0.0,0.0,0.0,0.0,0.0,0.0,0.0,0.0,0.0,0.0,0.0,0.0,0.0,0.0,0.0,0.0,0.0,0.0,0.0,0.0,0.0,0.0,0.0,0.0,-4.7911,-4.8367,-4.8741,-4.8895,-4.8808,-4.7547,-4.6085,0.0,0.0,0.0,0.0,0.0,0.0,0.0,0.0,0.0,0.0,0.0,0.0,0.0,0.0,0.0,0.0,0.0,0.0,0.0,0.0,0.0,0.0,0.0,0.0,0.0,0.0,0.0,0.0,0.0,0.0,0.0,0.0,0.0,0.0,0.0,0.0,0.0,0.0,0.0,0.0,0.0,0.0,0.0,0.0,0.0,0.0,0.0,0.0,0.0,0.0,0.0,0.0,0.0,0.0,0.0,0.0,0.0,0.0,0.0,0.0,0.0,0.0,0.0,0.0,0.0,0.0,0.0,0.0,0.0,0.0,0.0,0.0,0.0,0.0,0.0,0.0,0.0,0.0,0.0,0.0,0.0,0.0,0.0,0.0,0.0,0.0,0.0,0.0,0.0,0.0,0.0,0.0,0.0,0.0,0.0,0.0,0.0,0.0,0.0,0.0,0.0,0.0,0.0,0.0,0.0,0.0,0.0,0.0,-4.8866,-4.8192,-4.9151,-4.935,-4.8674,-4.7969,-4.6376,0.0,0.0,0.0,0.0,0.0,0.0,0.0,0.0,0.0,0.0,0.0,0.0,0.0,0.0,0.0,0.0,0.0,0.0,0.0,0.0,0.0,0.0,0.0,0.0,0.0,0.0,0.0,0.0,0.0,0.0,0.0,0.0,0.0,0.0,0.0,0.0,0.0,0.0,0.0,0.0,0.0,0.0,0.0,0.0,0.0,0.0,0.0,0.0,0.0,0.0,0.0,0.0,0.0,0.0,0.0,0.0,0.0,0.0,0.0,0.0,0.0,0.0,0.0,0.0,0.0,0.0,0.0,0.0,0.0,0.0,0.0,0.0,0.0,0.0,0.0,0.0,0.0,0.0,0.0,0.0,0.0,0.0,0.0,0.0,0.0,0.0,0.0,0.0,0.0,0.0,0.0,0.0,0.0,0.0,0.0,0.0,0.0,0.0,0.0,0.0,0.0,0.0,0.0,0.0,0.0,0.0,0.0,0.0,-4.7998,-4.7333,-4.8252,-4.8446,-4.7789,-4.7626,-4.6329,0.0,0.0,0.0,0.0,0.0,0.0,0.0,0.0,0.0,0.0,0.0,0.0,0.0,0.0,0.0,0.0,0.0,0.0,0.0,0.0,0.0,0.0,0.0,0.0,0.0,0.0,0.0,0.0,0.0,0.0,0.0,0.0,0.0,0.0,0.0,0.0,0.0,0.0,0.0,0.0,0.0,0.0,0.0,0.0,0.0,0.0,0.0,0.0,-4.7076,0.0,0.0,0.0,0.0,0.0,0.0,0.0,0.0,0.0,0.0,0.0,0.0,0.0,0.0,0.0,0.0,0.0,0.0,0.0,0.0,0.0,0.0,0.0,0.0,0.0,0.0,0.0,0.0,0.0,0.0,0.0,0.0,0.0,0.0,0.0,0.0,0.0,0.0,0.0,0.0,0.0,0.0,0.0,0.0,0.0,0.0,0.0,0.0,0.0,0.0,0.0,0.0,0.0,0.0,0.0,0.0,0.0,0.0,0.0,-4.7403,-4.7041,-4.7683,-4.7868,-4.7499,-4.71,-4.5884,0.0,0.0,0.0,0.0,0.0,0.0,0.0,0.0,0.0,0.0,0.0,0.0,0.0,0.0,0.0,0.0,0.0,0.0,0.0,0.0,0.0,0.0,0.0,0.0,0.0,0.0,0.0,0.0,0.0,0.0,0.0,0.0,0.0,0.0,0.0,0.0,0.0,0.0,0.0,0.0,0.0,0.0,0.0,0.0,0.0,0.0,0.0,0.0,0.0,0.0,0.0,0.0,0.0,0.0,0.0,0.0,0.0,0.0,0.0,0.0,0.0,0.0,0.0,0.0,0.0,0.0,0.0,0.0,0.0,0.0,0.0,0.0,0.0,0.0,0.0,0.0,0.0,0.0,0.0,0.0,0.0,0.0,0.0,0.0,0.0,0.0,0.0,0.0,0.0,0.0,0.0,0.0,0.0,0.0,0.0,0.0,0.0,0.0,0.0,0.0,0.0,0.0,0.0,0.0,0.0,0.0,0.0,-4.6029,-4.6914,-4.6827,-4.7223,-4.742,-4.7311,-4.657,-4.5415,-4.3741,0.0,0.0,0.0,0.0,0.0,0.0,0.0,0.0,0.0,0.0,0.0,0.0,0.0,0.0,0.0,0.0,0.0,0.0,0.0,0.0,0.0,0.0,0.0,0.0,0.0,0.0,0.0,0.0,0.0,0.0,0.0,0.0,0.0,0.0,0.0,0.0,0.0,0.0,-4.2775,-4.4307,0.0,0.0,0.0,0.0,0.0,0.0,0.0,0.0,-4.844,0.0,0.0,0.0,0.0,0.0,0.0,0.0,0.0,0.0,0.0,0.0,0.0,0.0,0.0,0.0,0.0,0.0,0.0,0.0,0.0,0.0,0.0,0.0,0.0,0.0,0.0,0.0,0.0,0.0,0.0,0.0,0.0,0.0,0.0,0.0,0.0,0.0,0.0,0.0,0.0,0.0,0.0,0.0,0.0,0.0,0.0,0.0,0.0,0.0,0.0,0.0,0.0,0.0,0.0,0.0,0.0,-4.5078,-4.6233,-4.6529,-4.5962,-4.6779,-4.6984,-4.6452,-4.6281,-4.5391,-4.3694,0.0,0.0,0.0,0.0,0.0,0.0,0.0,0.0,0.0,0.0,0.0,0.0,0.0,0.0,0.0,0.0,0.0,0.0,0.0,0.0,0.0,0.0,0.0,0.0,0.0,0.0,0.0,0.0,0.0,0.0,0.0,0.0,0.0,0.0,0.0,0.0,0.0,0.0,0.0,-4.4066,-4.4642,0.0,0.0,0.0,0.0,0.0,0.0,0.0,0.0,-4.7251,0.0,0.0,0.0,0.0,0.0,0.0,0.0,0.0,0.0,0.0,0.0,0.0,0.0,0.0,0.0,0.0,0.0,0.0,0.0,0.0,0.0,0.0,0.0,0.0,0.0,0.0,0.0,0.0,0.0,0.0,0.0,0.0,0.0,0.0,0.0,0.0,0.0,0.0,0.0,0.0,0.0,0.0,0.0,0.0,0.0,0.0,0.0,0.0,0.0,0.0,0.0,0.0,0.0,0.0,0.0,-4.5241,-4.585,-4.5965,-4.5623,-4.6144,-4.6313,-4.6089,-4.5646,-4.4853,0.0,0.0,0.0,0.0,0.0,0.0,0.0,0.0,0.0,0.0,0.0,0.0,0.0,0.0,0.0,0.0,0.0,0.0,0.0,0.0,0.0,0.0,0.0,0.0,0.0,0.0,0.0,0.0,0.0,0.0,0.0,0.0,0.0,0.0,0.0,0.0,0.0,0.0,0.0,0.0,-4.5019,-4.537,-4.5563,0.0,0.0,0.0,0.0,0.0,0.0,-4.7115,-4.6842,0.0,0.0,0.0,0.0,0.0,0.0,0.0,0.0,0.0,0.0,0.0,0.0,0.0,0.0,0.0,0.0,0.0,0.0,0.0,0.0,0.0,0.0,0.0,0.0,0.0,0.0,0.0,0.0,0.0,0.0,0.0,0.0,0.0,0.0,0.0,0.0,0.0,0.0,0.0,0.0,0.0,0.0,0.0,0.0,0.0,0.0,0.0,0.0,0.0,0.0,0.0,0.0,0.0,0.0,0.0,-4.4982,-4.5314,-4.5473,-4.5498,-4.5592,-4.575,-4.5919,-4.5246,-4.4467,0.0,0.0,0.0,0.0,0.0,0.0,0.0,0.0,0.0,0.0,0.0,0.0,0.0,0.0,0.0,0.0,0.0,0.0,0.0,0.0,0.0,0.0,0.0,0.0,0.0,0.0,0.0,0.0,0.0,0.0,0.0,0.0,0.0,0.0,0.0,0.0,0.0,0.0,0.0,0.0,0.0,-4.6306,-4.5828,-4.7047,0.0,0.0,0.0,0.0,-4.719,-4.6637,0.0,0.0,0.0,0.0,0.0,0.0,0.0,0.0,0.0,0.0,0.0,0.0,0.0,0.0,0.0,0.0,0.0,0.0,0.0,0.0,0.0,0.0,0.0,0.0,0.0,0.0,0.0,0.0,0.0,0.0,0.0,0.0,0.0,0.0,0.0,0.0,0.0,0.0,0.0,0.0,0.0,0.0,0.0,0.0,0.0,0.0,0.0,0.0,0.0,0.0,0.0,0.0,0.0,0.0,0.0,0.0,-4.414,-4.4926,-4.5371,-4.5481,-4.5496,-4.5595,-4.5724,-4.5615,-4.4866,0.0,0.0,0.0,0.0,0.0,0.0,0.0,0.0,0.0,0.0,0.0,0.0,0.0,0.0,0.0,0.0,0.0,0.0,0.0,0.0,0.0,0.0,0.0,0.0,0.0,0.0,0.0,0.0,0.0,0.0,0.0,0.0,0.0,0.0,0.0,0.0,0.0,0.0,0.0,0.0,0.0,-4.6517,-4.6627,-4.6942,-4.7127,0.0,0.0,-4.631,-4.6188,-4.6188,0.0,0.0,0.0,0.0,0.0,0.0,0.0,0.0,0.0,0.0,0.0,0.0,0.0,0.0,0.0,0.0,0.0,0.0,0.0,0.0,0.0,0.0,0.0,0.0,0.0,0.0,0.0,0.0,0.0,0.0,0.0,0.0,0.0,0.0,0.0,0.0,0.0,0.0,0.0,0.0,0.0,0.0,0.0,0.0,0.0,0.0,0.0,0.0,0.0,0.0,0.0,0.0,0.0,0.0,0.0,-4.2698,-4.3987,-4.4857,-4.531,-4.5381,-4.5381,-4.5437,-4.556,-4.4654,-4.3639,0.0,0.0,0.0,0.0,0.0,0.0,0.0,0.0,0.0,0.0,0.0,0.0,0.0,0.0,0.0,0.0,0.0,0.0,0.0,0.0,0.0,0.0,0.0,0.0,0.0,0.0,0.0,0.0,0.0,0.0,0.0,0.0,0.0,0.0,0.0,0.0,0.0,0.0,0.0,0.0,0.0,0.0,-4.6683,-4.7173,0.0,0.0,0.0,-4.6051,-4.6007,0.0,0.0,0.0,0.0,0.0,0.0,0.0,0.0,0.0,0.0,0.0,0.0,0.0,0.0,0.0,0.0,0.0,0.0,0.0,0.0,0.0,0.0,0.0,0.0,0.0,0.0,0.0,0.0,0.0,0.0,0.0,0.0,0.0,0.0,0.0,0.0,0.0,0.0,0.0,0.0,0.0,0.0,0.0,0.0,0.0,0.0,0.0,0.0,0.0,0.0,0.0,0.0,0.0,0.0,0.0,0.0,0.0,-4.3682,-4.4762,-4.5277,-4.5277,-4.5277,-4.5341,-4.5437,-4.4026,0.0,0.0,0.0,0.0,0.0,0.0,0.0,0.0,0.0,0.0,0.0,0.0,0.0,0.0,0.0,0.0,0.0,0.0,0.0,0.0,0.0,0.0,0.0,0.0,0.0,0.0,0.0,-3.2501,0.0,0.0,0.0,0.0,0.0,0.0,0.0,0.0,0.0,0.0,0.0,0.0,0.0,0.0,-4.7242,-4.6593,-4.7173,-4.7444,0.0,0.0,-4.5972,-4.5919,-4.6089,-4.6277,0.0,0.0,0.0,0.0,0.0,0.0,0.0,0.0,0.0,0.0,0.0,0.0,0.0,0.0,0.0,0.0,0.0,0.0,0.0,0.0,0.0,0.0,0.0,0.0,0.0,0.0,0.0,0.0,0.0,0.0,0.0,0.0,0.0,0.0,0.0,0.0,0.0,0.0,0.0,0.0,0.0,0.0,0.0,0.0,0.0,0.0,0.0,0.0,0.0,0.0,0.0,0.0,0.0,0.0,-4.1953,-4.2889,-4.4475,-4.5277,-4.5277,-4.5277,-4.5288,-4.5309,-4.4419,-4.3168,0.0,0.0,0.0,0.0,0.0,0.0,0.0,0.0,0.0,0.0,0.0,0.0,0.0,0.0,0.0,0.0,0.0,0.0,0.0,0.0,0.0,0.0,0.0,0.0,0.0,0.0,0.0,0.0,0.0,0.0,0.0,0.0,0.0,0.0,0.0,0.0,0.0,0.0,0.0,0.0,0.0,-4.6576,-4.6519,-4.6663,-4.6724,0.0,0.0,-4.5925,-4.5764,-4.6003,-4.6468,-4.7267,0.0,0.0,0.0,0.0,0.0,0.0,0.0,0.0,0.0,0.0,0.0,0.0,0.0,0.0,0.0,0.0,0.0,0.0,0.0,0.0,0.0,0.0,0.0,0.0,0.0,0.0,0.0,0.0,0.0,0.0,0.0,0.0,0.0,0.0,0.0,0.0,0.0,0.0,0.0,0.0,0.0,0.0,0.0,0.0,0.0,0.0,0.0,0.0,0.0,0.0,0.0,0.0,0.0,-4.1399,-4.2794,-4.4406,-4.5265,-4.5297,-4.5277,-4.5277,-4.5277,-4.3978,-4.2698,0.0,0.0,0.0,0.0,0.0,0.0,0.0,0.0,0.0,0.0,0.0,0.0,0.0,0.0,0.0,0.0,0.0,0.0,0.0,0.0,0.0,0.0,0.0,0.0,0.0,0.0,0.0,0.0,-3.6159,-3.7363,-3.8793,0.0,0.0,0.0,0.0,0.0,0.0,0.0,0.0,0.0,0.0,-4.6451,-4.6431,-4.6525,0.0,0.0,-4.6491,-4.6317,-4.578,-4.6321,-4.6794,-4.6714,-4.6433,0.0,0.0,0.0,0.0,0.0,0.0,0.0,0.0,0.0,0.0,0.0,0.0,0.0,0.0,0.0,0.0,0.0,0.0,0.0,0.0,0.0,0.0,0.0,0.0,0.0,0.0,0.0,0.0,0.0,0.0,0.0,0.0,0.0,0.0,0.0,0.0,0.0,0.0,0.0,0.0,0.0,0.0,0.0,0.0,0.0,0.0,0.0,0.0,0.0,0.0,0.0,0.0,-4.1283,-4.2725,-4.4334,-4.5192,-4.5256,-4.5256,-4.5256,-4.5218,-4.3652,-4.2354,0.0,0.0,0.0,0.0,0.0,0.0,0.0,0.0,0.0,0.0,0.0,0.0,0.0,0.0,0.0,0.0,0.0,0.0,0.0,0.0,0.0,0.0,0.0,0.0,0.0,0.0,0.0,0.0,-3.7837,-3.9001,-3.9824,0.0,0.0,0.0,0.0,0.0,0.0,0.0,0.0,0.0,0.0,-4.5974,-4.5974,-4.6039,-4.6191,-4.645,-4.6435,-4.6339,-4.6119,-4.6661,-4.6979,-4.661,0.0,0.0,0.0,0.0,0.0,0.0,0.0,0.0,0.0,0.0,0.0,0.0,0.0,0.0,0.0,0.0,0.0,0.0,0.0,0.0,0.0,0.0,0.0,0.0,0.0,0.0,0.0,0.0,0.0,0.0,-3.8776,0.0,0.0,0.0,0.0,0.0,0.0,0.0,0.0,0.0,0.0,0.0,0.0,0.0,0.0,0.0,0.0,0.0,0.0,0.0,0.0,0.0,0.0,-4.1767,-4.262,-4.4257,-4.5117,-4.5173,-4.5192,-4.5154,-4.5107,-4.3562,-4.2284,-4.1378,0.0,0.0,0.0,0.0,0.0,0.0,0.0,0.0,0.0,0.0,0.0,0.0,0.0,0.0,0.0,0.0,0.0,0.0,0.0,0.0,0.0,0.0,0.0,0.0,0.0,0.0,-3.742,-3.8178,-3.9012,0.0,0.0,0.0,0.0,0.0,0.0,0.0,0.0,0.0,0.0,-4.4993,-4.5029,-4.5048,-4.5106,-4.5468,-4.6363,-4.5975,-4.5896,-4.6819,-4.6935,-4.7008,0.0,0.0,0.0,0.0,0.0,0.0,0.0,0.0,0.0,0.0,0.0,0.0,0.0,0.0,0.0,0.0,0.0,0.0,0.0,0.0,0.0,0.0,0.0,0.0,0.0,0.0,0.0,-4.0827,-4.0049,0.0,0.0,0.0,0.0,0.0,0.0,0.0,0.0,0.0,0.0,0.0,-4.1594,-4.2221,0.0,0.0,0.0,0.0,0.0,0.0,0.0,0.0,0.0,0.0,0.0,0.0,-4.1751,-4.261,-4.4213,-4.4802,-4.4356,-4.4337,-4.4051,-4.349,-4.2404,-4.1137,-3.9718,0.0,0.0,0.0,0.0,0.0,0.0,0.0,0.0,0.0,0.0,0.0,0.0,0.0,0.0,0.0,0.0,0.0,0.0,0.0,0.0,0.0,0.0,0.0,0.0,0.0,-3.9066,0.0,0.0,0.0,0.0,0.0,0.0,0.0,0.0,0.0,0.0,0.0,-4.4919,-4.4895,-4.4919,-4.4919,-4.4931,-4.4979,-4.5361,0.0,0.0,0.0,0.0,0.0,0.0,0.0,0.0,0.0,0.0,0.0,0.0,0.0,0.0,-4.9167,-4.7533,-4.6763,-4.6169,-4.5551,0.0,0.0,0.0,0.0,0.0,0.0,0.0,0.0,0.0,0.0,0.0,0.0,0.0,0.0,-4.1287,0.0,-3.9914,0.0,0.0,0.0,0.0,0.0,0.0,0.0,0.0,-4.2782,-4.3203,-4.3089,-4.345,-4.3497,0.0,-4.3284,-4.2299,0.0,0.0,0.0,0.0,0.0,0.0,0.0,0.0,-4.2142,-4.2981,-4.4011,-4.4326,-4.387,-4.3577,-4.314,-4.2569,-4.1789,-4.0553,-3.8869,-3.8308,-3.7624,0.0,0.0,0.0,0.0,0.0,0.0,0.0,0.0,0.0,0.0,0.0,0.0,0.0,0.0,0.0,0.0,0.0,0.0,0.0,0.0,0.0,0.0,0.0,-3.99,0.0,0.0,0.0,0.0,0.0,0.0,0.0,0.0,0.0,-4.535,-4.5085,-4.5009,-4.5312,-4.5085,-4.4895,-4.4895,0.0,0.0,0.0,0.0,0.0,0.0,0.0,-4.8414,-4.8468,-4.8419,-4.8619,-4.9413,-5.0317,-5.0613,-4.9502,0.0,0.0,-4.8359,-4.7824,-4.7326,-4.6433,-4.6035,-4.5854,-4.5874,-4.5892,-4.5941,0.0,0.0,0.0,0.0,0.0,0.0,0.0,0.0,-4.1527,-4.1056,0.0,-4.024,0.0,0.0,0.0,0.0,0.0,0.0,0.0,0.0,-4.3187,-4.3751,-4.4318,-4.435,-4.4538,-4.4858,-4.482,-4.4385,-4.3514,-4.2029,0.0,0.0,0.0,0.0,0.0,0.0,-4.2925,-4.3644,-4.3758,-4.3744,-4.3719,-4.294,-4.2465,-4.237,-4.1648,-4.049,-3.8933,-3.8802,-3.8432,-3.7671,-3.6749,0.0,0.0,0.0,0.0,0.0,0.0,0.0,0.0,0.0,0.0,0.0,0.0,0.0,0.0,0.0,0.0,0.0,0.0,0.0,0.0,-3.9938,0.0,0.0,0.0,0.0,0.0,0.0,0.0,0.0,0.0,0.0,-4.6165,-4.5501,-4.5274,-4.607,0.0,0.0,0.0,0.0,-4.558,-4.7175,-4.6844,-4.7018,-4.8796,-4.8903,-4.8848,-4.9162,0.0,0.0,-4.9471,-5.0171,-5.026,-4.872,-4.9107,-4.9649,-4.9552,-4.8786,-4.8031,-4.7219,-4.6368,-4.5845,-4.5807,-4.5814,-4.5814,-4.3192,0.0,0.0,0.0,0.0,-4.3221,-4.3082,-4.2875,-4.2842,-4.2368,-4.1579,-4.0974,0.0,0.0,0.0,0.0,0.0,0.0,-4.2696,-4.2733,-4.345,-4.3846,-4.4031,-4.405,-4.4095,-4.4184,-4.4184,-4.3772,-4.2997,-4.2758,-4.2146,-4.1226,0.0,0.0,0.0,0.0,-4.3467,-4.372,-4.427,-4.3978,-4.2834,-4.2549,-4.1867,-4.0691,-4.0426,-4.0084,-3.9591,-3.9043,-3.8617,-3.8371,-3.6994,0.0,0.0,0.0,0.0,0.0,0.0,0.0,0.0,0.0,0.0,0.0,0.0,0.0,0.0,0.0,0.0,0.0,0.0,0.0,-3.99,-4.0468,-4.0809,0.0,0.0,0.0,0.0,0.0,0.0,0.0,0.0,0.0,-4.6127,-4.6487,-4.6544,0.0,0.0,-4.5596,-4.499,-4.4919,-4.5318,-4.6417,0.0,0.0,0.0,-4.8372,-4.8392,-4.9517,-4.9477,-4.9285,-4.9394,-4.9176,-4.885,-4.8415,-4.8604,-4.8585,-4.7947,-4.7657,-4.7386,-4.7096,-4.6406,-4.5826,-4.5807,-4.5807,-4.5807,-4.3123,-4.3525,-4.3507,-4.3507,-4.349,-4.3508,-4.3388,-4.3177,-4.3177,-4.2922,-4.2448,-4.192,-4.1707,-4.1677,-4.0841,0.0,0.0,0.0,-4.2906,-4.2792,-4.3287,-4.3574,-4.3689,-4.3705,-4.377,-4.3878,-4.3878,-4.3485,-4.2698,-4.2911,-4.2275,-4.0923,0.0,0.0,-4.2697,-4.336,-4.3872,-4.4175,-4.4326,-4.3758,-4.242,-4.1738,-4.0923,-3.9957,-3.99,-3.99,-3.99,-3.9437,-3.9172,-3.9153,-3.7912,-3.704,0.0,0.0,0.0,0.0,0.0,0.0,0.0,0.0,0.0,0.0,0.0,-3.7573,-3.7252,0.0,0.0,0.0,-4.0129,-4.0544,-4.0847,-4.1359,0.0,0.0,0.0,0.0,0.0,0.0,0.0,-4.4838,-4.5198,-4.5615,-4.6146,-4.6885,-4.7093,-4.6297,-4.5899,-4.5483,-4.4971,0.0,-4.5198,-4.6082,-4.6203,-4.6657,-4.7959,-4.7845,-4.7886,-4.8744,-4.8656,-4.8331,-4.8171,-4.7847,-4.7428,-4.6958,-4.6804,-4.6665,-4.618,-4.6109,-4.6245,-4.6496,-4.6167,-4.5826,-4.5807,-4.5807,-4.5807,-4.2919,-4.2919,-4.2919,-4.2919,-4.2919,-4.2919,-4.2919,-4.2919,-4.2919,-4.2919,-4.2919,-4.2919,-4.2614,-4.2182,-4.2567,0.0,-4.2201,-4.3005,-4.3177,-4.2919,-4.2919,-4.3051,-4.3354,-4.3354,-4.3507,-4.3818,-4.3818,-4.337,-4.2551,-4.2544,-4.178,-4.0341,-4.1594,-4.3035,-4.4512,-4.4025,-4.4101,-4.4833,-4.4163,-4.3379,-4.2496,-4.0866,-3.9995,-4.0014,-3.9957,-3.99,-3.99,-3.99,-3.99,-3.9862,-3.9145,-3.8329,-3.7533,0.0,0.0,0.0,0.0,0.0,0.0,0.0,0.0,0.0,0.0,0.0,0.0,0.0,0.0,0.0,-4.0587,0.0,-4.2302,-4.2458,0.0,0.0,0.0,-4.3796,-4.3796,-4.444,-4.4895,-4.4895,0.0,0.0,-4.6089,0.0,-4.6923,-4.6203,-4.5483,-4.499,-4.4895,-4.4895,-4.5198,-4.5918,-4.607,-4.6373,-4.715,-4.7365,-4.7441,-4.7542,-4.7445,-4.7144,-4.6514,-4.6249,-4.5764,-4.4636,-4.4294,-4.4353,-4.445,-4.4626,-4.4833,-4.5568,-4.5742,-4.5807,-4.5807,-4.5807,-4.5807,-4.2919,-4.2919,-4.2919,-4.2919,-4.2919,-4.2919,-4.2919,-4.2919,-4.2919,-4.2919,-4.2919,-4.2919,-4.2522,-4.1869,-4.2541,-4.2468,-4.1851,-4.265,-4.2958,-4.2919,-4.2919,-4.2939,-4.3014,-4.3014,-4.3069,-4.3123,-4.3142,-4.2394,-4.1081,-4.1279,-4.0927,-4.0072,-4.0533,-4.131,-4.2305,-4.3576,-4.4342,-4.4511,-4.4588,-4.4213,-4.3398,-4.1738,-4.0885,-4.0885,-4.0241,-3.99,-3.99,-3.99,-3.99,-3.9881,-3.9134,-3.8614,-3.8386,-3.6348,0.0,0.0,0.0,0.0,0.0,0.0,0.0,0.0,0.0,-4.014,-3.804,0.0,-4.2429,0.0,-4.1424,-4.1813,-4.2001,-4.2843,0.0,0.0,-4.4118,-4.4611,-4.4611,-4.4781,-4.4895,-4.4895,-4.5085,-4.5198,-4.5217,-4.5369,-4.5445,-4.5217,-4.5596,-4.5653,-4.5028,-4.4895,-4.4971,-4.5179,-4.5236,-4.5501,-4.6316,-4.7018,-4.7302,-4.7397,-4.6385,-4.5546,-4.5486,-4.4444,-4.3531,-4.3307,-4.3341,-4.3424,-4.3455,-4.4061,-4.4613,-4.4891,-4.5355,-4.5807,-4.5807,-4.5807,-4.5807,-4.2919,-4.2919,-4.2919,-4.2919,-4.2919,-4.2919,-4.2919,-4.2919,-4.2919,-4.2919,-4.2919,-4.2919,-4.2647,-4.2285,-4.2701,-4.2647,-4.2285,-4.2701,-4.2919,-4.2919,-4.2919,-4.2919,-4.2883,-4.2538,-4.2375,-4.2357,-4.2013,-4.1198,-4.0075,-4.0176,-3.9893,-3.9177,-3.9994,-4.0609,-4.1119,-4.2787,-4.39,-4.4397,-4.4073,-4.371,-4.3241,-4.1763,-4.0976,-4.0957,-4.0177,-3.9781,-3.9889,-3.98,-3.9611,-3.937,-3.9286,-3.9004,-3.8497,-3.7475,-3.7043,0.0,0.0,0.0,0.0,0.0,0.0,0.0,0.0,0.0,0.0,0.0,-4.2743,-4.2043,-4.2135,-4.2445,-4.2871,-4.3523,-4.3969,-4.4134,-4.441,-4.4616,-4.4649,-4.4544,-4.4517,-4.4668,-4.4681,-4.4751,-4.487,-4.4895,-4.4895,-4.4895,-4.5312,-4.5445,-4.5028,-4.4895,-4.4895,-4.4895,-4.4895,-4.4895,-4.5103,-4.5122,-4.5179,-4.5103,-4.4402,-4.3718,-4.346,-4.2683,-4.1985,-4.1724,-4.171,-4.195,-4.2441,-4.3269,-4.4042,-4.4587,-4.5239,-4.5749,-4.5807,-4.5807,-4.5807,-4.2919,-4.2919,-4.2919,-4.2919,-4.2919,-4.2919,-4.2919,-4.2919,-4.2919,-4.2919,-4.2919,-4.2919,-4.2919,-4.2919,-4.2919,-4.2919,-4.2919,-4.2919,-4.2919,-4.2919,-4.2919,-4.2846,-4.2701,-4.2012,-4.165,-4.1524,-4.0836,-4.013,-3.9405,-3.9387,-3.8988,-3.8299,-3.955,-4.0274,-4.0471,-4.1756,-4.3059,-4.4308,-4.339,-4.2921,-4.2883,-4.1669,-4.0978,-4.0828,-4.0046,-3.9645,-3.977,-3.9669,-3.9387,-3.9004,-3.969,-3.9658,-3.8727,-3.9208,-3.9365,0.0,-3.8952,0.0,0.0,0.0,0.0,0.0,0.0,0.0,0.0,-4.1711,-4.2413,-4.2702,-4.2751,-4.3107,-4.3982,-4.4102,-4.425,-4.4554,-4.4308,-4.4188,-4.4313,-4.4065,-4.3989,-4.4285,-4.4313,-4.443,-4.4681,-4.4777,-4.4777,-4.4764,-4.4833,-4.4821,-4.4713,-4.4776,-4.4876,-4.48,-4.4649,-4.4194,-4.3682,-4.2976,-4.2548,-4.2472,-4.2354,-4.1968,-4.1389,-4.1098,-4.0783,-4.0238,-4.0156,-4.0454,-4.1407,-4.2375,-4.3324,-4.4005,-4.4884,-4.5548,-4.5587,-4.5575,-4.5613,-4.2919,-4.2919,-4.2919,-4.2919,-4.2919,-4.2919,-4.2919,-4.2919,-4.2919,-4.2919,-4.2919,-4.2919,-4.2919,-4.2919,-4.2919,-4.2919,-4.2919,-4.2919,-4.2919,-4.2919,-4.2919,-4.2556,-4.194,-4.1759,-4.1361,-4.0745,-4.0582,-4.0148,-3.9387,-3.9387,-3.9006,-3.8227,-3.8499,-3.9069,-4.0006,0.0,0.0,0.0,-4.4049,-4.4074,-4.4055,-4.3178,-4.2412,-4.1749,-4.0653,0.0,-3.9232,-3.976,-4.0149,-4.0334,-4.0819,0.0,0.0,0.0,0.0,0.0,0.0,0.0,0.0,0.0,0.0,0.0,-4.1642,-4.1297,-4.0738,-4.1814,-4.2666,-4.2975,-4.3011,-4.3101,-4.3282,-4.3572,-4.3828,-4.4076,-4.3893,-4.3812,-4.4028,-4.3828,-4.3733,-4.3878,-4.3828,-4.3828,-4.4001,-4.411,-4.418,-4.4138,-4.4379,-4.4283,-4.3657,-4.4304,-4.4618,-4.4042,-4.3386,-4.2856,-4.2697,-4.2375,-4.2088,-4.217,-4.155,-4.108,-4.0854,-4.0277,-3.9851,-3.9621,-3.9713,-3.9908,-4.0377,-4.1766,-4.2821,-4.2553,-4.3761,-4.4826,-4.4833,-4.4833,-4.4639,-4.2919,0.0,-4.2919,-4.2919,0.0,-4.2919,-4.2919,-4.2919,-4.2919,-4.2919,-4.2919,-4.2919,-4.2919,-4.2919,-4.2919,-4.2919,-4.2919,-4.2919,-4.2919,-4.2883,-4.2502,-4.2103,-4.1669,-4.0926,-4.0347,-3.9967,-3.955,-3.917,-3.8825,-3.8825,-3.8607,-3.8227,-3.8538,-3.9021,-3.9657,-4.0581,-4.1814,-4.3387,-4.3555,-4.3654,-4.3634,-4.3021,-4.2522,-4.2092,0.0,0.0,0.0,0.0,0.0,0.0,0.0,0.0,0.0,0.0,0.0,-4.1262,-4.0934,-4.0879,-4.1228,-4.1266,-4.1524,-4.2137,-4.2153,-4.1954,-4.1613,-4.2201,-4.267,-4.2826,-4.2864,-4.2902,-4.2995,-4.3141,-4.3369,-4.3654,-4.3437,-4.3334,-4.3488,-4.3282,-4.3194,-4.3422,-4.3422,-4.3436,-4.3668,-4.3746,-4.3608,-4.3305,-4.3469,-4.3371,-4.274,-4.3418,-4.3813,-4.3063,-4.2262,-4.1713,-4.1664,-4.1191,-4.0872,-4.0785,-4.0472,-4.0221,-4.0153,-3.9815,-3.9495,-3.9495,-3.9568,-3.9679,-3.9935,-4.1141,-4.2064,-4.1978,-4.2941,-4.3675,-4.3424,-4.3626,-4.3846,-4.2919,-4.2919,-4.2919,-4.2919,-4.2919,-4.2919,-4.2919,-4.2919,0.0,0.0,0.0,-4.2919,-4.2919,-4.2919,-4.2919,-4.2919,-4.2919,-4.2919,-4.2919,-4.2865,-4.2067,-4.1632,-4.1415,-4.0057,-3.9333,-3.9116,-3.85,-3.8192,-3.814,-3.8157,-3.8175,-3.8195,-3.8705,-3.9138,-3.9606,-4.0745,-4.1846,-4.2808,-4.2901,-4.2939,-4.2921,-4.2556,-4.2293,-4.2165,-4.1455,-4.1099,-4.1172,-4.1115,-4.0826,-4.0388,-4.1109,-4.1389,-4.1085,-4.1669,-4.2194,-4.2537,-4.2607,-4.2607,-4.257,-4.2526,-4.2483,-4.2483,-4.2366,-4.2369,-4.255,-4.255,-4.255,-4.255,-4.255,-4.2629,-4.2768,-4.2805,-4.292,-4.3231,-4.2995,-4.2845,-4.2977,-4.2749,-4.2671,-4.2921,-4.2977,-4.2996,-4.3095,-4.318,-4.2954,-4.2288,-4.2263,-4.2199,-4.164,-4.2183,-4.2609,-4.2021,-4.1254,-4.0733,-4.0626,-4.0115,-3.9496,-3.959,-3.9527,-3.9439,-3.9439,-3.9439,-3.9439,-3.9395,-3.9439,-3.9508,-3.9693,-4.058,-4.1264,-4.1338,-4.2173,-4.2668,-4.1965,-4.2277,-4.2737,-4.2919,-4.2919,-4.2919,-4.2919,-4.2919,-4.2919,-4.2919,-4.2919,-4.2919,-4.2919,-4.2919,-4.2919,-4.2919,-4.2919,-4.2919,-4.2919,-4.2919,-4.2919,-4.2919,0.0,-4.2067,-4.1325,-4.0637,-3.9804,-3.8972,-3.8235,-3.8194,-3.8124,-3.7969,-3.8003,-3.802,-3.7969,-3.8042,-3.8744,-4.0003,-4.0291,-4.1136,-4.2595,-4.2921,-4.3069,-4.3069,-4.3014,-4.2631,-4.1974,-4.156,-4.1033,-4.0402,-4.0997,-4.1433,-4.1608,-4.2141,-4.25,-4.2668,-4.2534,-4.2501,-4.2526,-4.2568,-4.257,-4.2506,-4.2503,-4.2445,-4.2346,-4.2308,-4.2308,-4.2328,-4.2348,-4.2348,-4.2331,-4.2348,-4.2348,-4.2389,-4.2391,-4.2514,-4.275,-4.2554,-4.2492,-4.2731,-4.2514,-4.2391,-4.2534,-4.249,-4.2169,-4.177,-4.1794,-4.1615,-4.0944,-4.0859,-4.0836,-4.0495,-4.0737,-4.106,-4.0923,-4.0272,-3.9802,-3.9771,-3.9539,-3.9337,-3.9305,-3.9251,-3.9178,-3.9178,-3.9192,-3.9178,-3.9165,-3.9178,-3.9272,-3.9489,-4.0238,-4.0642,-4.0568,-4.1203,-4.1536,-4.0961,-4.1012,-4.1033,-4.2919,-4.2919,-4.2919,-4.2919,-4.2919,-4.2919,-4.2919,-4.2919,-4.2919,-4.2919,-4.2919,-4.2919,-4.2919,-4.2919,-4.2919,-4.2919,-4.2919,-4.2919,-4.2665,-4.2212,-4.1415,-4.0619,-3.9858,-3.9063,-3.8414,-3.8001,-3.802,-3.7986,-3.7899,-3.7951,-3.7933,-3.7917,-3.7899,-3.8438,-3.9461,-3.9927,-4.0716,-4.1866,-4.2513,-4.2826,-4.2826,-4.2826,-4.2428,-4.1632,-4.1463,-4.1045,-4.0291,-4.0614,-4.1049,-4.1558,-4.1785,-4.2103,-4.2577,-4.2512,-4.2409,-4.2405,-4.2409,-4.243,-4.2405,-4.2387,-4.2366,-4.2308,-4.2308,-4.2091,-4.168,-4.2058,-4.2308,-4.2308,-4.2308,-4.2308,-4.2308,-4.2308,-4.2331,-4.2472,-4.2389,-4.2369,-4.2434,-4.2391,-4.2149,-4.1812,-4.1685,-4.1361,-4.0635,-4.0623,-4.0393,-3.9677,-3.9427,-3.9279,-3.9338,-3.9548,-3.9783,-3.9887,-3.9645,-3.9439,-3.9389,-3.9272,-3.9192,-3.9178,-3.9142,-3.9101,-3.9101,-3.9101,-3.9101,-3.9101,-3.9101,-3.9156,-3.9285,-3.9696,-3.9922,-3.9947,-4.0191,-4.0444,-4.0366,-4.0154,-3.9928,-4.2919,-4.2919,-4.2919,-4.2919,-4.2919,-4.2919,-4.2919,-4.2919,-4.2919,-4.2919,-4.2919,-4.2919,-4.2919,-4.2919,-4.2919,-4.2919,-4.2901,-4.2701,-4.2303,-4.165,-4.0673,-3.9913,-3.9316,-3.8398,-3.7949,-3.795,-3.7916,-3.7881,-3.7828,-3.7864,-3.7846,-3.7828,-3.7828,-3.8187,-3.8866,-3.9653,-4.0459,-4.1248,-4.2097,-4.2548,-4.253,-4.253,-4.2225,-4.1669,-4.1435,-4.106,-4.0522,-4.0306,-4.0448,-4.0926,-4.0979,-4.1316,-4.1968,-4.2019,-4.2111,-4.2272,-4.2308,-4.2308,-4.2308,-4.2308,-4.2308,-4.2308,-4.2126,-4.1772,-4.1252,-4.1663,-4.204,-4.2037,-4.2183,-4.2308,-4.2308,-4.2308,-4.2308,-4.2308,-4.2308,-4.2308,-4.229,-4.2126,-4.1823,-4.1199,-4.0967,-4.0538,-3.9896,-3.9645,-3.9361,-3.8668,-3.8187,-3.8206,-3.8544,-3.8652,-3.8844,-3.9082,-3.9219,-3.9259,-3.9245,-3.9165,-3.9115,-3.9101,-3.9101,-3.9101,-3.9101,-3.9101,-3.9101,-3.9101,-3.9101,-3.9115,-3.9129,-3.9277,-3.9446,-3.9513,-3.9566,-3.9477,-3.9414,-3.8901,-3.8758,-4.2919,-4.2919,-4.2919,-4.2919,-4.2919,-4.2919,-4.2919,-4.2919,-4.2919,-4.2919,-4.2919,-4.2919,-4.2919,-4.2919,-4.2919,-4.2919,-4.2828,-4.2158,-4.1759,-4.1487,-4.0041,-3.9264,-3.912,-3.8293,-3.7846,-3.7757,-3.7828,-3.7811,-3.7649,-3.7703,-3.7703,-3.7631,-3.7631,-3.8006,-3.8791,-3.9521,-4.0307,-4.1112,-4.1917,-4.231,-4.2328,-4.2328,-4.2292,-4.2221,-4.1489,-4.1096,-4.0846,-4.0308,-3.9951,-4.0003,-4.0039,-4.0396,-4.1109,-4.1217,-4.152,-4.2236,-4.2269,-4.2308,-4.2308,-4.2308,-4.2308,-4.2234,-4.1663,-4.1217,-4.1074,-4.1163,-4.1199,-4.127,-4.1841,-4.229,-4.2308,-4.2308,-4.2308,-4.2308,-4.2234,-4.2308,-4.2162,-4.1645,-4.1181,-4.1127,-4.0396,-3.9736,-3.9075,-3.8897,-3.8611,-3.7933,-3.7918,-3.8001,-3.8136,-3.8318,-3.8525,-3.8803,-3.9007,-3.9115,-3.9129,-3.9115,-3.9101,-3.9101,-3.9101,-3.9101,-3.9101,-3.9101,-3.9101,-3.9101,-3.9101,-3.9101,-3.9101,-3.9124,-3.9176,-3.9133,-3.8843,-3.8301,-3.7761,-3.7167,-3.7075,-4.2919,-4.2919,-4.2919,-4.2919,-4.2919,-4.2919,-4.2919,-4.2919,-4.2919,-4.2919,-4.2919,-4.2919,-4.2919,-4.2919,-4.2919,-4.2919,-4.2828,-4.2067,-4.1397,-4.0872,-3.9716,-3.8922,-3.8401,-3.8007,-3.7757,-3.7703,-3.7703,-3.7685,-3.7613,-3.7631,-3.7631,-3.7595,-3.7595,-3.7773,-3.8165,-3.927,-4.0055,-4.0414,-4.1645,-4.2308,-4.2308,-4.2308,-4.1823,-4.0967,-4.0556,-3.9914,-3.9165,-3.9147,-3.9272,-3.9289,-3.9664,-4.0037,-4.0378,-4.0396,-4.077,-4.152,-4.2058,-4.2308,-4.2308,-4.2308,-4.2308,-4.2308,-4.1984,-4.1448,-4.0538,-4.0806,-4.077,-4.0092,-4.1288,-4.2308,-4.229,-4.2308,-4.2308,-4.2254,-4.1895,-4.1591,-4.1573,-4.0895,-4.0253,-3.9788,-3.9431,-3.8968,-3.829,-3.8094,-3.7951,-3.7648,-3.7703,-3.7828,-3.7966,-3.8103,-3.8269,-3.851,-3.8755,-3.8946,-3.9059,-3.9101,-3.9101,-3.9101,-3.9101,-3.9101,-3.9101,-3.9101,-3.9101,-3.9082,-3.9101,-3.9101,-3.9101,-3.8637,-3.8444,-3.8402,-3.8027,-3.7318,-3.6597,-3.6269,-3.6283,-4.2919,-4.2919,-4.2919,-4.2919,-4.2919,-4.2919,-4.2919,-4.2919,-4.2919,-4.2919,-4.2919,-4.2919,-4.2919,-4.2919,-4.2919,-4.2792,-4.2484,-4.1723,-4.0908,-4.0041,-3.9229,-3.8473,-3.7882,-3.7721,-3.7667,-3.7667,-3.7631,-3.7595,-3.7595,-3.7595,-3.7595,-3.7595,-3.7595,-3.7595,-3.7755,-3.9129,-3.9877,-4.0055,-4.1484,-4.2308,-4.2308,-4.2308,-4.1627,-4.036,-4.0002,-3.9272,-3.8005,-3.8487,-3.8789,-3.8789,-3.9092,-3.9593,-4.018,-3.9841,-4.0037,-4.1038,-4.1841,-4.2308,-4.2308,-4.2308,-4.2308,-4.2269,-4.2129,-4.1377,-4.0342,-4.0412,-4.0164,-3.9181,-4.0538,-4.1645,-4.1968,-4.2183,-4.2236,-4.1984,-4.1413,-4.1038,-4.077,-4.0092,-3.9395,-3.8878,-3.8665,-3.8272,-3.7755,-3.7631,-3.7631,-3.7613,-3.7595,-3.7667,-3.7827,-3.7898,-3.8002,-3.8236,-3.8462,-3.868,-3.8946,-3.9073,-3.9087,-3.9101,-3.9101,-3.9101,-3.9101,-3.9101,-3.8859,-3.8711,-3.8934,-3.8748,-3.8265,-3.7833,-3.7554,-3.7259,-3.6883,-3.6304,-3.5506,-3.5504,-3.5304,-4.2919,-4.2919,-4.2919,-4.2919,-4.2919,-4.2919,-4.2919,-4.2919,-4.2919,-4.2919,-4.2919,-4.2919,-4.2919,-4.2919,-4.2919,-4.2484,-4.1741,-4.0981,-4.0167,-3.9283,-3.8419,-3.79,-3.7703,-3.7631,-3.7595,-3.7613,-3.7595,-3.7595,-3.7595,-3.7595,-3.7595,-3.7595,-3.7595,-3.7595,-3.7809,-3.9147,-3.9877,-4.0055,-4.1484,-4.229,-4.2254,-4.2254,-4.177,-4.0895,-4.0305,-3.9556,-3.8826,-3.8771,-3.8807,-3.8807,-3.8219,-3.8736,-4.0574,-3.9645,-3.9611,-4.0967,-4.1841,-4.2308,-4.2308,-4.2308,-4.2308,-4.2218,-4.1645,-4.0824,-4.0019,-3.993,-3.9575,-3.8861,-3.9539,-4.0378,-4.102,-4.1609,-4.1787,-4.1234,-4.1092,-4.0663,-4.0002,-3.9288,-3.8878,-3.8647,-3.8148,-3.7773,-3.7613,-3.7595,-3.7595,-3.7595,-3.7595,-3.7613,-3.7631,-3.7631,-3.7757,-3.795,-3.8086,-3.8236,-3.8698,-3.895,-3.9059,-3.9073,-3.9059,-3.9082,-3.9082,-3.9008,-3.8599,-3.8358,-3.8544,-3.8228,-3.7387,-3.6922,-3.6755,-3.6415,-3.5857,-3.5231,-3.4782,-3.4431,-3.4354,-4.2919,-4.2919,-4.2919,-4.2919,-4.2919,-4.2919,-4.2919,-4.2919,-4.2919,-4.2919,-4.2919,-4.2919,-4.2919,-4.2919,-4.2919,-4.2466,-4.165,-4.0818,-3.9969,-3.9103,-3.8187,-3.7721,-3.7649,-3.7613,-3.7595,-3.7595,-3.7595,-3.7595,-3.7595,-3.7595,-3.7595,-3.7595,-3.7595,-3.7595,-3.7863,-3.9129,-3.9877,-4.0055,-4.1484,-4.2055,-4.152,-4.1038,-4.0414,-3.9736,-4.0324,-4.0075,-3.8825,-3.9235,-3.9521,-3.9502,-3.879,-3.8736,-3.9504,-3.9575,-3.9968,-4.102,-4.1841,-4.2308,-4.2308,-4.2308,-4.2308,-4.2254,-4.1556,-4.077,-4.0002,-3.9449,-3.8879,-3.838,-3.8754,-3.9324,-3.9645,-4.0324,-4.0646,-4.036,-3.9914,-3.9575,-3.9165,-3.8522,-3.8023,-3.7969,-3.7737,-3.7613,-3.7595,-3.7595,-3.7595,-3.7595,-3.7595,-3.7595,-3.7595,-3.7595,-3.7649,-3.7739,-3.788,-3.8069,-3.8219,-3.8683,-3.8921,-3.895,-3.896,-3.9041,-3.905,-3.8553,-3.8108,-3.8039,-3.8182,-3.7769,-3.6933,-3.629,-3.6049,-3.5312,-3.4791,-3.4736,-3.4265,-3.4216,-3.4216,-4.2919,-4.2919,-4.2919,-4.2919,-4.2919,-4.2919,-4.2919,-4.2919,-4.2919,-4.2919,-4.2919,-4.2919,-4.2919,-4.2919,-4.2919,-4.2303,-4.1343,-4.0655,-3.977,-3.8726,-3.8008,-3.7649,-3.7613,-3.7595,-3.7595,-3.7595,-3.7595,-3.7595,-3.7595,-3.7595,-3.7595,-3.7595,-3.7595,-3.7595,-3.7827,-3.8897,-3.9538,-3.9823,-4.1109,-4.1502,-4.0753,-4.018,-3.9556,-3.9056,-3.9825,-3.9771,-3.8487,-3.9147,-3.9538,-3.9413,-3.8594,-3.8148,-3.8451,-3.986,-4.0788,-4.1145,-4.1859,-4.2308,-4.2308,-4.2308,-4.2308,-4.229,-4.1787,-4.1074,-4.0057,-3.9431,-3.8701,-3.8059,-3.8023,-3.8415,-3.8504,-3.8879,-3.9272,-3.9413,-3.9074,-3.8683,-3.8433,-3.797,-3.7666,-3.7648,-3.7631,-3.7595,-3.7595,-3.7595,-3.7595,-3.7595,-3.7595,-3.7595,-3.7595,-3.7595,-3.7595,-3.7613,-3.7757,-3.7845,-3.7949,-3.8252,-3.8683,-3.8788,-3.8829,-3.8909,-3.8595,-3.8076,-3.7687,-3.7687,-3.7479,-3.7079,-3.6512,-3.5813,-3.512,-3.4364,-3.4309,-3.4401,-3.4216,-3.4216,-3.4216,-4.2919,-4.2919,-4.2919,-4.2919,-4.2919,-4.2919,-4.2919,-4.2919,-4.2919,-4.2919,-4.2919,-4.2919,-4.2919,-4.2919,-4.2919,-4.2049,-4.0764,-4.0456,-3.9536,-3.8097,-3.7793,-3.7667,-3.7595,-3.7595,-3.7595,-3.7595,-3.7595,-3.7595,-3.7595,-3.7595,-3.7595,-3.7595,-3.7595,-3.7595,-3.7595,-3.8451,-3.8842,-3.92,-4.0378,-4.0681,-4.0002,-3.9823,-3.945,-3.8808,-3.8843,-3.8522,-3.772,-3.8433,-3.8914,-3.879,-3.747,-3.6899,-3.8112,-4.036,-4.1826,-4.1377,-4.1895,-4.2272,-4.2308,-4.2254,-4.2183,-4.2234,-4.2183,-4.1324,-4.0164,-3.9734,-3.9111,-3.7934,-3.7648,-3.7684,-3.7702,-3.7791,-3.8058,-3.8629,-3.8665,-3.8362,-3.7863,-3.7631,-3.7595,-3.7595,-3.7595,-3.7595,-3.7595,-3.7595,-3.7595,-3.7595,-3.7595,-3.7595,-3.7595,-3.7595,-3.7595,-3.7595,-3.7649,-3.7703,-3.7757,-3.7827,-3.8269,-3.8588,-3.8661,-3.8659,-3.8029,-3.7458,-3.6854,-3.674,-3.6583,-3.6186,-3.5689,-3.5045,-3.4754,-3.4216,-3.4216,-3.4216,-3.4216,-3.4216,-3.4216,-4.2919,-4.2919,-4.2919,-4.2919,-4.2919,-4.2919,-4.2919,-4.2919,-4.2919,-4.2919,-4.2919,-4.2919,-4.2919,-4.2919,-4.2882,-4.1994,-4.051,-4.0311,-3.9446,-3.8079,-3.7721,-3.7613,-3.7595,-3.7595,-3.7595,-3.7595,-3.7595,-3.7595,-3.7595,-3.7595,-3.7595,-3.7595,-3.7595,-3.7595,-3.7648,-3.838,-3.8789,-3.8914,-3.9771,-3.9914,-3.9217,-3.9128,-3.8772,-3.8076,-3.797,-3.7826,-3.7666,-3.838,-3.904,-3.9468,-3.8076,-3.7809,-3.9093,-4.011,-4.102,-4.1841,-4.2126,-4.2308,-4.2236,-4.1805,-4.1752,-4.1948,-4.1341,-4.0521,-3.9932,-3.9449,-3.8772,-3.7791,-3.7595,-3.7595,-3.7595,-3.7595,-3.7738,-3.797,-3.7951,-3.7933,-3.7684,-3.7595,-3.7595,-3.7595,-3.7595,-3.7595,-3.7595,-3.7595,-3.7595,-3.7595,-3.7595,-3.7595,-3.7595,-3.7595,-3.7595,-3.7595,-3.7595,-3.7595,-3.7649,-3.7721,-3.7949,-3.8269,-3.8396,-3.8034,-3.7409,-3.6875,-3.6256,-3.571,-3.5556,-3.5324,-3.4809,-3.4513,-3.429,-3.4216,-3.4216,-3.4216,-3.4216,-3.4216,-3.4216,-4.2919,-4.2919,-4.2919,-4.2919,-4.2919,-4.2919,-4.2919,-4.2919,-4.2919,-4.2919,-4.2919,-4.2919,-4.2719,-4.2502,-4.2448,-4.1505,-4.0041,-3.9878,-3.9139,-3.7954,-3.7685,-3.7595,-3.7595,-3.7595,-3.7595,-3.7595,-3.7595,-3.7595,-3.7595,-3.7595,-3.7595,-3.7595,-3.7595,-3.7595,-3.7631,-3.8076,-3.8362,-3.8469,-3.9093,-3.9129,-3.8522,-3.8362,-3.813,-3.7648,-3.7327,-3.7345,-3.7595,-3.8094,-3.8558,-3.8879,-3.8326,-3.8433,-3.9058,-3.9556,-4.0358,-4.1127,-4.1395,-4.1377,-4.1359,-4.1217,-4.1288,-4.1573,-4.1181,-4.0663,-4.0324,-3.9645,-3.8897,-3.8201,-3.7773,-3.7595,-3.7595,-3.7595,-3.7595,-3.7595,-3.7631,-3.7595,-3.7595,-3.7595,-3.7595,-3.7595,-3.7595,-3.7595,-3.7595,-3.7595,-3.7595,-3.7595,-3.7595,-3.7595,-3.7595,-3.7595,-3.7595,-3.7595,-3.7595,-3.7595,-3.7595,-3.7631,-3.7685,-3.7898,-3.8068,-3.7441,-3.6742,-3.6305,-3.5745,-3.49,-3.4493,-3.4623,-3.4234,-3.4309,-3.4216,-3.4216,-3.4197,-3.4216,-3.4216,-3.4216,-3.4216,-4.2919,-4.2919,-4.2919,-4.2919,-4.2919,-4.2919,-4.2919,-4.2919,-4.2919,-4.2865,-4.2792,-4.2719,-4.2339,-4.1759,-4.1632,-4.0782,-3.9445,-3.9247,-3.8708,-3.7936,-3.7649,-3.7613,-3.7595,-3.7595,-3.7595,-3.7595,-3.7595,-3.7595,-3.7595,-3.7595,-3.7595,-3.7595,-3.7595,-3.7595,-3.7631,-3.7631,-3.7702,-3.7827,-3.8397,-3.8344,-3.772,-3.7684,-3.7648,-3.7577,-3.7024,-3.6952,-3.7523,-3.7702,-3.7684,-3.772,-3.8272,-3.8308,-3.813,-3.9075,-3.9823,-4.0075,-3.993,-4.0037,-4.0146,-4.0449,-4.0842,-4.102,-4.1324,-4.1808,-4.0646,-3.9896,-3.9236,-3.8522,-3.7951,-3.7595,-3.7595,-3.7595,-3.7595,-3.7595,-3.7595,-3.7595,-3.7595,-3.7595,-3.7595,-3.7595,-3.7595,-3.7595,-3.7595,-3.7595,-3.7595,-3.7595,-3.7595,-3.7595,-3.7595,-3.7595,-3.7595,-3.7595,-3.7595,-3.7595,-3.7595,-3.7595,-3.7578,-3.7274,-3.7413,-3.6834,-3.5981,-3.5475,-3.5017,-3.418,-3.3753,-3.3826,-3.3965,-3.4061,-3.4161,-3.4197,-3.4197,-3.4197,-3.4216,-3.4216,-3.4185,-4.2919,-4.2919,-4.2919,-4.2919,-4.2919,-4.2919,-4.2919,-4.2919,-4.2919,-4.2592,-4.2176,-4.2012,-4.1632,-4.0854,-4.0836,-4.0203,-3.9355,-3.9139,-3.8636,-3.7829,-3.7685,-3.7649,-3.7595,-3.7595,-3.7595,-3.7595,-3.7595,-3.7595,-3.7595,-3.7595,-3.7595,-3.7595,-3.7595,-3.7595,-3.7595,-3.7595,-3.7595,-3.7595,-3.7773,-3.7898,-3.772,-3.7648,-3.7595,-3.7577,-3.7398,-3.7381,-3.7595,-3.7595,-3.7595,-3.7613,-3.7773,-3.813,-3.838,-3.8861,-3.927,-3.9663,-3.9805,-3.9841,-3.9807,-3.9611,-3.97,-4.011,-4.0128,-3.9629,-3.945,-3.9236,-3.8701,-3.8076,-3.7684,-3.7595,-3.7595,-3.7595,-3.7595,-3.7595,-3.7595,-3.7595,-3.7595,-3.7595,-3.7595,-3.7595,-3.7595,-3.7595,-3.7595,-3.7595,-3.7595,-3.7595,-3.7595,-3.7595,-3.7595,-3.7595,-3.7595,-3.7595,-3.7595,-3.7595,-3.7595,-3.7595,-3.7363,-3.6792,-3.6559,-3.6254,-3.5303,-3.4424,-3.3928,-3.3295,-3.3436,-3.353,-3.3762,-3.3947,-3.403,-3.413,-3.4197,-3.4197,-3.4216,-3.4216,-3.4161,-4.2919,-4.2919,-4.2919,-4.2919,-4.2919,-4.2919,-4.2919,-4.2919,-4.2901,-4.2665,-4.2266,-4.2212,-4.156,-4.0546,-4.0492,-3.9805,-3.8795,-3.8705,-3.8312,-3.7811,-3.7685,-3.7631,-3.7595,-3.7595,-3.7595,-3.7595,-3.7595,-3.7595,-3.7595,-3.7595,-3.7595,-3.7595,-3.7595,-3.7595,-3.7595,-3.7595,-3.7595,-3.7595,-3.7613,-3.7738,-3.8076,-3.8094,-3.8112,-3.8094,-3.8076,-3.8005,-3.7684,-3.7595,-3.7595,-3.7595,-3.7631,-3.7827,-3.8219,-3.8308,-3.8487,-3.8933,-3.8933,-3.8915,-3.8933,-3.879,-3.9022,-3.936,-3.9199,-3.9288,-3.9235,-3.9003,-3.8522,-3.8237,-3.7845,-3.7631,-3.7595,-3.7595,-3.7595,-3.7595,-3.7595,-3.7595,-3.7595,-3.7595,-3.7595,-3.7595,-3.7595,-3.7595,-3.7595,-3.7595,-3.7595,-3.7595,-3.7595,-3.7595,-3.7595,-3.7595,-3.7595,-3.7595,-3.7541,-3.7506,-3.7291,-3.7202,-3.6899,-3.6345,-3.5507,-3.5275,-3.4722,-3.3721,-3.3357,-3.3088,-3.3162,-3.328,-3.3522,-3.3757,-3.3928,-3.4018,-3.4105,-3.4161,-3.4148,-3.4161,-3.4124,-4.2919,-4.2919,-4.2919,-4.2919,-4.2919,-4.2919,-4.2919,-4.2919,-4.2919,-4.281,-4.2647,-4.2719,-4.1778,-4.051,-4.0293,-3.957,-3.8235,-3.8252,-3.7987,-3.7757,-3.7667,-3.7613,-3.7595,-3.7595,-3.7595,-3.7595,-3.7595,-3.7595,-3.7595,-3.7595,-3.7595,-3.7595,-3.7595,-3.7595,-3.7595,-3.7595,-3.7595,-3.7648,-3.7809,-3.8112,-3.8558,-3.8647,-3.8629,-3.8611,-3.8415,-3.8148,-3.7755,-3.7595,-3.7595,-3.7595,-3.7595,-3.7631,-3.7648,-3.7631,-3.7666,-3.7755,-3.7845,-3.7809,-3.7773,-3.8326,-3.8629,-3.8736,-3.9199,-3.9627,-3.9288,-3.8843,-3.8487,-3.8397,-3.7987,-3.7666,-3.7595,-3.7595,-3.7595,-3.7595,-3.7595,-3.7595,-3.7595,-3.7595,-3.7595,-3.7595,-3.7595,-3.7595,-3.7595,-3.7595,-3.7595,-3.7595,-3.7595,-3.7595,-3.7595,-3.7595,-3.7595,-3.7595,-3.7506,-3.7381,-3.7059,-3.6738,-3.631,-3.5757,-3.465,-3.4133,-3.4044,-3.3418,-3.3114,-3.2945,-3.3039,-3.3129,-3.3262,-3.3508,-3.3703,-3.3823,-3.3831,-3.3954,-3.4049,-3.4086,-3.4055,-4.2919,-4.2919,-4.2919,-4.2919,-4.2919,-4.2919,-4.2919,-4.2919,-4.2919,-4.2592,-4.2085,-4.1995,-4.1415,-4.0474,-3.9967,-3.9405,-3.89,-3.8411,-3.8055,-3.7863,-3.7739,-3.7649,-3.7613,-3.7595,-3.7595,-3.7595,-3.7595,-3.7595,-3.7595,-3.7595,-3.7595,-3.7595,-3.7595,-3.7595,-3.7595,-3.7595,-3.7595,-3.7702,-3.8165,-3.8504,-3.8719,-3.8842,-3.886,-3.8789,-3.8255,-3.7845,-3.7666,-3.7595,-3.7595,-3.7595,-3.7595,-3.7595,-3.7595,-3.7595,-3.7595,-3.7595,-3.7595,-3.7595,-3.7648,-3.7791,-3.788,-3.7969,-3.813,-3.8076,-3.8076,-3.8059,-3.7898,-3.7863,-3.7684,-3.7613,-3.7595,-3.7595,-3.7595,-3.7595,-3.7595,-3.7595,-3.7595,-3.7595,-3.7595,-3.7595,-3.7595,-3.7595,-3.7595,-3.7595,-3.7595,-3.7595,-3.7595,-3.7595,-3.7595,-3.7595,-3.7595,-3.7595,-3.7166,-3.6952,-3.6667,-3.6149,-3.54,-3.4955,-3.3975,-3.3335,-3.3262,-3.3158,-3.2859,-3.2818,-3.2914,-3.299,-3.3019,-3.3096,-3.3258,-3.3404,-3.356,-3.3657,-3.3752,-3.3858,-3.3832,-4.2919,-4.2919,-4.2919,-4.2919,-4.2919,-4.2919,-4.2919,-4.2919,-4.2919,-4.2683,-4.2248,-4.1904,-4.1252,-4.0456,-3.9749,-3.926,-3.879,-3.8324,-3.8021,-3.7864,-3.7721,-3.7631,-3.7613,-3.7595,-3.7595,-3.7595,-3.7595,-3.7595,-3.7595,-3.7595,-3.7595,-3.7595,-3.7595,-3.7595,-3.7595,-3.7595,-3.7595,-3.7631,-3.7987,-3.8397,-3.8754,-3.9165,-3.9306,-3.9039,-3.8255,-3.7595,-3.7595,-3.7595,-3.7595,-3.7595,-3.7613,-3.7613,-3.7595,-3.7595,-3.7595,-3.7595,-3.7595,-3.7595,-3.7595,-3.7595,-3.7631,-3.7595,-3.7595,-3.7595,-3.7595,-3.7595,-3.7595,-3.7595,-3.7613,-3.7595,-3.7595,-3.7595,-3.7595,-3.7595,-3.7595,-3.7595,-3.7595,-3.7595,-3.7595,-3.7595,-3.7595,-3.7595,-3.7595,-3.7595,-3.7595,-3.7595,-3.7595,-3.7595,-3.7595,-3.7595,-3.7595,-3.7434,-3.6827,-3.6453,-3.6221,-3.5543,-3.4454,-3.3923,-3.3303,-3.295,-3.2863,-3.276,-3.2622,-3.267,-3.2736,-3.267,-3.2702,-3.2766,-3.2862,-3.3001,-3.3151,-3.3266,-3.3393,-3.3501,-3.3381,-4.2919,-4.2919,-4.2919,-4.2919,-4.2919,-4.2919,-4.2919,-4.2919,-4.2919,-4.2755,-4.2592,-4.1958,-4.127,-4.0474,-3.9731,-3.897,-3.8339,-3.8056,-3.7934,-3.7881,-3.7721,-3.7649,-3.7613,-3.7595,-3.7595,-3.7595,-3.7595,-3.7595,-3.7595,-3.7595,-3.7595,-3.7595,-3.7595,-3.7595,-3.7595,-3.7595,-3.7595,-3.7631,-3.7898,-3.838,-3.8967,-3.9538,-3.9734,-3.927,-3.8594,-3.7791,-3.772,-3.7755,-3.7791,-3.7613,-3.772,-3.772,-3.7613,-3.7595,-3.7595,-3.7595,-3.7595,-3.7595,-3.7595,-3.7595,-3.7595,-3.7595,-3.7595,-3.7595,-3.7595,-3.7595,-3.7595,-3.7595,-3.7595,-3.7595,-3.7595,-3.7595,-3.7595,-3.7595,-3.7595,-3.7595,-3.7595,-3.7595,-3.7595,-3.7595,-3.7595,-3.7595,-3.7595,-3.7595,-3.7595,-3.7595,-3.7595,-3.7595,-3.7595,-3.7595,-3.7595,-3.7202,-3.656,-3.5364,-3.4972,-3.4691,-3.364,-3.3322,-3.2741,-3.2623,-3.2555,-3.2505,-3.2471,-3.2505,-3.2521,-3.2471,-3.2437,-3.2488,-3.2588,-3.2653,-3.2732,-3.2858,-3.2991,-3.3146,-3.2869,-4.2919,-4.2919,-4.2919,-4.2919,-4.2919,-4.2919,-4.2919,-4.2919,-4.2919,-4.2502,-4.1922,-4.1741,-4.1198,-4.0438,-3.9713,-3.8934,-3.8284,-3.802,-3.7915,-3.7863,-3.7721,-3.7649,-3.7613,-3.7595,-3.7595,-3.7595,-3.7595,-3.7595,-3.7595,-3.7595,-3.7595,-3.7595,-3.7595,-3.7595,-3.7595,-3.7595,-3.7595,-3.7684,-3.8076,-3.8719,-3.9254,-3.9611,-3.9718,-3.9307,-3.8843,-3.8326,-3.7934,-3.8201,-3.8308,-3.7773,-3.8255,-3.813,-3.7738,-3.7577,-3.7541,-3.7595,-3.7595,-3.7595,-3.7595,-3.7595,-3.7595,-3.7595,-3.7595,-3.7595,-3.7595,-3.7595,-3.7595,-3.7595,-3.7595,-3.7595,-3.7595,-3.7595,-3.7595,-3.7595,-3.7595,-3.7595,-3.7595,-3.7595,-3.7595,-3.7595,-3.7595,-3.7595,-3.7595,-3.7595,-3.7595,-3.7595,-3.7595,-3.7595,-3.7595,-3.7595,-3.7595,-3.7006,-3.6238,-3.4811,-3.3544,-3.3341,-3.285,-3.2888,-3.2557,-3.2439,-3.2352,-3.2335,-3.2335,-3.2301,-3.2318,-3.2318,-3.2283,-3.2266,-3.2249,-3.2301,-3.2369,-3.2401,-3.2366,-3.2284,-3.2028,-4.2919,-4.2919,-4.2919,-4.2919,-4.2919,-4.2919,-4.2919,-4.2919,-4.2901,-4.2448,-4.1759,-4.1252,-4.0655,-3.9894,-3.9115,-3.8501,-3.8178,-3.8003,-3.788,-3.7775,-3.7703,-3.7631,-3.7595,-3.7595,-3.7595,-3.7595,-3.7595,-3.7595,-3.7595,-3.7595,-3.7595,-3.7595,-3.7595,-3.7595,-3.7595,-3.7595,-3.7595,-3.772,-3.8005,-3.838,-3.8808,-3.9111,-3.9397,-3.9843,-3.9521,-3.8986,-3.8469,-3.8522,-3.8397,-3.7863,-3.7951,-3.7916,-3.7631,-3.7255,-3.7166,-3.7488,-3.7559,-3.7595,-3.7595,-3.7595,-3.7595,-3.7595,-3.7595,-3.7595,-3.7595,-3.7595,-3.7595,-3.7595,-3.7595,-3.7595,-3.7595,-3.7577,-3.7595,-3.7595,-3.7577,-3.7577,-3.7595,-3.7595,-3.7595,-3.7595,-3.7595,-3.7595,-3.7595,-3.7595,-3.7595,-3.7595,-3.7595,-3.7559,-3.7541,-3.7595,-3.7577,-3.6809,-3.5971,-3.4563,-3.3247,-3.2779,-3.2505,-3.2489,-3.237,-3.2249,-3.2161,-3.2144,-3.2073,-3.202,-3.2055,-3.2022,-3.2038,-3.1966,-3.1965,-3.1843,-3.1637,-3.1498,-3.1475,-3.1373,-3.1044,-4.2919,-4.2919,-4.2919,-4.2919,-4.2919,-4.2919,-4.2919,-4.2919,-4.2919,-4.2321,-4.1433,-4.0782,-4.0039,-3.9188,-3.8555,-3.8123,-3.7984,-3.7916,-3.781,-3.7721,-3.7649,-3.7595,-3.7595,-3.7595,-3.7595,-3.7595,-3.7595,-3.7595,-3.7595,-3.7595,-3.7595,-3.7595,-3.7595,-3.7595,-3.7595,-3.7595,-3.7595,-3.7595,-3.7595,-3.7666,-3.8165,-3.8879,-3.9789,-4.0931,-4.0467,-3.9716,-3.8843,-3.8985,-3.854,-3.7969,-3.7773,-3.7809,-3.7523,-3.6863,-3.672,-3.722,-3.7327,-3.7434,-3.7595,-3.7595,-3.7595,-3.7595,-3.7595,-3.7595,-3.7595,-3.7595,-3.7595,-3.7595,-3.7595,-3.7595,-3.7577,-3.7485,-3.7449,-3.7448,-3.7411,-3.7449,-3.7449,-3.7485,-3.7595,-3.7595,-3.7595,-3.7595,-3.7595,-3.7595,-3.7595,-3.7595,-3.7595,-3.7256,-3.7274,-3.7541,-3.7398,-3.6613,-3.5651,-3.4333,-3.3273,-3.2627,-3.2421,-3.2353,-3.2197,-3.202,-3.1983,-3.1929,-3.1822,-3.1667,-3.1565,-3.1532,-3.1597,-3.1507,-3.1285,-3.1026,-3.0731,-3.0577,-3.0559,-3.0239,-2.9837,-4.2919,-4.2919,-4.2919,-4.2919,-4.2919,-4.2919,-4.2919,-4.2919,-4.2864,-4.2013,-4.0745,-4.0456,-3.9659,-3.8627,-3.8197,-3.8018,-3.7949,-3.7845,-3.7757,-3.7703,-3.7649,-3.7595,-3.7595,-3.7595,-3.7595,-3.7595,-3.7595,-3.7595,-3.7595,-3.7595,-3.7595,-3.7595,-3.7595,-3.7595,-3.7595,-3.7595,-3.7595,-3.7595,-3.7595,-3.822,-3.9343,-4.0146,-4.0646,-4.0967,-4.0806,-4.0217,-3.9165,-3.9235,-3.8933,-3.7844,-3.8255,-3.8237,-3.7612,-3.6827,-3.6506,-3.6524,-3.6613,-3.6845,-3.7273,-3.7362,-3.7434,-3.7416,-3.7523,-3.7577,-3.7595,-3.7595,-3.7595,-3.7595,-3.7577,-3.754,-3.743,-3.7186,-3.7054,-3.6978,-3.6978,-3.6997,-3.7036,-3.73,-3.743,-3.7595,-3.7595,-3.7595,-3.7595,-3.7595,-3.7595,-3.7595,-3.7506,-3.7149,-3.6881,-3.7059,-3.6702,-3.5776,-3.5172,-3.3982,-3.312,-3.2509,-3.2318,-3.2232,-3.2073,-3.1874,-3.1856,-3.1786,-3.1405,-3.125,-3.1147,-3.0837,-3.0611,-3.0472,-3.0386,-3.0213,-2.9937,-2.9765,-2.9644,-2.9209,-2.8731,-4.2919,-4.2919,-4.2919,-4.2919,-4.2919,-4.2919,-4.2919,-4.2792,-4.2411,-4.156,-4.0564,-4.0021,-3.9242,-3.8337,-3.8122,-3.807,-3.7984,-3.7897,-3.7792,-3.7721,-3.7667,-3.7631,-3.7595,-3.7595,-3.7595,-3.7595,-3.7595,-3.7595,-3.7595,-3.7595,-3.7595,-3.7595,-3.7595,-3.7595,-3.7595,-3.7595,-3.7595,-3.7595,-3.7684,-3.8202,-3.9075,-3.9645,-4.0235,-4.102,-4.0663,-4.0039,-3.9575,-3.9182,-3.879,-3.7826,-3.8041,-3.7821,-3.7069,-3.6198,-3.5471,-3.5649,-3.4807,-3.501,-3.5972,-3.6361,-3.6699,-3.695,-3.7127,-3.73,-3.7485,-3.7577,-3.7577,-3.7595,-3.7338,-3.7207,-3.7113,-3.6781,-3.6583,-3.6467,-3.6348,-3.6527,-3.6643,-3.6997,-3.7225,-3.7411,-3.7523,-3.7363,-3.7256,-3.7291,-3.7291,-3.7381,-3.7166,-3.6738,-3.6345,-3.6131,-3.5527,-3.4622,-3.4127,-3.3579,-3.2895,-3.2266,-3.2214,-3.2126,-3.1983,-3.1855,-3.1818,-3.1645,-3.1317,-3.0989,-3.0853,-3.0421,-2.9765,-2.9661,-2.9782,-2.9506,-2.9161,-2.9023,-2.8834,-2.8333,-2.7974,-4.2792,-4.2611,-4.2592,-4.2592,-4.2574,-4.2393,-4.2266,-4.2194,-4.165,-4.0945,-4.0184,-3.9441,-3.8735,-3.8301,-3.8157,-3.807,-3.8001,-3.8002,-3.7898,-3.7792,-3.7721,-3.7667,-3.7631,-3.7613,-3.7595,-3.7595,-3.7595,-3.7595,-3.7595,-3.7595,-3.7595,-3.7595,-3.7595,-3.7595,-3.7595,-3.7595,-3.7595,-3.7595,-3.7595,-3.8041,-3.8719,-3.8842,-3.9664,-4.0199,-4.0233,-3.9736,-3.9325,-3.9129,-3.8451,-3.7095,-3.7306,-3.7207,-3.6504,-3.563,-3.4952,-3.4757,-3.3852,-3.3431,-3.4408,-3.508,-3.5753,-3.6269,-3.6786,-3.7262,-3.7318,-3.7411,-3.73,-3.715,-3.6919,-3.6656,-3.6417,-3.6025,-3.5576,-3.5479,-3.553,-3.5814,-3.6075,-3.6293,-3.633,-3.6216,-3.6363,-3.6667,-3.6649,-3.6809,-3.6952,-3.7113,-3.6845,-3.6345,-3.5793,-3.5241,-3.4674,-3.3808,-3.3336,-3.3002,-3.2617,-3.2161,-3.209,-3.2018,-3.1892,-3.1818,-3.18,-3.161,-3.13,-3.0989,-3.0524,-2.9627,-2.8747,-2.8972,-2.9144,-2.8661,-2.8265,-2.8213,-2.7971,-2.7556,-2.7398,-4.2466,-4.1777,-4.1777,-4.1777,-4.1741,-4.0963,-4.0727,-4.089,-4.0655,-4.0166,-3.9405,-3.8716,-3.8354,-3.8192,-3.8105,-3.8053,-3.8001,-3.7951,-3.7916,-3.7863,-3.7775,-3.7721,-3.7667,-3.7631,-3.7595,-3.7595,-3.7595,-3.7595,-3.7595,-3.7595,-3.7595,-3.7595,-3.7595,-3.7595,-3.7595,-3.7595,-3.7595,-3.7595,-3.7595,-3.7952,-3.8469,-3.8754,-3.9128,-3.9734,-3.9805,-3.9289,-3.797,-3.8324,-3.7876,-3.6008,-3.6424,-3.6457,-3.5769,-3.5099,-3.4553,-3.3759,-3.3325,-3.2771,-3.2959,-3.4164,-3.5478,-3.6068,-3.6586,-3.7008,-3.6802,-3.6904,-3.6781,-3.6467,-3.6257,-3.588,-3.5446,-3.489,-3.441,-3.4283,-3.4355,-3.4504,-3.4871,-3.5399,-3.5365,-3.5097,-3.5279,-3.5776,-3.583,-3.5936,-3.6185,-3.6363,-3.6025,-3.5543,-3.4709,-3.4143,-3.3825,-3.3246,-3.2687,-3.2354,-3.223,-3.2036,-3.1946,-3.1928,-3.1837,-3.1818,-3.18,-3.1541,-3.1127,-3.0351,-2.9713,-2.873,-2.7989,-2.8247,-2.8247,-2.7678,-2.7437,-2.7627,-2.7661,-2.7453,-2.7332,-4.2429,-4.1669,-4.1162,-4.0963,-4.0945,-4.0619,-4.0492,-4.0401,-4.0021,-3.9387,-3.868,-3.8354,-3.8209,-3.8192,-3.8157,-3.8105,-3.8105,-3.8089,-3.8038,-3.7985,-3.7897,-3.781,-3.7757,-3.7685,-3.7649,-3.7613,-3.7595,-3.7595,-3.7595,-3.7595,-3.7595,-3.7595,-3.7595,-3.7595,-3.7595,-3.7595,-3.7595,-3.7595,-3.7595,-3.7827,-3.7898,-3.8094,-3.8433,-3.9128,-3.8611,-3.8594,-3.8253,-3.7795,-3.7099,-3.6402,-3.6025,-3.5521,-3.5001,-3.4428,-3.3692,-3.2925,-3.2647,-3.2343,-3.1911,-3.2946,-3.3731,-3.4505,-3.5355,-3.6077,-3.5916,-3.6189,-3.635,-3.609,-3.5472,-3.4959,-3.4789,-3.3975,-3.3283,-3.3116,-3.3131,-3.3295,-3.3575,-3.4134,-3.4417,-3.4134,-3.4658,-3.5278,-3.5155,-3.4995,-3.5279,-3.5544,-3.5134,-3.4655,-3.3825,-3.3228,-3.3001,-3.2861,-3.2354,-3.2089,-3.1964,-3.1892,-3.18,-3.18,-3.18,-3.1714,-3.1627,-3.1179,-3.0679,-2.9834,-2.9075,-2.8368,-2.7885,-2.7696,-2.7523,-2.7368,-2.7316,-2.7366,-2.7349,-2.7315,-2.7315,-4.1741,-4.0963,-4.0419,-4.0184,-4.0148,-3.9912,-3.9822,-3.9731,-3.926,-3.877,-3.8209,-3.8209,-3.8209,-3.8209,-3.8192,-3.8192,-3.8192,-3.8175,-3.8122,-3.807,-3.8002,-3.7915,-3.7827,-3.7775,-3.7721,-3.7649,-3.7631,-3.7613,-3.7595,-3.7595,-3.7595,-3.7595,-3.7595,-3.7595,-3.7595,-3.7595,-3.7595,-3.7595,-3.7595,-3.7595,-3.7631,-3.7666,-3.7791,-3.8362,-3.7951,-3.7702,-3.7716,-3.7278,-3.6695,-3.5992,-3.5414,-3.4736,-3.4156,-3.3494,-3.2792,-3.2364,-3.21,-3.2133,-3.1905,-3.2286,-3.2876,-3.3891,-3.4416,-3.4823,-3.485,-3.5132,-3.5099,-3.5261,-3.453,-3.3977,-3.3905,-3.3034,-3.2254,-3.2014,-3.2292,-3.245,-3.2484,-3.2845,-3.311,-3.3225,-3.37,-3.3829,-3.3722,-3.3508,-3.3841,-3.3968,-3.3564,-3.3266,-3.2932,-3.2512,-3.2407,-3.2301,-3.2143,-3.1964,-3.1837,-3.1818,-3.18,-3.18,-3.1748,-3.1541,-3.1334,-3.0869,-3.0196,-2.9265,-2.8575,-2.8075,-2.7764,-2.7523,-2.7418,-2.7332,-2.7315,-2.7315,-2.7315,-2.7315,-2.7315,-4.0202,-3.946,-3.946,-3.9441,-3.9333,-3.8607,-3.8355,-3.85,-3.839,-3.8299,-3.8209,-3.8209,-3.8209,-3.8209,-3.8209,-3.8209,-3.8209,-3.8209,-3.8192,-3.8157,-3.8088,-3.8001,-3.7949,-3.7898,-3.781,-3.7721,-3.7685,-3.7649,-3.7595,-3.7595,-3.7595,-3.7595,-3.7595,-3.7595,-3.7595,-3.7595,-3.7595,-3.7595,-3.7595,-3.7595,-3.7595,-3.7595,-3.772,-3.7738,-3.7702,-3.7488,-3.7036,-3.6909,-3.6234,-3.5164,-3.4634,-3.4015,-3.3469,-3.2944,-3.2552,-3.247,-3.2,-3.1763,-3.1691,-3.2702,-3.3168,-3.3399,-3.3559,-3.3775,-3.3549,-3.3575,-3.3895,-3.4304,-3.3389,-3.289,-3.2508,-3.2089,-3.1421,-3.1201,-3.1499,-3.1629,-3.1646,-3.183,-3.2173,-3.2389,-3.207,-3.1871,-3.1853,-3.1919,-3.2297,-3.2314,-3.1949,-3.1817,-3.1895,-3.1967,-3.1949,-3.2037,-3.2019,-3.1911,-3.1818,-3.18,-3.18,-3.18,-3.1714,-3.1507,-3.1093,-3.061,-2.9782,-2.8765,-2.8196,-2.7799,-2.7574,-2.7332,-2.7315,-2.7315,-2.7315,-2.7315,-2.7315,-2.7315,-2.7315,-4.0058,-3.9387,-3.9387,-3.9096,-3.8607,-3.8336,-3.8209,-3.8209,-3.8209,-3.8209,-3.8209,-3.8209,-3.8209,-3.8209,-3.8209,-3.8209,-3.8209,-3.8209,-3.8209,-3.8192,-3.814,-3.8088,-3.8019,-3.7967,-3.788,-3.7739,-3.7703,-3.7667,-3.7595,-3.7595,-3.7595,-3.7595,-3.7595,-3.7595,-3.7595,-3.7595,-3.7595,-3.7595,-3.7595,-3.7595,-3.7595,-3.7577,-3.7595,-3.7577,-3.7558,-3.7252,-3.6708,-3.6636,-3.5769,-3.4607,-3.4059,-3.3327,-3.2899,-3.2437,-3.205,-3.2166,-3.1912,-3.2061,-3.1818,-3.2007,-3.1963,-3.2088,-3.2289,-3.2648,-3.2811,-3.2927,-3.3245,-3.3294,-3.2547,-3.2133,-3.1846,-3.1305,-3.077,-3.0721,-3.0853,-3.0837,-3.0908,-3.1231,-3.1509,-3.1611,-3.1451,-3.1376,-3.1357,-3.1203,-3.1416,-3.1506,-3.1286,-3.1408,-3.1511,-3.1677,-3.1768,-3.193,-3.1965,-3.1873,-3.1781,-3.1634,-3.1671,-3.1709,-3.1625,-3.1472,-3.0989,-3.0317,-2.9472,-2.8506,-2.8006,-2.7591,-2.7435,-2.7315,-2.7315,-2.7315,-2.7315,-2.7315,-2.7315,-2.7315,-2.7315,-3.9423,-3.9024,-3.8988,-3.8698,-3.8263,-3.8209,-3.8209,-3.8209,-3.8209,-3.8209,-3.8209,-3.8209,-3.8209,-3.8209,-3.8209,-3.8209,-3.8209,-3.8209,-3.8209,-3.8209,-3.8192,-3.8157,-3.8088,-3.8036,-3.795,-3.781,-3.7739,-3.7721,-3.7595,-3.7595,-3.7595,-3.7595,-3.7595,-3.7595,-3.7595,-3.7595,-3.7595,-3.7595,-3.7595,-3.7485,-3.7449,-3.743,-3.7503,-3.7393,-3.73,-3.7171,-3.6805,-3.6257,-3.5544,-3.4513,-3.3679,-3.2917,-3.2597,-3.21,-3.178,-3.205,-3.1995,-3.1929,-3.1421,-3.1205,-3.107,-3.0825,-3.1002,-3.1399,-3.1835,-3.1833,-3.2276,-3.2299,-3.1797,-3.1648,-3.1416,-3.0787,-3.0555,-3.0506,-3.0506,-3.0506,-3.0568,-3.0908,-3.0969,-3.1041,-3.1064,-3.1024,-3.0965,-3.076,-3.068,-3.0712,-3.0707,-3.0911,-3.1108,-3.1225,-3.1376,-3.1562,-3.1618,-3.1449,-3.137,-3.1351,-3.1408,-3.1579,-3.1479,-3.1325,-3.0558,-2.9817,-2.9041,-2.8316,-2.7799,-2.742,-2.7384,-2.7315,-2.7315,-2.7315,-2.7315,-2.7315,-2.7315,-2.7315,-2.7315,-3.8227,-3.8209,-3.8227,-3.8245,-3.8209,-3.8209,-3.8209,-3.8209,-3.8209,-3.8209,-3.8209,-3.8209,-3.8209,-3.8209,-3.8209,-3.8209,-3.8209,-3.8209,-3.8209,-3.8209,-3.8209,-3.8192,-3.8192,-3.8175,-3.8055,-3.7951,-3.7864,-3.7757,-3.7613,-3.7595,-3.7595,-3.7595,-3.7595,-3.7595,-3.7595,-3.7522,-3.754,-3.7558,-3.7577,-3.7375,-3.7188,-3.73,-3.7188,-3.7017,-3.686,-3.6783,-3.6481,-3.6028,-3.5263,-3.451,-3.389,-3.3316,-3.2696,-3.1962,-3.215,-3.215,-3.1797,-3.125,-3.0803,-3.0671,-3.0621,-3.0506,-3.0539,-3.0572,-3.0754,-3.1073,-3.1399,-3.1548,-3.1267,-3.1317,-3.1217,-3.0853,-3.0506,-3.0489,-3.0489,-3.0489,-3.0489,-3.0589,-3.0589,-3.0613,-3.0613,-3.0613,-3.0593,-3.0422,-3.0338,-3.0321,-3.0389,-3.0372,-3.0559,-3.0605,-3.0788,-3.1027,-3.1027,-3.0928,-3.0925,-3.1041,-3.112,-3.1276,-3.121,-3.0974,-3.0154,-2.9334,-2.8664,-2.8029,-2.7543,-2.7282,-2.7315,-2.7315,-2.7315,-2.7299,-2.725,-2.7283,-2.725,-2.7299,-2.7315,-3.8209,-3.8209,-3.8209,-3.8209,-3.8209,-3.8209,-3.8209,-3.8209,-3.8209,-3.8209,-3.8209,-3.8209,-3.8209,-3.8209,-3.8209,-3.8209,-3.8209,-3.8209,-3.8209,-3.8209,-3.8209,-3.8209,-3.8209,-3.8192,-3.8124,-3.8021,-3.7898,-3.7828,-3.7685,-3.7631,-3.7595,-3.7595,-3.754,-3.7558,-3.7411,-3.728,-3.7355,-3.7448,-3.7449,-3.7169,-3.6939,-3.7015,-3.6783,-3.6542,-3.6419,-3.6316,-3.5994,-3.5793,-3.5065,-3.4151,-3.3422,-3.2868,-3.2718,-3.1586,-3.1019,-3.1035,-3.087,-3.0688,-3.0522,-3.0489,-3.0489,-3.0489,-3.0489,-3.087,-3.0952,-3.0886,-3.087,-3.0936,-3.0886,-3.0903,-3.0919,-3.0671,-3.0489,-3.0489,-3.0489,-3.0489,-3.0489,-3.0489,-3.0489,-3.0485,-3.0485,-3.0401,-3.0375,-3.0295,-3.021,-3.0124,-3.0081,-3.0081,-3.0087,-3.0177,-3.0305,-3.0559,-3.0642,-3.0601,-3.0723,-3.0825,-3.0865,-3.0928,-3.0861,-3.0513,-2.9548,-2.8795,-2.8237,-2.7775,-2.7341,-2.725,-2.7315,-2.7315,-2.7299,-2.7185,-2.7137,-2.7169,-2.7202,-2.7202,-2.7283,-3.8209,-3.8209,-3.8209,-3.8209,-3.8209,-3.8209,-3.8209,-3.8209,-3.8209,-3.8209,-3.8209,-3.8209,-3.8209,-3.8209,-3.8209,-3.8209,-3.8209,-3.8209,-3.8209,-3.8209,-3.8209,-3.8209,-3.8209,-3.8192,-3.8123,-3.8037,-3.7933,-3.7863,-3.7739,-3.7613,-3.7558,-3.7281,-3.7319,-3.7225,-3.6995,-3.6761,-3.6781,-3.69,-3.6939,-3.6781,-3.6641,-3.656,-3.6336,-3.6062,-3.5955,-3.5798,-3.5594,-3.5498,-3.4787,-3.4068,-3.3431,-3.3232,-3.2851,-3.1603,-3.0721,-3.0737,-3.0572,-3.0555,-3.0489,-3.0489,-3.0489,-3.0489,-3.0489,-3.0688,-3.0787,-3.0721,-3.0803,-3.087,-3.0654,-3.0522,-3.0506,-3.0489,-3.0489,-3.0489,-3.0489,-3.0489,-3.0489,-3.0489,-3.0485,-3.0464,-3.0417,-3.0354,-3.0269,-3.0167,-3.0087,-3.0038,-3.0011,-2.9968,-2.9973,-3.0038,-3.0087,-3.0236,-3.0321,-3.0363,-3.0439,-3.0439,-3.0406,-3.0443,-3.0567,-3.0042,-2.9006,-2.8419,-2.8043,-2.7624,-2.7156,-2.7153,-2.7202,-2.7283,-2.7266,-2.7104,-2.694,-2.6891,-2.6908,-2.694,-2.7072,-3.8209,-3.8209,-3.8209,-3.8209,-3.8209,-3.8209,-3.8209,-3.8209,-3.8209,-3.8209,-3.8209,-3.8209,-3.8209,-3.8209,-3.8209,-3.8209,-3.8209,-3.8209,-3.8209,-3.8209,-3.8209,-3.8209,-3.8209,-3.8192,-3.8157,-3.8053,-3.7966,-3.788,-3.7721,-3.7613,-3.7411,-3.6958,-3.7054,-3.6978,-3.6643,-3.6419,-3.6357,-3.6253,-3.619,-3.5998,-3.5929,-3.5929,-3.5977,-3.5616,-3.5543,-3.5481,-3.5407,-3.5094,-3.4601,-3.4352,-3.4111,-3.3895,-3.2729,-3.1752,-3.1052,-3.0737,-3.0506,-3.0489,-3.0489,-3.0489,-3.0489,-3.0489,-3.0489,-3.0555,-3.0588,-3.0605,-3.0671,-3.0688,-3.0522,-3.0489,-3.0489,-3.0489,-3.0489,-3.0489,-3.0489,-3.0489,-3.0489,-3.0468,-3.0422,-3.038,-3.029,-3.0227,-3.0141,-3.0055,-3.0017,-2.9973,-2.993,-2.9902,-2.9886,-2.993,-2.9903,-2.9951,-2.982,-2.9798,-2.9776,-2.9758,-2.9791,-2.9882,-2.9999,-2.9407,-2.8216,-2.7942,-2.7929,-2.7366,-2.6842,-2.7024,-2.7106,-2.7056,-2.6974,-2.6842,-2.6691,-2.659,-2.6624,-2.6657,-2.6825,-3.8209,-3.8209,-3.8209,-3.8209,-3.8209,-3.8209,-3.8209,-3.8209,-3.8209,-3.8209,-3.8209,-3.8209,-3.8209,-3.8209,-3.8209,-3.8209,-3.8209,-3.8209,-3.8209,-3.8209,-3.8209,-3.8209,-3.8209,-3.8192,-3.8192,-3.8122,-3.8036,-3.7897,-3.7721,-3.7631,-3.7577,-3.7411,-3.7337,-3.7054,-3.6542,-3.6316,-3.6041,-3.5754,-3.5504,-3.5504,-3.5594,-3.5549,-3.5526,-3.5241,-3.5118,-3.5142,-3.5071,-3.5008,-3.4816,-3.4684,-3.417,-3.3292,-3.1967,-3.1201,-3.0754,-3.0539,-3.0489,-3.0489,-3.0489,-3.0489,-3.0489,-3.0489,-3.0489,-3.0489,-3.0489,-3.0489,-3.0489,-3.0489,-3.0489,-3.0489,-3.0489,-3.0489,-3.0489,-3.0489,-3.0489,-3.0489,-3.0489,-3.0443,-3.0359,-3.0253,-3.0184,-3.0098,-3.0027,-2.9984,-2.9924,-2.9924,-2.9918,-2.988,-2.9848,-2.9837,-2.9724,-2.9654,-2.9226,-2.915,-2.9102,-2.9059,-2.9046,-2.8949,-2.8963,-2.8257,-2.7431,-2.7184,-2.701,-2.6819,-2.6556,-2.6725,-2.6775,-2.6624,-2.6539,-2.647,-2.6418,-2.6331,-2.6296,-2.6331,-2.6556,-3.8209,-3.8209,-3.8209,-3.8209,-3.8209,-3.8209,-3.8209,-3.8209,-3.8209,-3.8209,-3.8209,-3.8209,-3.8209,-3.8209,-3.8209,-3.8209,-3.8209,-3.8209,-3.8209,-3.8209,-3.8209,-3.8209,-3.8209,-3.8209,-3.8192,-3.8157,-3.8053,-3.7897,-3.7721,-3.7631,-3.7595,-3.7375,-3.7281,-3.7034,-3.646,-3.6041,-3.5754,-3.527,-3.5001,-3.5095,-3.5316,-3.5264,-3.5195,-3.4947,-3.4899,-3.4899,-3.4899,-3.4899,-3.4899,-3.4535,-3.3889,-3.3216,-3.2067,-3.1168,-3.0621,-3.0506,-3.0489,-3.0489,-3.0489,-3.0489,-3.0489,-3.0489,-3.0489,-3.0489,-3.0489,-3.0489,-3.0489,-3.0489,-3.0489,-3.0489,-3.0489,-3.0489,-3.0489,-3.0489,-3.0489,-3.0485,-3.0464,-3.0401,-3.0274,-3.0124,-3.006,-3.0033,-2.9984,-2.994,-2.9918,-2.9918,-2.9896,-2.9832,-2.9799,-2.9443,-2.941,-2.9297,-2.8843,-2.8466,-2.8336,-2.8271,-2.8244,-2.8146,-2.7996,-2.7603,-2.7069,-2.6473,-2.6081,-2.6189,-2.6313,-2.6453,-2.6435,-2.6331,-2.6243,-2.6226,-2.6154,-2.6045,-2.6028,-2.6046,-2.6226,-3.8209,-3.8209,-3.8209,-3.8209,-3.8209,-3.8209,-3.8209,-3.8209,-3.8209,-3.8209,-3.8209,-3.8209,-3.8209,-3.8209,-3.8209,-3.8209,-3.8209,-3.8209,-3.8209,-3.8209,-3.8209,-3.8209,-3.8209,-3.8209,-3.8192,-3.8123,-3.8037,-3.7862,-3.7685,-3.7649,-3.7449,-3.7073,-3.6821,-3.66,-3.5946,-3.5638,-3.5549,-3.5148,-3.4923,-3.4923,-3.4923,-3.4899,-3.4923,-3.4923,-3.4899,-3.4899,-3.4899,-3.4899,-3.4899,-3.4352,-3.3624,-3.2967,-3.2199,-3.1283,-3.0721,-3.0489,-3.0489,-3.0489,-3.0489,-3.0489,-3.0489,-3.0489,-3.0489,-3.0489,-3.0489,-3.0489,-3.0489,-3.0489,-3.0489,-3.0489,-3.0489,-3.0489,-3.0489,-3.0489,-3.0485,-3.0464,-3.0422,-3.0359,-3.0189,-3.0017,-2.9973,-2.9968,-2.9946,-2.9918,-2.9902,-2.9918,-2.9799,-2.9767,-2.9556,-2.894,-2.8568,-2.8551,-2.8341,-2.7996,-2.7672,-2.7608,-2.7591,-2.73,-2.7154,-2.6992,-2.6789,-2.642,-2.6124,-2.5968,-2.6097,-2.6303,-2.6239,-2.6136,-2.6064,-2.5992,-2.5917,-2.5842,-2.5824,-2.5844,-2.5937,-3.8209,-3.8209,-3.8209,-3.8209,-3.8209,-3.8209,-3.8209,-3.8209,-3.8209,-3.8209,-3.8209,-3.8209,-3.8209,-3.8209,-3.8209,-3.8209,-3.8209,-3.8209,-3.8209,-3.8209,-3.8209,-3.8209,-3.8209,-3.8192,-3.814,-3.8054,-3.7967,-3.7828,-3.7703,-3.7667,-3.7595,-3.743,-3.7411,-3.6976,-3.6232,-3.5933,-3.5621,-3.5148,-3.4899,-3.4899,-3.4899,-3.4899,-3.4899,-3.4899,-3.4899,-3.4899,-3.4899,-3.4899,-3.4899,-3.4468,-3.3591,-3.2917,-3.2199,-3.1404,-3.0688,-3.0489,-3.0489,-3.0489,-3.0489,-3.0489,-3.0489,-3.0489,-3.0489,-3.0489,-3.0489,-3.0489,-3.0489,-3.0489,-3.0489,-3.0489,-3.0489,-3.0489,-3.0489,-3.0468,-3.0464,-3.0422,-3.038,-3.0231,-3.0081,-2.9989,-2.9946,-2.9946,-2.9951,-2.993,-2.9875,-2.9745,-2.9335,-2.9253,-2.8957,-2.8373,-2.7753,-2.7721,-2.7705,-2.7397,-2.7025,-2.7041,-2.696,-2.662,-2.6442,-2.649,-2.6539,-2.6555,-2.6327,-2.6145,-2.6143,-2.6292,-2.6183,-2.5917,-2.5842,-2.5768,-2.5694,-2.5654,-2.5635,-2.5672,-2.5787]},{"header":{"parameterUnit":"m.s-1","parameterCategory":1,"la1":31.0,"la2":29.5877,"lo1":-88.7671,"lo2":-86.6584,"dy":0.0162,"dx":0.0185,"nx":115,"ny":88,"refTime":"2024-06-30T00:00:00:Z","depth":0,"parameterNumber":3,"parameterNumberName":"V-component_of_WINDS"},"data":[0.0,0.0,0.0,0.0,0.0,0.0,0.0,0.0,0.0,0.0,0.0,0.0,0.0,0.0,0.0,0.0,0.0,0.0,0.0,0.0,0.0,0.0,0.0,0.0,0.0,0.0,0.0,0.0,0.0,0.0,0.0,0.0,0.0,0.0,0.0,0.0,0.0,0.0,0.0,0.0,0.0,0.0,0.0,0.0,0.0,0.0,0.0,0.0,0.0,0.0,0.0,0.0,0.0,0.0,0.0,0.0,0.0,0.0,0.0,0.0,0.0,0.0,0.0,0.0,0.0,0.0,0.0,0.0,0.0,0.0,0.0,0.0,0.0,0.0,0.0,0.0,0.0,0.0,0.0,0.0,0.0,0.0,0.0,0.0,0.0,0.0,0.0,0.0,0.0,0.0,0.0,0.0,0.0,0.0,0.0,0.0,0.0,0.0,0.0,0.0,0.0,0.0,0.0,0.0,0.0,0.0,0.0,0.0,0.0,0.0,0.0,0.0,0.0,0.0,0.0,0.0,0.0,0.0,0.0,0.0,0.0,0.0,0.0,0.0,0.0,0.0,0.0,0.0,0.0,0.0,0.0,0.0,0.0,0.0,0.0,0.0,0.0,0.0,0.0,0.0,0.0,0.0,0.0,0.0,0.0,0.0,0.0,0.0,0.0,0.0,0.0,0.0,0.0,0.0,0.0,0.0,0.0,0.0,0.0,0.0,0.0,0.0,0.0,0.0,0.0,0.0,0.0,0.0,0.0,0.0,0.0,0.0,0.0,0.0,0.0,0.0,0.0,0.0,0.0,0.0,0.0,0.0,0.0,0.0,0.0,0.0,0.0,0.0,0.0,0.0,0.0,0.0,0.0,0.0,0.0,0.0,0.0,0.0,0.0,0.0,0.0,0.0,0.0,0.0,0.0,0.0,0.0,0.0,0.0,0.0,0.0,0.0,0.0,0.0,0.0,0.0,0.0,0.0,0.0,0.0,0.0,0.0,0.0,0.0,0.0,0.0,0.0,0.0,0.0,0.0,0.0,0.0,0.0,0.0,0.0,0.0,0.0,0.0,0.0,0.0,0.0,0.0,0.0,0.0,0.0,0.0,0.0,0.0,0.0,0.0,0.0,0.0,0.0,0.0,0.0,0.0,0.0,0.0,0.0,0.0,0.0,0.0,0.0,0.0,0.0,0.0,0.0,0.0,0.0,0.0,0.0,0.0,0.0,0.0,0.0,0.0,0.0,0.0,0.0,0.0,0.0,0.0,0.0,0.0,0.0,0.0,0.0,0.0,0.0,0.0,0.0,0.0,0.0,0.0,0.0,0.0,0.0,0.0,0.0,0.0,0.0,0.0,0.0,0.0,0.0,0.0,0.0,0.0,0.0,0.0,0.0,0.0,0.0,0.0,0.0,0.0,0.0,0.0,0.0,0.0,0.0,0.0,0.0,0.0,0.0,0.0,0.0,0.0,0.0,0.0,0.0,0.0,0.0,0.0,0.0,0.0,0.0,0.0,0.0,0.0,0.0,0.0,0.0,0.0,0.0,0.0,0.0,0.0,0.0,0.0,0.0,0.0,0.0,0.0,0.0,0.0,0.0,0.0,0.0,0.0,0.0,0.0,0.0,0.0,0.0,0.0,0.0,0.0,0.0,0.0,0.0,0.0,0.0,0.0,0.0,0.0,0.0,0.0,0.0,0.0,0.0,0.0,0.0,0.0,0.0,0.0,0.0,0.0,0.0,0.0,0.0,0.0,0.0,0.0,0.0,0.0,0.0,0.0,0.0,0.0,0.0,0.0,0.0,0.0,0.0,0.0,0.0,0.0,0.0,0.0,0.0,0.0,0.0,0.0,0.0,0.0,0.0,0.0,0.0,0.0,0.0,0.0,0.0,0.0,0.0,0.0,0.0,0.0,0.0,0.0,0.0,0.0,0.0,0.0,0.0,0.0,0.0,0.0,0.0,0.0,0.0,0.0,0.0,0.0,0.0,0.0,0.0,0.0,0.0,0.0,0.0,0.0,0.0,0.0,0.0,0.0,0.0,0.0,0.0,0.0,0.0,0.0,0.0,0.0,0.0,0.0,0.0,0.0,0.0,0.0,0.0,0.0,0.0,0.0,0.0,0.0,0.0,0.0,0.0,0.0,0.0,0.0,0.0,0.0,0.0,0.0,0.0,0.0,0.0,0.0,0.0,0.0,0.0,0.0,0.0,0.0,0.0,0.0,0.0,0.0,0.0,0.0,0.0,0.0,0.0,0.0,0.0,0.0,0.0,0.0,0.0,0.0,0.0,0.0,0.0,0.0,0.0,0.0,0.0,0.0,0.0,0.0,0.0,0.0,0.0,0.0,0.0,0.0,0.0,0.0,0.0,0.0,0.0,0.0,0.0,0.0,0.0,0.0,0.0,0.0,0.0,0.0,0.0,0.0,0.0,0.0,0.0,0.0,0.0,0.0,0.0,0.0,0.0,0.0,0.0,0.0,0.0,0.0,0.0,0.0,0.0,0.0,0.0,0.0,0.0,0.0,0.0,0.0,0.0,0.0,0.0,0.0,0.0,0.0,0.0,0.0,0.0,0.0,0.0,0.0,0.0,0.0,0.0,0.0,0.0,0.0,0.0,0.0,0.0,0.0,0.0,0.0,0.0,0.0,0.0,0.0,0.0,0.0,0.0,0.0,0.0,0.0,0.0,0.0,0.0,0.0,0.0,0.0,0.0,0.0,0.0,0.0,0.0,0.0,0.0,0.0,0.0,0.0,0.0,0.0,0.0,0.0,0.0,0.0,0.0,0.0,0.0,0.0,0.0,0.0,0.0,0.0,0.0,0.0,0.0,0.0,0.0,0.0,0.0,0.0,0.0,0.0,0.0,0.0,0.0,0.0,0.0,0.0,0.0,0.0,0.0,0.0,0.0,0.0,0.0,0.0,0.0,0.0,0.0,0.0,0.0,0.0,0.0,0.0,0.0,0.0,0.0,0.0,0.0,0.0,0.0,0.0,0.0,0.0,0.0,0.0,0.0,0.0,0.0,0.0,0.0,0.0,0.0,0.0,0.0,0.0,0.0,0.0,0.0,0.0,0.0,0.0,0.0,0.0,0.0,0.0,0.0,0.0,0.0,0.0,0.0,0.0,0.0,0.0,0.0,0.0,0.0,0.0,0.0,0.0,0.0,0.0,0.0,0.0,0.0,0.0,0.0,0.0,0.0,0.0,0.0,0.0,0.0,0.0,0.0,0.0,0.0,0.0,0.0,0.0,0.0,0.0,0.0,0.0,0.0,0.0,0.0,0.0,0.0,0.0,0.0,0.0,0.0,0.0,0.0,0.0,0.0,0.0,0.0,0.0,0.0,0.0,0.0,0.0,0.0,0.0,0.0,0.0,0.0,0.0,0.0,0.0,0.0,0.0,0.0,0.0,0.0,0.0,0.0,0.0,0.0,0.0,0.0,0.0,0.0,0.0,0.0,0.0,0.0,0.0,0.0,0.0,0.0,0.0,0.0,0.0,0.0,0.0,0.0,0.0,0.0,0.0,0.0,0.0,0.0,0.0,0.0,0.0,0.0,0.0,0.0,0.0,0.0,0.0,0.0,0.0,0.0,0.0,0.0,0.0,0.0,0.0,0.0,0.0,0.0,0.0,0.0,0.0,0.0,0.0,0.0,0.0,0.0,0.0,0.0,0.0,0.0,0.0,0.0,0.0,0.0,0.0,0.0,0.0,0.0,0.0,0.0,0.0,0.0,0.0,0.0,0.0,0.0,0.0,0.0,0.0,0.0,0.0,0.0,0.0,0.0,0.0,0.0,0.0,0.0,0.0,0.0,0.0,0.0,0.0,0.0,0.0,0.0,0.0,0.0,0.0,0.0,0.0,0.0,0.0,0.0,0.0,0.0,0.0,0.0,0.0,0.0,0.0,0.0,0.0,0.0,0.0,0.0,0.0,0.0,0.0,0.0,0.0,0.0,0.0,0.0,0.0,0.0,0.0,0.0,0.0,0.0,0.0,0.0,0.0,0.0,0.0,0.0,0.0,0.0,0.0,0.0,0.0,0.0,0.0,0.0,0.0,0.0,0.0,0.0,0.0,0.0,0.0,0.0,0.0,0.0,0.0,0.0,0.0,0.0,0.0,0.0,0.0,0.0,0.0,0.0,0.0,0.0,0.0,0.0,0.0,0.0,0.0,0.0,0.0,0.0,0.0,0.0,0.0,0.0,0.0,0.0,0.0,0.0,0.0,0.0,0.0,0.0,0.0,0.0,0.0,0.0,0.0,0.0,0.0,0.0,0.0,0.0,0.0,0.0,0.0,0.697,0.0,0.0,0.0,0.0,0.0,0.0,0.0,0.0,0.0,0.0,0.0,0.0,0.0,0.0,0.0,0.0,0.0,0.0,0.0,0.0,0.0,0.0,0.0,0.0,0.0,0.0,0.0,0.0,0.0,0.0,0.0,0.0,0.0,0.0,0.0,0.0,0.0,0.0,0.0,0.0,0.0,0.0,0.0,0.0,0.0,0.0,0.0,0.0,0.0,0.0,0.0,0.0,0.0,0.0,0.0,0.0,0.0,0.0,0.0,0.0,0.0,0.0,0.0,0.0,0.0,0.0,0.0,0.0,0.0,0.0,0.0,0.0,0.0,0.0,0.0,0.0,0.0,0.0,0.0,0.0,0.0,0.0,0.0,0.0,0.0,0.0,0.0,0.0,0.0,0.0,0.0,0.0,0.0,0.0,0.0,0.0,0.0,0.0,0.0,0.0,0.0,0.0,0.0,0.0,0.0,0.0,0.0,0.0,0.0,0.0,0.8206,0.8368,0.7214,0.62,0.5499,0.0,0.0,0.0,0.0,0.0,0.0,0.0,0.0,0.0,0.0,0.0,0.0,0.0,0.0,0.0,0.0,0.0,0.0,0.0,0.0,0.0,0.0,0.0,0.0,0.0,0.0,0.0,0.0,0.0,0.0,0.0,0.0,0.0,0.0,0.0,0.0,0.0,0.0,0.0,0.0,0.0,0.0,0.0,0.0,0.0,0.0,0.0,0.0,0.0,0.0,0.0,0.0,0.0,0.0,0.0,0.0,0.0,0.0,0.0,0.0,0.0,0.0,0.0,0.0,0.0,0.0,0.0,0.0,0.0,0.0,0.0,0.0,0.0,0.0,0.0,0.0,0.0,0.0,0.0,0.0,0.0,0.0,0.0,0.0,0.0,0.0,0.0,0.0,0.0,0.0,0.0,0.0,0.0,0.0,0.0,0.0,0.0,0.0,0.0,0.0,0.0,0.0,0.0,0.0,0.0,0.0,0.0,0.0,0.0,0.0,0.0,0.0,0.6333,0.5104,0.3826,0.0,0.0,0.0,0.0,0.0,0.0,0.0,0.0,0.0,0.0,0.0,0.0,0.0,0.0,0.0,0.0,0.0,0.0,0.0,0.0,0.0,0.0,0.0,0.0,0.0,0.0,0.0,0.0,0.0,0.0,0.0,0.0,0.0,0.0,0.0,0.0,0.0,0.0,0.0,0.0,0.0,0.0,0.0,0.0,0.0,0.0,0.0,0.0,0.0,0.0,0.0,0.0,0.0,0.0,0.0,0.0,0.0,0.0,0.0,0.0,0.0,0.0,0.0,0.0,0.0,0.0,0.0,0.0,0.0,0.0,0.0,0.0,0.0,0.0,0.0,0.0,0.0,0.0,0.0,0.0,0.0,0.0,0.0,0.0,0.0,0.0,0.0,0.0,0.0,0.0,0.0,0.0,0.0,0.0,0.0,0.0,0.0,0.0,0.0,0.0,0.0,0.0,0.0,0.0,0.0,0.0,0.0,0.0,0.0,0.0,0.7199,0.6607,0.5214,0.0,0.2665,0.0,0.0,0.0,0.0,0.0,0.0,0.0,0.0,0.0,0.0,0.0,0.0,0.0,0.0,0.0,0.0,0.0,0.0,0.0,0.0,0.0,0.0,0.0,0.0,0.0,0.0,0.0,0.0,0.0,0.0,0.0,0.0,0.0,0.0,0.0,0.0,0.0,0.0,0.0,0.0,0.0,0.0,0.0,0.0,0.0,0.0,0.0,0.0,0.0,0.0,0.0,0.0,0.0,0.0,0.0,0.0,0.0,0.0,0.0,0.0,0.0,0.0,0.0,0.0,0.0,0.0,0.0,0.0,0.0,0.0,0.0,0.0,0.0,0.0,0.0,0.0,0.0,0.0,0.0,0.0,0.0,0.0,0.0,0.0,0.0,0.0,0.0,0.0,0.0,0.0,0.0,0.0,0.0,0.0,0.0,0.0,0.0,0.0,0.0,0.0,0.0,0.0,0.0,0.0,0.0,0.0,0.0,0.0,0.0,0.0,0.6338,0.5319,0.3854,0.2849,0.0,0.0,0.0,0.0,0.0,0.0,0.0,0.0,0.0,0.0,0.0,0.0,0.0,0.0,0.0,0.0,0.0,0.0,0.0,0.0,0.0,0.0,0.0,0.0,0.0,0.0,0.0,0.0,0.0,0.0,0.0,0.0,0.0,0.0,0.0,0.0,0.0,0.0,0.0,0.0,0.0,0.0,0.0,0.0,0.0,0.0,0.0,0.0,0.0,0.0,0.0,0.0,0.0,0.0,0.0,0.0,0.0,0.0,0.0,0.0,0.0,0.0,0.0,0.0,0.0,0.0,0.0,0.0,0.0,0.0,0.0,0.0,0.0,0.0,0.0,0.0,0.0,0.0,0.0,0.0,0.0,0.0,0.0,0.0,0.0,0.0,0.0,0.0,0.0,0.0,0.0,0.0,0.0,0.0,0.0,0.0,0.0,0.0,0.0,0.0,0.0,0.0,0.0,0.0,0.0,0.0,0.0,0.0,0.0,0.0,0.659,0.5567,0.3997,0.287,0.2251,0.2222,0.0,0.0,0.0,0.0,0.0,0.0,0.0,0.0,0.0,0.0,0.0,0.0,0.0,0.0,0.0,0.0,0.0,0.0,0.0,0.0,0.0,0.0,0.0,0.0,0.0,0.0,0.0,0.0,0.0,0.0,0.0,0.0,0.0,0.0,0.0,0.0,0.0,0.0,0.0,0.0,0.0,0.0,0.0,0.0,0.0,0.0,0.0,0.0,0.0,0.0,0.0,0.0,0.0,0.0,0.0,0.0,0.0,0.0,0.0,0.0,0.0,0.0,0.0,0.0,0.0,0.0,0.0,0.0,0.0,0.0,0.0,0.0,0.0,0.0,0.0,0.0,0.0,0.0,0.0,0.0,0.0,0.0,0.0,0.0,0.0,0.0,0.0,0.0,0.0,0.0,0.0,0.0,0.0,0.0,0.0,0.0,0.0,0.0,0.0,0.0,0.0,0.0,0.0,0.0,0.0,0.0,0.0,0.0,0.6244,0.6226,0.5085,0.2729,0.2469,0.2168,0.0,0.0,0.0,0.0,0.0,0.0,0.0,0.0,0.0,0.0,0.0,0.0,0.0,0.0,0.0,0.0,0.0,0.0,0.0,0.0,0.0,0.0,0.0,0.0,0.0,0.0,0.0,0.0,0.0,0.0,0.0,0.0,0.0,0.0,0.0,0.0,0.0,0.0,0.0,0.0,0.0,0.0,0.0,0.0,0.0,0.0,0.0,0.0,0.0,0.0,0.0,0.0,0.0,0.0,0.0,0.0,0.0,0.0,0.0,0.0,0.0,0.0,0.0,0.0,0.0,0.0,0.0,0.0,0.0,0.0,0.0,0.0,0.0,0.0,0.0,0.0,0.0,0.0,0.0,0.0,0.0,0.0,0.0,0.0,0.0,0.0,0.0,0.0,0.0,0.0,0.0,0.0,0.0,0.0,0.0,0.0,0.0,0.0,0.0,0.0,0.0,0.0,0.0,0.0,0.0,0.0,0.0,0.0,0.0,0.5759,0.4323,0.318,0.2308,0.1985,0.1798,0.0,0.0,0.0,0.0,0.0,0.0,0.0,0.0,0.0,0.0,0.0,0.0,0.0,0.0,0.0,0.0,0.0,0.0,0.0,0.0,0.0,0.0,0.0,0.0,0.0,0.0,0.0,0.0,0.0,0.0,0.0,0.0,0.0,0.0,0.0,0.0,0.0,0.0,0.0,0.0,0.0,0.0,0.0,0.0,0.0,0.0,0.0,0.0,0.0,0.0,0.0,0.0,0.0,0.0,0.0,0.0,0.0,0.0,0.0,0.0,0.0,0.0,0.0,0.0,0.0,0.0,0.0,0.0,0.0,0.0,0.0,0.0,0.0,0.0,0.0,0.0,0.0,0.0,0.0,0.0,0.0,0.0,0.0,0.0,0.0,0.0,0.0,0.0,0.0,0.0,0.0,0.0,0.0,0.0,0.0,0.0,0.0,0.0,0.0,0.0,0.0,0.0,0.0,0.0,0.0,0.0,0.0,0.0,0.0,0.5749,0.0,0.2237,0.0,0.1774,0.155,0.0,0.0,0.0,0.0,0.0,0.0,0.0,0.0,0.0,0.0,0.0,0.0,0.0,0.0,0.0,0.0,0.0,0.0,0.0,0.0,0.0,0.0,0.0,0.0,0.0,0.0,0.0,0.0,0.0,0.0,0.0,0.0,0.0,0.0,0.0,0.0,0.0,0.0,0.0,0.0,0.0,0.0,0.0,0.0,0.0,0.0,0.0,0.0,0.0,0.0,0.0,0.0,0.0,0.0,0.0,0.0,0.0,0.0,0.0,0.0,0.0,0.0,0.0,0.0,0.0,0.0,0.0,0.0,0.0,0.0,0.0,0.0,0.0,0.0,0.0,0.0,0.0,0.0,0.0,0.0,0.0,0.0,0.0,0.0,0.0,0.0,0.0,0.0,0.0,0.0,0.0,0.0,0.0,0.0,0.0,0.0,0.0,0.0,0.0,0.0,0.0,0.0,0.0,0.0,0.0,0.0,0.0,0.0,0.7908,0.6166,0.3855,0.2562,0.2477,0.1881,0.156,0.0,0.0,0.0,0.0,0.0,0.0,0.0,0.0,0.0,0.0,0.0,0.0,0.0,0.0,0.0,0.0,0.0,0.0,0.0,0.0,0.0,0.0,0.0,0.0,0.0,0.0,0.0,0.0,0.0,0.0,0.0,0.0,0.0,0.0,0.0,0.0,0.0,0.0,0.0,0.0,0.0,0.0,0.0,0.0,0.0,0.0,0.0,0.0,0.0,0.0,0.0,0.0,0.0,0.0,0.0,0.0,0.0,0.0,0.0,0.0,0.0,0.0,0.0,0.0,0.0,0.0,0.0,0.0,0.0,0.0,0.0,0.0,0.0,0.0,0.0,0.0,0.0,0.0,0.0,0.0,0.0,0.0,0.0,0.0,0.0,0.0,0.0,0.0,0.0,0.0,0.0,0.0,0.0,0.0,0.0,0.0,0.0,0.0,0.0,0.0,0.0,0.0,0.0,0.0,0.0,0.0,0.0,0.0,0.0,0.5662,0.4092,0.2872,0.2004,0.1655,0.1501,0.0,0.0,0.0,0.0,0.0,0.0,0.0,0.0,0.0,0.0,0.0,0.0,0.0,0.0,0.0,0.0,0.0,0.0,0.0,0.0,0.0,0.0,0.0,0.0,0.0,0.0,0.0,0.0,0.0,0.0,0.0,0.0,0.0,0.0,0.0,0.0,0.0,0.0,0.0,0.0,0.0,0.0,0.0,0.0,0.0,0.0,0.0,0.0,0.0,0.0,0.0,0.0,0.0,0.0,0.0,0.0,0.0,0.0,0.0,0.0,0.0,0.0,0.0,0.0,0.0,0.0,0.0,0.0,0.0,0.0,0.0,0.0,0.0,0.0,0.0,0.0,0.0,0.0,0.0,0.0,0.0,0.0,0.0,0.0,0.0,0.0,0.0,0.0,0.0,0.0,0.0,0.0,0.0,0.0,0.0,0.0,0.0,0.0,0.0,0.0,0.0,0.0,0.0,0.0,0.0,0.0,0.0,0.0,0.0,0.5589,0.4422,0.3194,0.1868,0.1626,0.1524,0.1506,0.0,0.0,0.0,0.0,0.0,0.0,0.0,0.0,0.0,0.0,0.0,0.0,0.0,0.0,0.0,0.0,0.0,0.0,0.0,0.0,0.0,0.0,0.0,0.0,0.0,0.0,0.0,0.0,0.0,0.0,0.0,0.0,0.0,0.0,0.0,0.0,0.0,0.0,0.0,0.0,0.0,0.0,0.0,0.0,0.0,0.0,0.0,0.0,0.0,0.0,0.0,0.0,0.0,0.0,0.0,0.0,0.0,0.0,0.0,0.0,0.0,0.0,0.0,0.0,0.0,0.0,0.0,0.0,0.0,0.0,0.0,0.0,0.0,0.0,0.0,0.0,0.0,0.0,0.0,0.0,0.0,0.0,0.0,0.0,0.0,0.0,0.0,0.0,0.0,0.0,0.0,0.0,0.0,0.0,0.0,0.0,0.0,0.0,0.0,0.0,0.0,0.0,0.0,0.0,0.0,0.0,0.0,0.0,0.5737,0.4791,0.3587,0.213,0.1734,0.1576,0.0,0.0,0.0,0.0,0.0,0.0,0.0,0.0,0.0,0.0,0.0,0.0,0.0,0.0,0.0,0.0,0.0,0.0,0.0,0.0,0.0,0.0,0.0,0.0,0.0,0.0,0.0,0.0,0.0,0.0,0.0,0.0,0.0,0.0,0.0,0.0,0.0,0.0,0.0,0.0,0.0,0.0,0.0,0.0,0.0,0.0,0.0,0.0,0.0,0.0,0.0,0.0,0.0,0.0,0.0,0.0,0.0,0.0,0.0,0.0,0.0,0.0,0.0,0.0,0.0,0.0,0.0,0.0,0.0,0.0,0.0,0.0,0.0,0.0,0.0,0.0,0.0,0.0,0.0,0.0,0.0,0.0,0.0,0.0,0.0,0.0,0.0,0.0,0.0,0.0,0.0,0.0,0.0,0.0,0.0,0.0,0.0,0.0,0.0,0.0,0.0,0.0,0.0,0.0,0.0,0.0,0.0,0.0,0.0,0.5844,0.5554,0.4288,0.1903,0.1694,0.1596,0.0,0.0,0.0,0.0,0.0,0.0,0.0,0.0,0.0,0.0,0.0,0.0,0.0,0.0,0.0,0.0,0.0,0.0,0.0,0.0,0.0,0.0,0.0,0.0,0.0,0.0,0.0,0.0,0.0,0.0,0.0,0.0,0.0,0.0,0.0,0.0,0.0,0.0,0.0,0.0,0.0,0.0,0.0,0.0,0.0,0.0,0.0,0.0,0.0,0.0,0.0,0.0,0.0,0.0,0.0,0.0,0.0,0.0,0.0,0.0,0.0,0.0,0.0,0.0,0.0,0.0,0.0,0.0,0.0,0.0,0.0,0.0,0.0,0.0,0.0,0.0,0.0,0.0,0.0,0.0,0.0,0.0,0.0,0.0,0.0,0.0,0.0,0.0,0.0,0.0,0.0,0.0,0.0,0.0,0.0,0.0,0.0,0.0,0.0,0.0,0.0,0.0,0.0,0.0,0.0,0.0,0.0,0.0,0.8233,0.5939,0.5607,0.4278,0.1971,0.1712,0.1609,0.0,0.0,0.0,0.0,0.0,0.0,0.0,0.0,0.0,0.0,0.0,0.0,0.0,0.0,0.0,0.0,0.0,0.0,0.0,0.0,0.0,0.0,0.0,0.0,0.0,0.0,0.0,0.0,0.0,0.0,0.0,0.0,0.0,0.0,0.0,0.0,0.0,0.0,0.0,0.0,0.0,0.0,0.0,0.0,0.0,0.0,0.0,0.0,0.0,0.0,0.0,0.0,0.0,0.0,0.0,0.0,0.0,0.0,0.0,0.0,0.0,0.0,0.0,0.0,0.0,0.0,0.0,0.0,0.0,0.0,0.0,0.0,0.0,0.0,0.0,0.0,0.0,0.0,0.0,0.0,0.0,0.0,0.0,0.0,0.0,0.0,0.0,0.0,0.0,0.0,0.0,0.0,0.0,0.0,0.0,0.0,0.0,0.0,0.0,0.0,0.0,0.0,0.0,0.0,0.0,0.0,0.0,0.0,0.7849,0.6238,0.5274,0.3992,0.2338,0.1937,0.167,0.0,0.0,0.0,0.0,0.0,0.0,0.0,0.0,0.0,0.0,0.0,0.0,0.0,0.0,0.0,0.0,0.0,0.0,0.0,0.0,0.0,0.0,0.0,0.0,0.0,0.0,0.0,0.0,0.0,0.0,0.0,0.0,0.0,0.0,0.0,0.0,0.0,0.0,0.0,0.0,0.0,0.0,0.0,0.0,0.0,0.0,0.0,0.0,0.0,0.0,0.0,0.0,0.0,0.0,0.0,0.0,0.0,0.0,0.0,0.0,0.0,0.0,0.0,0.0,0.0,0.0,0.0,0.0,0.0,0.0,0.0,0.0,0.0,0.0,0.0,0.0,0.0,0.0,0.0,0.0,0.0,0.0,0.0,0.0,0.0,0.0,0.0,0.0,0.0,0.0,0.0,0.0,0.0,0.0,0.0,0.0,0.0,0.0,0.0,0.0,0.0,0.0,0.0,0.0,0.0,0.0,0.0,0.0,0.771,0.6179,0.5231,0.4026,0.2452,0.2183,0.1871,0.0,0.0,0.0,0.0,0.0,0.0,0.0,0.0,0.0,0.0,0.0,0.0,0.0,0.0,0.0,0.0,0.0,0.0,0.0,0.0,0.0,0.0,0.0,0.0,0.0,0.0,0.0,0.0,0.0,0.0,0.0,0.0,0.0,0.0,0.0,0.0,0.0,0.0,0.0,0.0,0.0,0.0,0.0,0.0,0.0,0.0,0.0,0.0,0.324,0.0,0.0,0.0,0.0,0.0,0.0,0.0,0.0,0.0,0.0,0.0,0.0,0.0,0.0,0.0,0.0,0.0,0.0,0.0,0.0,0.0,0.0,0.0,0.0,0.0,0.0,0.0,0.0,0.0,0.0,0.0,0.0,0.0,0.0,0.0,0.0,0.0,0.0,0.0,0.0,0.0,0.0,0.0,0.0,0.0,0.0,0.0,0.0,0.0,0.0,0.0,0.0,0.0,0.0,0.0,0.0,0.0,0.0,0.0,0.7084,0.6298,0.4854,0.3662,0.2749,0.252,0.2204,0.0,0.0,0.0,0.0,0.0,0.0,0.0,0.0,0.0,0.0,0.0,0.0,0.0,0.0,0.0,0.0,0.0,0.0,0.0,0.0,0.0,0.0,0.0,0.0,0.0,0.0,0.0,0.0,0.0,0.0,0.0,0.0,0.0,0.0,0.0,0.0,0.0,0.0,0.0,0.0,0.0,0.0,0.0,0.0,0.0,0.0,0.0,0.0,0.0,0.0,0.0,0.0,0.0,0.0,0.0,0.0,0.0,0.0,0.0,0.0,0.0,0.0,0.0,0.0,0.0,0.0,0.0,0.0,0.0,0.0,0.0,0.0,0.0,0.0,0.0,0.0,0.0,0.0,0.0,0.0,0.0,0.0,0.0,0.0,0.0,0.0,0.0,0.0,0.0,0.0,0.0,0.0,0.0,0.0,0.0,0.0,0.0,0.0,0.0,0.0,0.0,0.0,0.0,0.0,0.0,0.0,0.0,0.7651,0.6646,0.6425,0.4547,0.3368,0.2945,0.2899,0.2579,0.2053,0.0,0.0,0.0,0.0,0.0,0.0,0.0,0.0,0.0,0.0,0.0,0.0,0.0,0.0,0.0,0.0,0.0,0.0,0.0,0.0,0.0,0.0,0.0,0.0,0.0,0.0,0.0,0.0,0.0,0.0,0.0,0.0,0.0,0.0,0.0,0.0,0.0,0.0,0.9092,0.8612,0.0,0.0,0.0,0.0,0.0,0.0,0.0,0.0,0.3334,0.0,0.0,0.0,0.0,0.0,0.0,0.0,0.0,0.0,0.0,0.0,0.0,0.0,0.0,0.0,0.0,0.0,0.0,0.0,0.0,0.0,0.0,0.0,0.0,0.0,0.0,0.0,0.0,0.0,0.0,0.0,0.0,0.0,0.0,0.0,0.0,0.0,0.0,0.0,0.0,0.0,0.0,0.0,0.0,0.0,0.0,0.0,0.0,0.0,0.0,0.0,0.0,0.0,0.0,0.0,0.0,0.953,0.8412,0.737,0.6408,0.5226,0.4162,0.3197,0.3135,0.2975,0.2577,0.0,0.0,0.0,0.0,0.0,0.0,0.0,0.0,0.0,0.0,0.0,0.0,0.0,0.0,0.0,0.0,0.0,0.0,0.0,0.0,0.0,0.0,0.0,0.0,0.0,0.0,0.0,0.0,0.0,0.0,0.0,0.0,0.0,0.0,0.0,0.0,0.0,0.0,0.0,0.9216,0.8526,0.0,0.0,0.0,0.0,0.0,0.0,0.0,0.0,0.3252,0.0,0.0,0.0,0.0,0.0,0.0,0.0,0.0,0.0,0.0,0.0,0.0,0.0,0.0,0.0,0.0,0.0,0.0,0.0,0.0,0.0,0.0,0.0,0.0,0.0,0.0,0.0,0.0,0.0,0.0,0.0,0.0,0.0,0.0,0.0,0.0,0.0,0.0,0.0,0.0,0.0,0.0,0.0,0.0,0.0,0.0,0.0,0.0,0.0,0.0,0.0,0.0,0.0,0.0,0.0,0.9513,0.855,0.7795,0.7226,0.6229,0.5174,0.4083,0.3993,0.3629,0.0,0.0,0.0,0.0,0.0,0.0,0.0,0.0,0.0,0.0,0.0,0.0,0.0,0.0,0.0,0.0,0.0,0.0,0.0,0.0,0.0,0.0,0.0,0.0,0.0,0.0,0.0,0.0,0.0,0.0,0.0,0.0,0.0,0.0,0.0,0.0,0.0,0.0,0.0,0.0,0.962,0.9076,0.7471,0.0,0.0,0.0,0.0,0.0,0.0,0.3243,0.3224,0.0,0.0,0.0,0.0,0.0,0.0,0.0,0.0,0.0,0.0,0.0,0.0,0.0,0.0,0.0,0.0,0.0,0.0,0.0,0.0,0.0,0.0,0.0,0.0,0.0,0.0,0.0,0.0,0.0,0.0,0.0,0.0,0.0,0.0,0.0,0.0,0.0,0.0,0.0,0.0,0.0,0.0,0.0,0.0,0.0,0.0,0.0,0.0,0.0,0.0,0.0,0.0,0.0,0.0,0.0,0.951,0.8757,0.8223,0.7971,0.717,0.6226,0.5181,0.5055,0.4625,0.0,0.0,0.0,0.0,0.0,0.0,0.0,0.0,0.0,0.0,0.0,0.0,0.0,0.0,0.0,0.0,0.0,0.0,0.0,0.0,0.0,0.0,0.0,0.0,0.0,0.0,0.0,0.0,0.0,0.0,0.0,0.0,0.0,0.0,0.0,0.0,0.0,0.0,0.0,0.0,0.0,0.9474,0.8235,0.7346,0.0,0.0,0.0,0.0,0.3559,0.3363,0.0,0.0,0.0,0.0,0.0,0.0,0.0,0.0,0.0,0.0,0.0,0.0,0.0,0.0,0.0,0.0,0.0,0.0,0.0,0.0,0.0,0.0,0.0,0.0,0.0,0.0,0.0,0.0,0.0,0.0,0.0,0.0,0.0,0.0,0.0,0.0,0.0,0.0,0.0,0.0,0.0,0.0,0.0,0.0,0.0,0.0,0.0,0.0,0.0,0.0,0.0,0.0,0.0,0.0,0.0,0.0,0.9433,0.9396,0.8973,0.8071,0.7869,0.7273,0.6274,0.6208,0.6056,0.0,0.0,0.0,0.0,0.0,0.0,0.0,0.0,0.0,0.0,0.0,0.0,0.0,0.0,0.0,0.0,0.0,0.0,0.0,0.0,0.0,0.0,0.0,0.0,0.0,0.0,0.0,0.0,0.0,0.0,0.0,0.0,0.0,0.0,0.0,0.0,0.0,0.0,0.0,0.0,0.0,0.9517,0.8431,0.7382,0.6676,0.0,0.0,0.3543,0.4498,0.3838,0.0,0.0,0.0,0.0,0.0,0.0,0.0,0.0,0.0,0.0,0.0,0.0,0.0,0.0,0.0,0.0,0.0,0.0,0.0,0.0,0.0,0.0,0.0,0.0,0.0,0.0,0.0,0.0,0.0,0.0,0.0,0.0,0.0,0.0,0.0,0.0,0.0,0.0,0.0,0.0,0.0,0.0,0.0,0.0,0.0,0.0,0.0,0.0,0.0,0.0,0.0,0.0,0.0,0.0,0.0,0.9076,0.94,0.9535,0.9373,0.8924,0.8924,0.8421,0.7369,0.7222,0.6765,0.0,0.0,0.0,0.0,0.0,0.0,0.0,0.0,0.0,0.0,0.0,0.0,0.0,0.0,0.0,0.0,0.0,0.0,0.0,0.0,0.0,0.0,0.0,0.0,0.0,0.0,0.0,0.0,0.0,0.0,0.0,0.0,0.0,0.0,0.0,0.0,0.0,0.0,0.0,0.0,0.0,0.0,0.9286,0.8371,0.0,0.0,0.0,0.4282,0.4734,0.0,0.0,0.0,0.0,0.0,0.0,0.0,0.0,0.0,0.0,0.0,0.0,0.0,0.0,0.0,0.0,0.0,0.0,0.0,0.0,0.0,0.0,0.0,0.0,0.0,0.0,0.0,0.0,0.0,0.0,0.0,0.0,0.0,0.0,0.0,0.0,0.0,0.0,0.0,0.0,0.0,0.0,0.0,0.0,0.0,0.0,0.0,0.0,0.0,0.0,0.0,0.0,0.0,0.0,0.0,0.0,0.0,0.9335,0.9514,0.9624,0.9624,0.9624,0.9225,0.8421,0.8209,0.0,0.0,0.0,0.0,0.0,0.0,0.0,0.0,0.0,0.0,0.0,0.0,0.0,0.0,0.0,0.0,0.0,0.0,0.0,0.0,0.0,0.0,0.0,0.0,0.0,0.0,0.0,0.8103,0.0,0.0,0.0,0.0,0.0,0.0,0.0,0.0,0.0,0.0,0.0,0.0,0.0,0.0,1.0149,1.001,0.9223,0.8633,0.0,0.0,0.4883,0.5181,0.4083,0.3185,0.0,0.0,0.0,0.0,0.0,0.0,0.0,0.0,0.0,0.0,0.0,0.0,0.0,0.0,0.0,0.0,0.0,0.0,0.0,0.0,0.0,0.0,0.0,0.0,0.0,0.0,0.0,0.0,0.0,0.0,0.0,0.0,0.0,0.0,0.0,0.0,0.0,0.0,0.0,0.0,0.0,0.0,0.0,0.0,0.0,0.0,0.0,0.0,0.0,0.0,0.0,0.0,0.0,0.0,0.8917,0.9116,0.9453,0.9624,0.9624,0.9624,0.9575,0.9476,0.934,0.9028,0.0,0.0,0.0,0.0,0.0,0.0,0.0,0.0,0.0,0.0,0.0,0.0,0.0,0.0,0.0,0.0,0.0,0.0,0.0,0.0,0.0,0.0,0.0,0.0,0.0,0.0,0.0,0.0,0.0,0.0,0.0,0.0,0.0,0.0,0.0,0.0,0.0,0.0,0.0,0.0,0.0,1.0272,1.026,0.9388,0.8976,0.0,0.0,0.5131,0.6126,0.4582,0.3249,0.3305,0.0,0.0,0.0,0.0,0.0,0.0,0.0,0.0,0.0,0.0,0.0,0.0,0.0,0.0,0.0,0.0,0.0,0.0,0.0,0.0,0.0,0.0,0.0,0.0,0.0,0.0,0.0,0.0,0.0,0.0,0.0,0.0,0.0,0.0,0.0,0.0,0.0,0.0,0.0,0.0,0.0,0.0,0.0,0.0,0.0,0.0,0.0,0.0,0.0,0.0,0.0,0.0,0.0,0.8989,0.9096,0.9591,0.9776,0.9628,0.9624,0.9624,0.9624,0.9348,0.9076,0.0,0.0,0.0,0.0,0.0,0.0,0.0,0.0,0.0,0.0,0.0,0.0,0.0,0.0,0.0,0.0,0.0,0.0,0.0,0.0,0.0,0.0,0.0,0.0,0.0,0.0,0.0,0.0,0.9015,0.9272,0.9672,0.0,0.0,0.0,0.0,0.0,0.0,0.0,0.0,0.0,0.0,1.0564,1.056,1.0048,0.0,0.0,0.8302,0.6819,0.6434,0.5278,0.4094,0.3369,0.3196,0.0,0.0,0.0,0.0,0.0,0.0,0.0,0.0,0.0,0.0,0.0,0.0,0.0,0.0,0.0,0.0,0.0,0.0,0.0,0.0,0.0,0.0,0.0,0.0,0.0,0.0,0.0,0.0,0.0,0.0,0.0,0.0,0.0,0.0,0.0,0.0,0.0,0.0,0.0,0.0,0.0,0.0,0.0,0.0,0.0,0.0,0.0,0.0,0.0,0.0,0.0,0.0,0.9152,0.9325,0.9829,1.0019,0.9723,0.9723,0.9723,0.9715,0.9378,0.9099,0.0,0.0,0.0,0.0,0.0,0.0,0.0,0.0,0.0,0.0,0.0,0.0,0.0,0.0,0.0,0.0,0.0,0.0,0.0,0.0,0.0,0.0,0.0,0.0,0.0,0.0,0.0,0.0,0.939,0.9724,0.9975,0.0,0.0,0.0,0.0,0.0,0.0,0.0,0.0,0.0,0.0,1.072,1.072,1.0523,1.0293,1.0298,0.9131,0.7806,0.6687,0.604,0.5197,0.3719,0.0,0.0,0.0,0.0,0.0,0.0,0.0,0.0,0.0,0.0,0.0,0.0,0.0,0.0,0.0,0.0,0.0,0.0,0.0,0.0,0.0,0.0,0.0,0.0,0.0,0.0,0.0,0.0,0.0,0.0,0.9578,0.0,0.0,0.0,0.0,0.0,0.0,0.0,0.0,0.0,0.0,0.0,0.0,0.0,0.0,0.0,0.0,0.0,0.0,0.0,0.0,0.0,0.0,0.9403,0.9791,1.0167,1.0261,1.0015,1.0019,1.001,0.9948,0.9608,0.9326,0.9173,0.0,0.0,0.0,0.0,0.0,0.0,0.0,0.0,0.0,0.0,0.0,0.0,0.0,0.0,0.0,0.0,0.0,0.0,0.0,0.0,0.0,0.0,0.0,0.0,0.0,0.0,0.9286,0.9475,0.9682,0.0,0.0,0.0,0.0,0.0,0.0,0.0,0.0,0.0,0.0,1.0958,1.0811,1.0815,1.0569,1.0393,1.0331,0.9041,0.7732,0.6893,0.691,0.6398,0.0,0.0,0.0,0.0,0.0,0.0,0.0,0.0,0.0,0.0,0.0,0.0,0.0,0.0,0.0,0.0,0.0,0.0,0.0,0.0,0.0,0.0,0.0,0.0,0.0,0.0,0.0,1.1083,1.0966,0.0,0.0,0.0,0.0,0.0,0.0,0.0,0.0,0.0,0.0,0.0,1.0467,1.1313,0.0,0.0,0.0,0.0,0.0,0.0,0.0,0.0,0.0,0.0,0.0,0.0,0.9735,0.9837,1.036,1.0498,1.0088,1.0083,1.0018,0.9841,0.9595,0.9356,0.9078,0.0,0.0,0.0,0.0,0.0,0.0,0.0,0.0,0.0,0.0,0.0,0.0,0.0,0.0,0.0,0.0,0.0,0.0,0.0,0.0,0.0,0.0,0.0,0.0,0.0,0.9786,0.0,0.0,0.0,0.0,0.0,0.0,0.0,0.0,0.0,0.0,0.0,1.1096,1.1194,1.1096,1.1096,1.1047,1.085,1.0681,0.0,0.0,0.0,0.0,0.0,0.0,0.0,0.0,0.0,0.0,0.0,0.0,0.0,0.0,0.6309,0.5678,0.5535,0.5567,0.5795,0.0,0.0,0.0,0.0,0.0,0.0,0.0,0.0,0.0,0.0,0.0,0.0,0.0,0.0,1.2524,0.0,1.2203,0.0,0.0,0.0,0.0,0.0,0.0,0.0,0.0,1.2978,1.2797,1.1395,1.2152,1.191,0.0,1.0792,1.0546,0.0,0.0,0.0,0.0,0.0,0.0,0.0,0.0,1.0117,1.022,1.0617,1.0642,1.028,1.0161,1.0059,0.9926,0.9744,0.9456,0.9108,0.8932,0.8773,0.0,0.0,0.0,0.0,0.0,0.0,0.0,0.0,0.0,0.0,0.0,0.0,0.0,0.0,0.0,0.0,0.0,0.0,0.0,0.0,0.0,0.0,0.0,0.9994,0.0,0.0,0.0,0.0,0.0,0.0,0.0,0.0,0.0,1.1307,1.1241,1.1222,1.1298,1.1241,1.1194,1.1194,0.0,0.0,0.0,0.0,0.0,0.0,0.0,0.8755,0.822,0.729,0.6725,0.711,0.6848,0.6551,0.6462,0.0,0.0,0.6313,0.619,0.6231,0.6422,0.6163,0.5884,0.5887,0.5584,0.5336,0.0,0.0,0.0,0.0,0.0,0.0,0.0,0.0,1.3643,1.3638,0.0,1.3367,0.0,0.0,0.0,0.0,0.0,0.0,0.0,0.0,1.5134,1.4692,1.2813,1.277,1.2247,1.134,1.1331,1.1221,1.1001,1.0577,0.0,0.0,0.0,0.0,0.0,0.0,1.0454,1.0882,1.091,1.0805,1.0496,1.0309,1.0195,1.0172,0.9999,0.9721,0.9347,0.9137,0.8917,0.874,0.8738,0.0,0.0,0.0,0.0,0.0,0.0,0.0,0.0,0.0,0.0,0.0,0.0,0.0,0.0,0.0,0.0,0.0,0.0,0.0,0.0,1.0004,0.0,0.0,0.0,0.0,0.0,0.0,0.0,0.0,0.0,0.0,1.151,1.1345,1.1288,1.1487,0.0,0.0,0.0,0.0,1.0943,1.1326,1.103,1.0531,0.9872,1.0786,1.0941,0.9223,0.0,0.0,0.8612,0.7722,0.7119,0.6847,0.6902,0.6978,0.6964,0.6802,0.6697,0.6584,0.6465,0.6392,0.6387,0.6337,0.6337,1.5295,0.0,0.0,0.0,0.0,1.3991,1.4415,1.5078,1.5171,1.5107,1.4877,1.4711,0.0,0.0,0.0,0.0,0.0,0.0,1.4027,1.404,1.4485,1.4405,1.383,1.3836,1.3692,1.3403,1.3403,1.3278,1.2941,1.216,1.1293,1.0327,0.0,0.0,0.0,0.0,1.0787,1.0901,1.1038,1.0914,1.058,1.051,1.0342,1.0051,0.9986,0.9901,0.978,0.9554,0.9405,0.9345,0.9052,0.0,0.0,0.0,0.0,0.0,0.0,0.0,0.0,0.0,0.0,0.0,0.0,0.0,0.0,0.0,0.0,0.0,0.0,0.0,0.9994,1.0137,1.0222,0.0,0.0,0.0,0.0,0.0,0.0,0.0,0.0,0.0,1.1501,1.159,1.1605,0.0,0.0,1.1368,1.1217,1.1096,1.1194,1.1466,0.0,0.0,0.0,1.0835,1.0562,1.1261,1.1082,1.0307,0.8598,0.8009,0.7573,0.6912,0.6831,0.6828,0.6738,0.6698,0.666,0.6619,0.647,0.6389,0.6387,0.6387,0.6387,1.6608,1.5466,1.546,1.546,1.5507,1.5514,1.5846,1.6412,1.6412,1.6315,1.6188,1.6092,1.5438,1.43,1.3665,0.0,0.0,0.0,1.4931,1.5311,1.5435,1.527,1.4937,1.4889,1.4698,1.431,1.431,1.4129,1.377,1.3222,1.2422,1.1397,0.0,0.0,1.0645,1.0811,1.0938,1.1014,1.1052,1.091,1.0626,1.0455,1.0251,1.0009,0.9994,0.9994,0.9994,0.9833,0.9767,0.9762,0.9409,0.9192,0.0,0.0,0.0,0.0,0.0,0.0,0.0,0.0,0.0,0.0,0.0,1.0024,0.9938,0.0,0.0,0.0,1.0285,1.0156,1.0232,1.036,0.0,0.0,0.0,0.0,0.0,0.0,0.0,1.1179,1.1269,1.1373,1.1505,1.169,1.1742,1.1543,1.1444,1.134,1.1212,0.0,1.1269,1.1436,1.152,1.1633,1.1902,1.1211,1.0945,1.1984,1.1345,1.0383,0.9309,0.8706,0.8043,0.728,0.6995,0.687,0.6541,0.648,0.6499,0.6535,0.6488,0.6389,0.6387,0.6387,0.6387,1.7286,1.7286,1.7286,1.7286,1.7286,1.7286,1.7286,1.7286,1.7286,1.7286,1.7286,1.7286,1.6679,1.5562,1.4657,0.0,1.5621,1.5812,1.6412,1.7286,1.7286,1.6796,1.594,1.594,1.546,1.4555,1.4555,1.4354,1.4031,1.3926,1.3625,1.3059,1.1535,1.098,1.1356,1.113,1.1149,1.1282,1.1062,1.0816,1.0645,1.0236,1.0018,1.0023,1.0009,0.9994,0.9994,0.9994,0.9994,0.9985,0.9714,0.9512,0.9315,0.0,0.0,0.0,0.0,0.0,0.0,0.0,0.0,0.0,0.0,0.0,0.0,0.0,0.0,0.0,1.0923,0.0,1.0694,1.0635,0.0,0.0,0.0,1.092,1.092,1.108,1.1194,1.1194,0.0,0.0,1.1491,0.0,1.1699,1.152,1.134,1.1217,1.1194,1.1194,1.1269,1.1449,1.1487,1.1562,1.1756,1.17,1.1719,1.1799,1.1117,1.0506,1.0099,0.9462,0.8585,0.757,0.7363,0.7124,0.6494,0.6371,0.6301,0.6404,0.6429,0.6387,0.6387,0.6387,0.6387,1.7286,1.7286,1.7286,1.7286,1.7286,1.7286,1.7286,1.7286,1.7286,1.7286,1.7286,1.7286,1.7018,1.6545,1.6543,1.6515,1.6591,1.6854,1.7084,1.7286,1.7286,1.7185,1.6943,1.6943,1.6803,1.6608,1.6615,1.6327,1.577,1.5075,1.4493,1.4043,1.2975,1.2581,1.2934,1.2495,1.2297,1.2344,1.1531,1.1023,1.082,1.0455,1.0241,1.0241,1.008,0.9994,0.9994,0.9994,0.9994,0.999,0.9757,0.9583,0.9526,0.9063,0.0,0.0,0.0,0.0,0.0,0.0,0.0,0.0,0.0,1.1652,1.1178,0.0,1.1667,0.0,1.227,1.1694,1.1747,1.118,0.0,0.0,1.1,1.1123,1.1123,1.1165,1.1194,1.1194,1.1241,1.1269,1.1274,1.1312,1.1331,1.1274,1.1368,1.1383,1.1227,1.1194,1.1212,1.1264,1.1279,1.1345,1.1548,1.1723,1.1794,1.1817,1.135,1.083,1.0136,0.9599,0.9005,0.8124,0.7496,0.7121,0.6931,0.6585,0.632,0.6309,0.6374,0.6387,0.6387,0.6387,0.6387,1.7286,1.7286,1.7286,1.7286,1.7286,1.7286,1.7286,1.7286,1.7286,1.7286,1.7286,1.7286,1.723,1.7084,1.7252,1.723,1.7084,1.7252,1.7286,1.7286,1.7286,1.7286,1.7271,1.7186,1.7121,1.7113,1.6974,1.6645,1.614,1.5674,1.5214,1.4843,1.4606,1.463,1.4713,1.3748,1.3056,1.2678,1.2534,1.2379,1.2246,1.1435,1.098,1.0975,1.0718,1.0381,1.0038,1.0386,1.0336,0.9862,0.9795,0.9951,1.027,1.0085,1.0186,0.0,0.0,0.0,0.0,0.0,0.0,0.0,0.0,0.0,0.0,0.0,1.317,1.3762,1.3285,1.2876,1.275,1.2326,1.1884,1.1414,1.19,1.2111,1.1912,1.2301,1.2398,1.1917,1.1868,1.1678,1.1292,1.1194,1.1194,1.1194,1.1298,1.1331,1.1227,1.1194,1.1194,1.1194,1.1194,1.1194,1.1246,1.125,1.1264,1.1246,1.1071,1.0748,1.0233,0.9952,0.95,0.8679,0.8155,0.7728,0.7197,0.6853,0.6582,0.6365,0.6358,0.6379,0.6387,0.6387,0.6387,1.7286,1.7286,1.7286,1.7286,1.7286,1.7286,1.7286,1.7286,1.7286,1.7286,1.7286,1.7286,1.7286,1.7286,1.7286,1.7286,1.7286,1.7286,1.7286,1.7286,1.7286,1.7311,1.7252,1.7027,1.6881,1.6829,1.6551,1.6213,1.5921,1.5913,1.5703,1.5425,1.5979,1.6221,1.6095,1.4787,1.3731,1.2915,1.3525,1.3842,1.383,1.2541,1.1847,1.1804,1.1625,1.1181,1.0424,1.1094,1.1016,0.9951,1.0265,1.0766,1.1334,1.1567,1.2129,0.0,1.3033,0.0,0.0,0.0,0.0,0.0,0.0,0.0,0.0,1.5595,1.5385,1.4443,1.4356,1.4215,1.392,1.38,1.3318,1.2408,1.3125,1.3457,1.2969,1.3788,1.4028,1.3065,1.2969,1.2635,1.1868,1.158,1.158,1.1629,1.1595,1.1487,1.1356,1.1268,1.1189,1.117,1.1132,1.1019,1.0891,1.0815,1.0756,1.0737,1.0806,1.0659,1.056,1.0437,1.0168,0.9429,0.9178,0.8645,0.7441,0.7234,0.7007,0.6429,0.6358,0.6401,0.6407,0.6354,0.636,1.7286,1.7286,1.7286,1.7286,1.7286,1.7286,1.7286,1.7286,1.7286,1.7286,1.7286,1.7286,1.7286,1.7286,1.7286,1.7286,1.7286,1.7286,1.7286,1.7286,1.7286,1.7194,1.6998,1.6925,1.6763,1.6514,1.6396,1.6221,1.5913,1.5913,1.571,1.5396,1.5506,1.534,1.4858,0.0,0.0,0.0,1.331,1.2951,1.2945,1.2534,1.2161,1.1922,1.2526,0.0,1.2229,1.2632,1.2371,1.1328,1.2382,0.0,0.0,0.0,0.0,0.0,0.0,0.0,0.0,0.0,0.0,0.0,1.5725,1.5697,1.5791,1.6894,1.7184,1.6228,1.6135,1.6061,1.6021,1.5216,1.4399,1.3686,1.4262,1.4447,1.3776,1.4399,1.4686,1.431,1.4399,1.4399,1.3926,1.3644,1.3349,1.3284,1.2883,1.2437,1.221,1.1613,1.1176,1.0981,1.0868,1.0735,1.0645,1.0959,1.113,1.1201,1.1328,1.1344,1.1282,1.117,1.1098,1.0755,1.0409,0.9719,0.8721,0.8071,0.7406,0.6502,0.6345,0.635,0.6301,0.6301,0.6274,1.7286,0.0,1.7286,1.7286,0.0,1.7286,1.7286,1.7286,1.7286,1.7286,1.7286,1.7286,1.7286,1.7286,1.7286,1.7286,1.7286,1.7286,1.7286,1.7271,1.7172,1.7011,1.6888,1.6535,1.6301,1.6148,1.5979,1.5826,1.5637,1.5637,1.5549,1.5396,1.5668,1.5568,1.5173,1.6242,1.6471,1.5792,1.5263,1.4978,1.4918,1.429,1.3868,1.3676,0.0,0.0,0.0,0.0,0.0,0.0,0.0,0.0,0.0,0.0,0.0,1.5788,1.5662,1.5641,1.5878,1.5996,1.6409,1.7239,1.7406,1.7324,1.7024,1.7697,1.7893,1.7412,1.7318,1.7225,1.6936,1.6452,1.5785,1.4978,1.5596,1.588,1.5453,1.6021,1.6257,1.5697,1.5697,1.5542,1.4877,1.4584,1.438,1.4175,1.3601,1.3053,1.2711,1.2194,1.1637,1.1187,1.093,1.0788,1.0824,1.1085,1.1287,1.1311,1.1414,1.1438,1.1466,1.137,1.1278,1.1278,1.102,1.0539,0.9772,0.898,0.8176,0.7355,0.6801,0.6527,0.649,0.6325,0.6162,1.7286,1.7286,1.7286,1.7286,1.7286,1.7286,1.7286,1.7286,0.0,0.0,0.0,1.7286,1.7286,1.7286,1.7286,1.7286,1.7286,1.7286,1.7286,1.7264,1.6996,1.6873,1.6785,1.6184,1.5891,1.5854,1.5555,1.5431,1.5506,1.5465,1.5472,1.5578,1.5983,1.6162,1.6153,1.6825,1.728,1.7404,1.7279,1.7185,1.7124,1.6176,1.5655,1.5608,1.5499,1.5111,1.4328,1.5066,1.5061,1.4203,1.4507,1.5115,1.6029,1.6361,1.7047,1.8056,1.8141,1.8141,1.8179,1.8381,1.8527,1.8527,1.8697,1.8643,1.8226,1.8226,1.8226,1.8226,1.8226,1.804,1.7606,1.7567,1.7178,1.6271,1.699,1.7365,1.6929,1.7652,1.7839,1.7124,1.6983,1.6612,1.5738,1.5503,1.5264,1.4923,1.4398,1.3661,1.3229,1.2595,1.1967,1.1456,1.115,1.1057,1.1076,1.1314,1.1419,1.1446,1.1521,1.1542,1.1542,1.1542,1.1542,1.1623,1.1542,1.1235,1.0636,0.993,0.9148,0.8223,0.7484,0.6901,0.66,0.6366,0.6197,1.7286,1.7286,1.7286,1.7286,1.7286,1.7286,1.7286,1.7286,1.7286,1.7286,1.7286,1.7286,1.7286,1.7286,1.7286,1.7286,1.7286,1.7286,1.7286,0.0,1.7049,1.6749,1.647,1.6082,1.5845,1.574,1.5529,1.5597,1.5922,1.579,1.5748,1.5971,1.6099,1.6396,1.6877,1.7051,1.7408,1.7971,1.7124,1.6695,1.6695,1.6511,1.6311,1.606,1.6791,1.7049,1.6632,1.6982,1.6793,1.5868,1.6866,1.7279,1.6807,1.7455,1.8041,1.8381,1.8234,1.8179,1.8427,1.8481,1.8566,1.8743,1.8781,1.8781,1.8735,1.8689,1.8689,1.8681,1.8689,1.8689,1.8596,1.8542,1.821,1.7598,1.8118,1.8311,1.7645,1.821,1.8542,1.8164,1.8365,1.8172,1.7462,1.7045,1.6655,1.6335,1.5531,1.4863,1.3894,1.2649,1.1774,1.1541,1.1405,1.1272,1.131,1.1618,1.1886,1.1923,1.2235,1.24,1.24,1.2357,1.24,1.2443,1.24,1.21,1.137,1.1017,1.0086,0.8762,0.8102,0.7605,0.6809,0.6496,0.6361,1.7286,1.7286,1.7286,1.7286,1.7286,1.7286,1.7286,1.7286,1.7286,1.7286,1.7286,1.7286,1.7286,1.7286,1.7286,1.7286,1.7286,1.7286,1.7238,1.7055,1.6785,1.6463,1.6154,1.5882,1.5765,1.5692,1.5748,1.588,1.6087,1.5963,1.5955,1.6095,1.6136,1.6415,1.6954,1.7206,1.7546,1.7987,1.7609,1.7412,1.7412,1.7412,1.725,1.6926,1.7387,1.7423,1.7051,1.7188,1.7213,1.7108,1.7629,1.798,1.7963,1.8265,1.855,1.8658,1.855,1.8504,1.8658,1.8651,1.8697,1.8781,1.8781,1.874,1.8557,1.867,1.8781,1.8781,1.8781,1.8781,1.8781,1.8781,1.8681,1.8357,1.8596,1.8643,1.8396,1.8542,1.8656,1.8452,1.8451,1.8361,1.788,1.7663,1.7407,1.6995,1.623,1.5176,1.4124,1.3281,1.2496,1.1957,1.1743,1.1682,1.1714,1.21,1.2357,1.24,1.2577,1.2705,1.2705,1.2705,1.2705,1.2705,1.2705,1.2534,1.2057,1.157,1.0837,1.0285,0.9371,0.8689,0.7801,0.7125,0.6592,1.7286,1.7286,1.7286,1.7286,1.7286,1.7286,1.7286,1.7286,1.7286,1.7286,1.7286,1.7286,1.7286,1.7286,1.7286,1.7286,1.7279,1.7252,1.7091,1.6881,1.6536,1.6227,1.5985,1.5856,1.5816,1.5865,1.6046,1.6128,1.6203,1.617,1.6211,1.6252,1.6252,1.6505,1.7,1.7396,1.7697,1.7989,1.8141,1.828,1.8272,1.8272,1.8141,1.7902,1.7802,1.7588,1.7305,1.7213,1.7378,1.7848,1.7872,1.8126,1.8631,1.8708,1.8694,1.8765,1.8781,1.8781,1.8781,1.8781,1.8781,1.8781,1.8756,1.8544,1.8367,1.8549,1.8662,1.8716,1.8726,1.8781,1.8781,1.8781,1.8781,1.8781,1.8781,1.8781,1.8773,1.8756,1.8621,1.8343,1.824,1.8049,1.7763,1.7703,1.7525,1.7064,1.6308,1.5291,1.4363,1.4068,1.347,1.2699,1.2272,1.2143,1.2186,1.2443,1.2662,1.2705,1.2705,1.2705,1.2705,1.2705,1.2705,1.2705,1.2705,1.2662,1.2619,1.2149,1.1591,1.1144,1.0509,0.9751,0.8738,0.7959,0.7052,1.7286,1.7286,1.7286,1.7286,1.7286,1.7286,1.7286,1.7286,1.7286,1.7286,1.7286,1.7286,1.7286,1.7286,1.7286,1.7286,1.7304,1.7033,1.6925,1.6867,1.6432,1.6214,1.6154,1.6107,1.6162,1.627,1.6203,1.6294,1.6566,1.6443,1.6443,1.6607,1.6656,1.6822,1.722,1.7596,1.7946,1.825,1.8553,1.8727,1.8735,1.8735,1.8719,1.8688,1.8364,1.819,1.8079,1.7894,1.7735,1.7811,1.7826,1.7985,1.8303,1.8351,1.8486,1.875,1.8819,1.8781,1.8781,1.8781,1.8781,1.8804,1.8549,1.8351,1.8287,1.8327,1.8343,1.8375,1.8629,1.8773,1.8781,1.8781,1.8781,1.8781,1.8804,1.8781,1.8772,1.8541,1.8335,1.8311,1.7985,1.7691,1.7397,1.7318,1.7191,1.6889,1.6291,1.5692,1.536,1.4901,1.4356,1.3646,1.3052,1.2662,1.2619,1.2662,1.2705,1.2705,1.2705,1.2705,1.2705,1.2705,1.2705,1.2705,1.2705,1.2705,1.2705,1.2571,1.2211,1.1545,1.1001,1.0397,0.9371,0.8752,0.8007,1.7286,1.7286,1.7286,1.7286,1.7286,1.7286,1.7286,1.7286,1.7286,1.7286,1.7286,1.7286,1.7286,1.7286,1.7286,1.7286,1.7304,1.7049,1.6883,1.6773,1.64,1.6172,1.6152,1.6231,1.6319,1.6394,1.6443,1.6533,1.6648,1.6607,1.6607,1.6689,1.6689,1.6768,1.6992,1.7536,1.7886,1.7993,1.8541,1.8781,1.8781,1.8781,1.8621,1.824,1.8057,1.7771,1.7437,1.7429,1.7485,1.7493,1.766,1.7878,1.7977,1.7985,1.8152,1.8486,1.867,1.8781,1.8781,1.8781,1.8781,1.8781,1.8692,1.8454,1.8049,1.8168,1.8152,1.785,1.8383,1.8781,1.8773,1.8781,1.8781,1.8758,1.8653,1.8518,1.851,1.8208,1.7922,1.7767,1.7607,1.735,1.7048,1.6961,1.6897,1.6713,1.6443,1.6154,1.5775,1.5443,1.5026,1.4398,1.3724,1.3173,1.2833,1.2705,1.2705,1.2705,1.2705,1.2705,1.2705,1.2705,1.2705,1.2699,1.2705,1.2705,1.2705,1.2554,1.226,1.1741,1.1084,1.0437,0.9892,0.9295,0.8502,1.7286,1.7286,1.7286,1.7286,1.7286,1.7286,1.7286,1.7286,1.7286,1.7286,1.7286,1.7286,1.7286,1.7286,1.7286,1.7289,1.7165,1.691,1.6684,1.6534,1.6299,1.6183,1.6177,1.6402,1.6476,1.6525,1.6607,1.6689,1.6689,1.6689,1.6689,1.6689,1.6689,1.6689,1.6761,1.7421,1.7806,1.7886,1.847,1.8781,1.8781,1.8781,1.8533,1.7969,1.7862,1.7485,1.6921,1.7135,1.7321,1.7321,1.7456,1.7628,1.7942,1.779,1.7878,1.8271,1.8629,1.8781,1.8781,1.8781,1.8781,1.8819,1.8702,1.8422,1.7962,1.8045,1.7882,1.7496,1.8049,1.8541,1.8631,1.8726,1.875,1.8692,1.8438,1.8271,1.8152,1.785,1.7591,1.736,1.7215,1.704,1.6761,1.6705,1.6705,1.6697,1.6689,1.6574,1.6105,1.5989,1.5741,1.511,1.4524,1.3935,1.3173,1.279,1.2747,1.2705,1.2705,1.2705,1.2705,1.2705,1.2626,1.2578,1.265,1.259,1.2433,1.2247,1.2157,1.1927,1.1364,1.0711,1.0517,0.9888,0.9584,1.7286,1.7286,1.7286,1.7286,1.7286,1.7286,1.7286,1.7286,1.7286,1.7286,1.7286,1.7286,1.7286,1.7286,1.7286,1.7165,1.6917,1.6609,1.6382,1.6271,1.616,1.6185,1.6394,1.6607,1.6689,1.6648,1.6689,1.6689,1.6689,1.6689,1.6689,1.6689,1.6689,1.6689,1.6784,1.7429,1.7806,1.7886,1.847,1.8773,1.8758,1.8758,1.8597,1.8208,1.7998,1.7663,1.7286,1.7313,1.7329,1.7329,1.7016,1.7247,1.8065,1.7703,1.7636,1.824,1.8629,1.8781,1.8781,1.8781,1.8781,1.8742,1.8541,1.8176,1.787,1.783,1.762,1.7302,1.7604,1.7977,1.8263,1.8526,1.8605,1.8359,1.8295,1.8105,1.7862,1.7544,1.736,1.7207,1.6984,1.6768,1.6697,1.6689,1.6689,1.6689,1.6689,1.6648,1.6607,1.6607,1.6319,1.5865,1.5484,1.511,1.3942,1.3222,1.2833,1.279,1.2833,1.2699,1.2699,1.2674,1.2542,1.2463,1.2524,1.2421,1.2103,1.1952,1.1898,1.1744,1.1564,1.115,1.0883,1.1022,1.0749,1.7286,1.7286,1.7286,1.7286,1.7286,1.7286,1.7286,1.7286,1.7286,1.7286,1.7286,1.7286,1.7286,1.7286,1.7286,1.7157,1.6881,1.6699,1.6556,1.6448,1.6357,1.6402,1.6566,1.6648,1.6689,1.6689,1.6689,1.6689,1.6689,1.6689,1.6689,1.6689,1.6689,1.6689,1.6808,1.7421,1.7806,1.7886,1.847,1.8724,1.8486,1.8271,1.7993,1.7691,1.7954,1.7842,1.7337,1.752,1.7596,1.7639,1.727,1.7247,1.7588,1.762,1.7795,1.8263,1.8629,1.8781,1.8781,1.8781,1.8781,1.8758,1.8502,1.8152,1.7862,1.7615,1.731,1.7088,1.7254,1.756,1.7703,1.7954,1.8097,1.7969,1.7771,1.762,1.7437,1.7151,1.6929,1.6905,1.6802,1.6697,1.6689,1.6689,1.6689,1.6689,1.6689,1.6689,1.6689,1.6689,1.6566,1.636,1.5982,1.5526,1.5151,1.3984,1.3307,1.3222,1.313,1.2826,1.2735,1.262,1.2474,1.2497,1.2498,1.2317,1.2045,1.1748,1.167,1.1473,1.1304,1.1286,1.1092,1.1117,1.1117,1.7286,1.7286,1.7286,1.7286,1.7286,1.7286,1.7286,1.7286,1.7286,1.7286,1.7286,1.7286,1.7286,1.7286,1.7286,1.7091,1.6756,1.6684,1.6626,1.6438,1.6428,1.6517,1.6697,1.6689,1.6689,1.6689,1.6689,1.6689,1.6689,1.6689,1.6689,1.6689,1.6689,1.6689,1.6792,1.7318,1.7655,1.7783,1.8303,1.8478,1.8144,1.7942,1.7663,1.744,1.7731,1.7707,1.7135,1.7429,1.7655,1.7599,1.7183,1.6984,1.7119,1.7747,1.816,1.8319,1.8637,1.8781,1.8781,1.8781,1.8781,1.8773,1.8605,1.8287,1.7834,1.7607,1.7231,1.6895,1.6929,1.7104,1.7143,1.731,1.7485,1.7599,1.7448,1.7223,1.7111,1.6856,1.6721,1.6713,1.6705,1.6689,1.6689,1.6689,1.6689,1.6689,1.6689,1.6689,1.6689,1.6689,1.6689,1.6648,1.6319,1.6113,1.5816,1.5068,1.3984,1.3688,1.3512,1.316,1.2867,1.2694,1.2564,1.2564,1.2449,1.2227,1.1951,1.1636,1.1369,1.1166,1.1148,1.1178,1.1117,1.1117,1.1117,1.7286,1.7286,1.7286,1.7286,1.7286,1.7286,1.7286,1.7286,1.7286,1.7286,1.7286,1.7286,1.7286,1.7286,1.7286,1.6989,1.6573,1.6654,1.6528,1.6171,1.6335,1.6525,1.6689,1.6689,1.6689,1.6689,1.6689,1.6689,1.6689,1.6689,1.6689,1.6689,1.6689,1.6689,1.6689,1.7119,1.7345,1.7453,1.7977,1.8112,1.7862,1.7783,1.7564,1.7278,1.7294,1.7151,1.6745,1.7111,1.7376,1.727,1.6683,1.638,1.6969,1.7969,1.8567,1.8422,1.8653,1.8765,1.8781,1.8758,1.8726,1.8804,1.8726,1.8398,1.7882,1.7743,1.7413,1.684,1.6713,1.6729,1.6737,1.6776,1.6945,1.7199,1.7215,1.708,1.6808,1.6705,1.6689,1.6689,1.6689,1.6689,1.6689,1.6689,1.6689,1.6689,1.6689,1.6689,1.6689,1.6689,1.6689,1.6689,1.6566,1.6443,1.6319,1.6105,1.5026,1.4188,1.3928,1.3643,1.3374,1.3173,1.3006,1.292,1.2597,1.2371,1.1639,1.1345,1.1292,1.1117,1.1117,1.1117,1.1117,1.1117,1.1117,1.7286,1.7286,1.7286,1.7286,1.7286,1.7286,1.7286,1.7286,1.7286,1.7286,1.7286,1.7286,1.7286,1.7286,1.7326,1.702,1.6625,1.68,1.6592,1.6213,1.6451,1.6648,1.6689,1.6689,1.6689,1.6689,1.6689,1.6689,1.6689,1.6689,1.6689,1.6689,1.6689,1.6689,1.6713,1.7088,1.7321,1.7376,1.7707,1.7771,1.7512,1.7472,1.7262,1.6953,1.6856,1.6841,1.6721,1.7088,1.7382,1.7572,1.6953,1.6833,1.7405,1.7858,1.8263,1.8629,1.8756,1.8781,1.875,1.8613,1.8589,1.8676,1.8406,1.8041,1.7779,1.7615,1.7262,1.6776,1.6689,1.6689,1.6689,1.6689,1.6753,1.6856,1.6897,1.6889,1.6729,1.6689,1.6689,1.6689,1.6689,1.6689,1.6689,1.6689,1.6689,1.6689,1.6689,1.6689,1.6689,1.6689,1.6689,1.6689,1.6689,1.6689,1.6566,1.6402,1.5816,1.5026,1.4643,1.422,1.394,1.3695,1.351,1.313,1.281,1.2293,1.1563,1.1214,1.1141,1.1117,1.1117,1.1117,1.1117,1.1117,1.1117,1.7286,1.7286,1.7286,1.7286,1.7286,1.7286,1.7286,1.7286,1.7286,1.7286,1.7286,1.7286,1.726,1.7172,1.715,1.6927,1.6585,1.6773,1.6614,1.6306,1.6533,1.6689,1.6689,1.6689,1.6689,1.6689,1.6689,1.6689,1.6689,1.6689,1.6689,1.6689,1.6689,1.6689,1.6705,1.6953,1.708,1.7127,1.7405,1.7421,1.7151,1.708,1.6927,1.6713,1.657,1.6578,1.6689,1.6961,1.7167,1.731,1.7064,1.7111,1.739,1.7663,1.8021,1.8311,1.843,1.8422,1.8414,1.8351,1.8383,1.851,1.8335,1.8105,1.7954,1.7703,1.7318,1.7008,1.6768,1.6689,1.6689,1.6689,1.6689,1.6689,1.6705,1.6689,1.6689,1.6689,1.6689,1.6689,1.6689,1.6689,1.6689,1.6689,1.6689,1.6689,1.6689,1.6689,1.6689,1.6689,1.6689,1.6689,1.6689,1.6689,1.6689,1.6607,1.6533,1.5989,1.5477,1.489,1.4427,1.4255,1.408,1.3397,1.2982,1.2346,1.1621,1.1272,1.1117,1.1117,1.1111,1.1117,1.1117,1.1117,1.1117,1.7286,1.7286,1.7286,1.7286,1.7286,1.7286,1.7286,1.7286,1.7286,1.7264,1.7289,1.726,1.7106,1.6925,1.6873,1.6632,1.6339,1.6458,1.653,1.6446,1.6566,1.6648,1.6689,1.6689,1.6689,1.6689,1.6689,1.6689,1.6689,1.6689,1.6689,1.6689,1.6689,1.6689,1.6705,1.6705,1.6737,1.6792,1.7096,1.7072,1.6745,1.6729,1.6713,1.6681,1.6436,1.6404,1.6657,1.6737,1.6729,1.6745,1.704,1.7056,1.6976,1.7397,1.7783,1.7842,1.783,1.7878,1.7874,1.8009,1.8184,1.8263,1.8398,1.8559,1.8097,1.7763,1.7469,1.7151,1.6897,1.6689,1.6689,1.6689,1.6689,1.6689,1.6689,1.6689,1.6689,1.6689,1.6689,1.6689,1.6689,1.6689,1.6689,1.6689,1.6689,1.6689,1.6689,1.6689,1.6689,1.6689,1.6689,1.6689,1.6689,1.6689,1.6689,1.6689,1.6583,1.6255,1.5833,1.5446,1.4904,1.4694,1.4371,1.368,1.3168,1.2479,1.1861,1.1521,1.1223,1.1111,1.1111,1.1111,1.1117,1.1117,1.1149,1.7286,1.7286,1.7286,1.7286,1.7286,1.7286,1.7286,1.7286,1.7286,1.7208,1.704,1.7027,1.6873,1.6558,1.6551,1.6396,1.6251,1.6262,1.635,1.6399,1.6435,1.6566,1.6689,1.6689,1.6689,1.6689,1.6689,1.6689,1.6689,1.6689,1.6689,1.6689,1.6689,1.6689,1.6689,1.6689,1.6689,1.6689,1.6768,1.6824,1.6745,1.6713,1.6689,1.6681,1.6602,1.6594,1.6689,1.6689,1.6689,1.6697,1.6768,1.6976,1.7088,1.7302,1.7536,1.7711,1.7775,1.779,1.7723,1.7636,1.7676,1.7858,1.7866,1.7644,1.7564,1.7469,1.7231,1.6953,1.6729,1.6689,1.6689,1.6689,1.6689,1.6689,1.6689,1.6689,1.6689,1.6689,1.6689,1.6689,1.6689,1.6689,1.6689,1.6689,1.6689,1.6689,1.6689,1.6689,1.6689,1.6689,1.6689,1.6689,1.6689,1.6689,1.6689,1.6689,1.6586,1.6333,1.6086,1.5858,1.535,1.4923,1.4445,1.3834,1.3594,1.3039,1.2372,1.1855,1.1552,1.1254,1.1111,1.1111,1.1117,1.1117,1.1223,1.7286,1.7286,1.7286,1.7286,1.7286,1.7286,1.7286,1.7286,1.7279,1.7238,1.7077,1.7055,1.6844,1.6433,1.6411,1.6234,1.602,1.5983,1.6164,1.6392,1.6484,1.6607,1.6689,1.6689,1.6689,1.6689,1.6689,1.6689,1.6689,1.6689,1.6689,1.6689,1.6689,1.6689,1.6689,1.6689,1.6689,1.6689,1.6697,1.6753,1.6953,1.6961,1.6969,1.6961,1.6953,1.6921,1.6729,1.6689,1.6689,1.6689,1.6705,1.6792,1.7016,1.7056,1.7135,1.7334,1.7334,1.7326,1.7334,1.727,1.7374,1.7575,1.7504,1.7544,1.752,1.7416,1.7151,1.7024,1.68,1.6705,1.6689,1.6689,1.6689,1.6689,1.6689,1.6689,1.6689,1.6689,1.6689,1.6689,1.6689,1.6689,1.6689,1.6689,1.6689,1.6689,1.6689,1.6689,1.6689,1.6689,1.6689,1.6689,1.6665,1.665,1.6554,1.6515,1.638,1.6182,1.5809,1.5705,1.5459,1.497,1.4634,1.4173,1.3949,1.3615,1.2952,1.2328,1.1848,1.1589,1.1329,1.1223,1.126,1.1223,1.1335,1.7286,1.7286,1.7286,1.7286,1.7286,1.7286,1.7286,1.7286,1.7286,1.7242,1.723,1.726,1.6879,1.6419,1.6331,1.6138,1.574,1.5698,1.5978,1.627,1.6525,1.6648,1.6689,1.6689,1.6689,1.6689,1.6689,1.6689,1.6689,1.6689,1.6689,1.6689,1.6689,1.6689,1.6689,1.6689,1.6689,1.6713,1.6784,1.6969,1.7167,1.7207,1.7199,1.7191,1.7104,1.6984,1.6761,1.6689,1.6689,1.6689,1.6689,1.6705,1.6713,1.6705,1.6721,1.6761,1.68,1.6784,1.6768,1.7064,1.7199,1.7247,1.7504,1.7695,1.7544,1.7294,1.7135,1.7096,1.6913,1.6721,1.6689,1.6689,1.6689,1.6689,1.6689,1.6689,1.6689,1.6689,1.6689,1.6689,1.6689,1.6689,1.6689,1.6689,1.6689,1.6689,1.6689,1.6689,1.6689,1.6689,1.6689,1.6689,1.665,1.6594,1.65,1.6357,1.6166,1.592,1.5427,1.5197,1.5157,1.4835,1.47,1.4453,1.4238,1.3977,1.3608,1.2989,1.2475,1.2144,1.2063,1.1774,1.1558,1.1446,1.1477,1.7286,1.7286,1.7286,1.7286,1.7286,1.7286,1.7286,1.7286,1.7286,1.7208,1.7057,1.6967,1.6785,1.6404,1.6148,1.5921,1.5815,1.5617,1.5714,1.6121,1.636,1.6566,1.6648,1.6689,1.6689,1.6689,1.6689,1.6689,1.6689,1.6689,1.6689,1.6689,1.6689,1.6689,1.6689,1.6689,1.6689,1.6737,1.6992,1.7143,1.7239,1.7345,1.7352,1.7321,1.7032,1.68,1.6721,1.6689,1.6689,1.6689,1.6689,1.6689,1.6689,1.6689,1.6689,1.6689,1.6689,1.6689,1.6713,1.6776,1.6816,1.6905,1.6976,1.6953,1.6953,1.6895,1.6824,1.6808,1.6729,1.6697,1.6689,1.6689,1.6689,1.6689,1.6689,1.6689,1.6689,1.6689,1.6689,1.6689,1.6689,1.6689,1.6689,1.6689,1.6689,1.6689,1.6689,1.6689,1.6689,1.6689,1.6689,1.6689,1.6499,1.6452,1.6325,1.6095,1.5761,1.5608,1.5216,1.4972,1.4896,1.4937,1.4888,1.474,1.4525,1.4302,1.4186,1.4006,1.3564,1.32,1.2799,1.2542,1.2285,1.199,1.1649,1.7286,1.7286,1.7286,1.7286,1.7286,1.7286,1.7286,1.7286,1.7286,1.7245,1.7069,1.6983,1.6719,1.6397,1.606,1.5812,1.5722,1.5728,1.5846,1.617,1.6402,1.6607,1.6648,1.6689,1.6689,1.6689,1.6689,1.6689,1.6689,1.6689,1.6689,1.6689,1.6689,1.6689,1.6689,1.6689,1.6689,1.6705,1.6913,1.7096,1.7254,1.7437,1.7552,1.7432,1.7032,1.6689,1.6689,1.6689,1.6689,1.6689,1.6697,1.6697,1.6689,1.6689,1.6689,1.6689,1.6689,1.6689,1.6689,1.6689,1.6705,1.6689,1.6689,1.6689,1.6689,1.6689,1.6689,1.6689,1.6697,1.6689,1.6689,1.6689,1.6689,1.6689,1.6689,1.6689,1.6689,1.6689,1.6689,1.6689,1.6689,1.6689,1.6689,1.6689,1.6689,1.6689,1.6689,1.6689,1.6689,1.6689,1.6689,1.6618,1.6397,1.623,1.6126,1.5825,1.534,1.5237,1.509,1.5016,1.502,1.5103,1.5169,1.5018,1.4875,1.5018,1.4903,1.476,1.4545,1.4178,1.3774,1.344,1.307,1.2734,1.2274,1.7286,1.7286,1.7286,1.7286,1.7286,1.7286,1.7286,1.7286,1.7286,1.7274,1.7208,1.7005,1.6727,1.6352,1.6052,1.5695,1.5587,1.5763,1.6004,1.6128,1.6451,1.6615,1.6697,1.6689,1.6689,1.6689,1.6689,1.6689,1.6689,1.6689,1.6689,1.6689,1.6689,1.6689,1.6689,1.6689,1.6689,1.6705,1.6873,1.7088,1.74,1.7655,1.7743,1.7536,1.7183,1.6776,1.6745,1.6761,1.6776,1.6697,1.6745,1.6745,1.6697,1.6689,1.6689,1.6689,1.6689,1.6689,1.6689,1.6689,1.6689,1.6689,1.6689,1.6689,1.6689,1.6689,1.6689,1.6689,1.6689,1.6689,1.6689,1.6689,1.6689,1.6689,1.6689,1.6689,1.6689,1.6689,1.6689,1.6689,1.6689,1.6689,1.6689,1.6689,1.6689,1.6689,1.6689,1.6689,1.6689,1.6689,1.6689,1.6515,1.6277,1.5745,1.557,1.5718,1.5198,1.5142,1.5051,1.5213,1.5267,1.5374,1.5444,1.5374,1.5338,1.5444,1.5515,1.5409,1.5196,1.501,1.4788,1.4458,1.4004,1.3476,1.2906,1.7286,1.7286,1.7286,1.7286,1.7286,1.7286,1.7286,1.7286,1.7286,1.7172,1.6991,1.6917,1.6697,1.6389,1.6045,1.5731,1.5516,1.5748,1.5948,1.6121,1.6402,1.6566,1.6697,1.6689,1.6689,1.6689,1.6689,1.6689,1.6689,1.6689,1.6689,1.6689,1.6689,1.6689,1.6689,1.6689,1.6689,1.6729,1.6953,1.7239,1.7477,1.7636,1.7683,1.7501,1.7294,1.7064,1.684,1.7008,1.7056,1.6768,1.7032,1.6976,1.6753,1.6681,1.6665,1.6689,1.6689,1.6689,1.6689,1.6689,1.6689,1.6689,1.6689,1.6689,1.6689,1.6689,1.6689,1.6689,1.6689,1.6689,1.6689,1.6689,1.6689,1.6689,1.6689,1.6689,1.6689,1.6689,1.6689,1.6689,1.6689,1.6689,1.6689,1.6689,1.6689,1.6689,1.6689,1.6689,1.6689,1.6689,1.6689,1.6428,1.6134,1.5499,1.4935,1.5195,1.5188,1.5292,1.5355,1.5603,1.5692,1.5727,1.5727,1.5798,1.5762,1.5762,1.5833,1.5912,1.5947,1.5842,1.5657,1.5411,1.4793,1.4163,1.3472,1.7286,1.7286,1.7286,1.7286,1.7286,1.7286,1.7286,1.7286,1.7279,1.715,1.6925,1.6719,1.6477,1.6118,1.5804,1.5604,1.5619,1.579,1.6031,1.6278,1.6443,1.6607,1.6689,1.6689,1.6689,1.6689,1.6689,1.6689,1.6689,1.6689,1.6689,1.6689,1.6689,1.6689,1.6689,1.6689,1.6689,1.6745,1.6921,1.7088,1.7278,1.7413,1.754,1.7739,1.7596,1.7358,1.7127,1.7151,1.7096,1.6808,1.6897,1.6832,1.6705,1.6587,1.6547,1.6642,1.6673,1.6689,1.6689,1.6689,1.6689,1.6689,1.6689,1.6689,1.6689,1.6689,1.6689,1.6689,1.6689,1.6689,1.6689,1.673,1.6689,1.6689,1.673,1.673,1.6689,1.6689,1.6689,1.6689,1.6689,1.6689,1.6689,1.6689,1.6689,1.6689,1.6689,1.6673,1.6665,1.6689,1.6681,1.6389,1.6062,1.5479,1.4977,1.5155,1.5374,1.5453,1.57,1.5947,1.6123,1.6158,1.6298,1.6403,1.6333,1.6053,1.6324,1.6464,1.6551,1.6532,1.6164,1.5747,1.5352,1.4797,1.4066,1.7286,1.7286,1.7286,1.7286,1.7286,1.7286,1.7286,1.7286,1.7286,1.7099,1.6793,1.6529,1.6177,1.5833,1.5626,1.5548,1.5733,1.5997,1.6245,1.6402,1.6566,1.6689,1.6689,1.6689,1.6689,1.6689,1.6689,1.6689,1.6689,1.6689,1.6689,1.6689,1.6689,1.6689,1.6689,1.6689,1.6689,1.6689,1.6689,1.6721,1.6992,1.731,1.7715,1.8224,1.8017,1.7735,1.7294,1.7408,1.7159,1.6905,1.6818,1.6833,1.6657,1.6364,1.6349,1.6571,1.6619,1.6618,1.6689,1.6689,1.6689,1.6689,1.6689,1.6689,1.6689,1.6689,1.6689,1.6689,1.6689,1.6689,1.673,1.6886,1.6968,1.7017,1.7049,1.6968,1.6968,1.6886,1.6689,1.6689,1.6689,1.6689,1.6689,1.6689,1.6689,1.6689,1.6689,1.6539,1.6547,1.6665,1.6602,1.6349,1.5966,1.5466,1.5251,1.5388,1.5594,1.5736,1.6053,1.6403,1.6517,1.6621,1.6698,1.6617,1.6432,1.624,1.6624,1.6752,1.6503,1.6324,1.6297,1.6045,1.557,1.5077,1.4432,1.7286,1.7286,1.7286,1.7286,1.7286,1.7286,1.7286,1.7286,1.7318,1.6974,1.6514,1.6397,1.6023,1.5606,1.5627,1.565,1.5816,1.6064,1.6319,1.6394,1.6566,1.6689,1.6689,1.6689,1.6689,1.6689,1.6689,1.6689,1.6689,1.6689,1.6689,1.6689,1.6689,1.6689,1.6689,1.6689,1.6689,1.6689,1.6689,1.6967,1.7517,1.7874,1.8097,1.824,1.8168,1.7906,1.7437,1.752,1.7334,1.6849,1.7032,1.7024,1.6746,1.6397,1.6254,1.6261,1.6301,1.6404,1.6595,1.6732,1.6667,1.6707,1.6755,1.673,1.6689,1.6689,1.6689,1.6689,1.673,1.6812,1.7009,1.7489,1.7723,1.7836,1.7836,1.7796,1.7715,1.7245,1.7009,1.6689,1.6689,1.6689,1.6689,1.6689,1.6689,1.6689,1.665,1.6491,1.6372,1.6451,1.6437,1.6116,1.5982,1.5531,1.5488,1.5637,1.5806,1.5982,1.6342,1.6726,1.676,1.6768,1.6611,1.6528,1.6387,1.6181,1.6191,1.6202,1.6156,1.6065,1.5918,1.5826,1.5721,1.5205,1.4639,1.7286,1.7286,1.7286,1.7286,1.7286,1.7286,1.7286,1.7289,1.7135,1.6844,1.6389,1.617,1.5855,1.5489,1.5499,1.5575,1.5733,1.594,1.6188,1.6353,1.6525,1.6607,1.6689,1.6689,1.6689,1.6689,1.6689,1.6689,1.6689,1.6689,1.6689,1.6689,1.6689,1.6689,1.6689,1.6689,1.6689,1.6689,1.6729,1.6959,1.7397,1.7703,1.7914,1.8263,1.8105,1.7826,1.762,1.7445,1.727,1.6841,1.6887,1.7186,1.7187,1.6975,1.6776,1.7532,1.7118,1.6699,1.6299,1.6811,1.6822,1.6742,1.692,1.7245,1.6886,1.673,1.673,1.6689,1.7164,1.7399,1.7553,1.8238,1.859,1.8731,1.862,1.8311,1.812,1.7796,1.7408,1.7049,1.6657,1.6586,1.6539,1.6554,1.6554,1.6594,1.6499,1.6357,1.6182,1.6087,1.6004,1.5824,1.5778,1.5658,1.5734,1.5912,1.6061,1.6237,1.6517,1.6804,1.6874,1.6826,1.6652,1.6477,1.6318,1.609,1.5826,1.5771,1.5835,1.5689,1.5505,1.5432,1.5331,1.5025,1.4446,1.7235,1.7216,1.7208,1.7208,1.7201,1.7128,1.7077,1.7047,1.6881,1.6595,1.6235,1.5935,1.565,1.5474,1.5465,1.5575,1.5692,1.5741,1.5989,1.6237,1.6402,1.6476,1.6607,1.6648,1.6689,1.6689,1.6689,1.6689,1.6689,1.6689,1.6689,1.6689,1.6689,1.6689,1.6689,1.6689,1.6689,1.6689,1.6689,1.6937,1.7239,1.7345,1.766,1.7898,1.7966,1.7691,1.7509,1.7421,1.7119,1.6516,1.6952,1.7399,1.7559,1.7571,1.7617,1.7997,1.7622,1.6988,1.6689,1.6826,1.6957,1.6961,1.7007,1.7326,1.7253,1.7049,1.7245,1.7521,1.7957,1.8226,1.8356,1.8904,1.9166,1.9263,1.9291,1.8843,1.8381,1.7947,1.7426,1.6936,1.6571,1.6325,1.6317,1.6341,1.6404,1.6475,1.6404,1.6182,1.603,1.5829,1.5756,1.5675,1.59,1.5918,1.6041,1.6167,1.6307,1.6491,1.6735,1.6874,1.6908,1.6807,1.6642,1.6477,1.623,1.5753,1.5285,1.5404,1.5496,1.5239,1.5029,1.5001,1.4873,1.4613,1.4453,1.7157,1.6932,1.6932,1.6932,1.6917,1.6602,1.6455,1.6521,1.6477,1.6228,1.5921,1.5593,1.5447,1.5431,1.5541,1.5616,1.5692,1.5963,1.6046,1.6121,1.6278,1.6353,1.6476,1.6607,1.6689,1.6689,1.6689,1.6689,1.6689,1.6689,1.6689,1.6689,1.6689,1.6689,1.6689,1.6689,1.6689,1.6689,1.6689,1.6848,1.7127,1.7254,1.7472,1.7743,1.7775,1.7493,1.6856,1.7163,1.7112,1.6315,1.7227,1.788,1.8078,1.8271,1.8469,1.8378,1.8236,1.7701,1.7432,1.7314,1.7304,1.7204,1.7206,1.7454,1.7751,1.79,1.8238,1.8731,1.8924,1.8927,1.8996,1.9241,1.9617,1.9644,1.9635,1.9372,1.8786,1.7988,1.7488,1.6835,1.6451,1.621,1.6281,1.6377,1.6205,1.6238,1.6086,1.5871,1.5772,1.565,1.5638,1.568,1.6075,1.6219,1.6334,1.6456,1.663,1.6665,1.6839,1.6874,1.6908,1.6771,1.6551,1.6138,1.5799,1.5276,1.4882,1.5019,1.5019,1.4717,1.4588,1.4689,1.4708,1.4558,1.4494,1.7143,1.6888,1.6683,1.6602,1.6595,1.6463,1.6411,1.6375,1.617,1.5913,1.5579,1.5447,1.5389,1.5431,1.5465,1.5541,1.5541,1.5631,1.5756,1.5831,1.594,1.6147,1.6319,1.6484,1.6566,1.6648,1.6689,1.6689,1.6689,1.6689,1.6689,1.6689,1.6689,1.6689,1.6689,1.6689,1.6689,1.6689,1.6689,1.6792,1.6873,1.6961,1.7111,1.7472,1.7191,1.7183,1.7131,1.7524,1.7398,1.7411,1.7961,1.8392,1.8709,1.8986,1.9062,1.9105,1.9039,1.8862,1.8517,1.8356,1.8267,1.8395,1.816,1.7987,1.835,1.8588,1.8872,1.924,1.9561,1.9478,1.9583,1.9863,2.0147,2.0046,1.9907,1.971,1.919,1.8341,1.7678,1.7112,1.6485,1.6031,1.6207,1.6458,1.6217,1.5965,1.5781,1.5656,1.5638,1.5671,1.5741,1.5806,1.6175,1.6482,1.6595,1.6735,1.6908,1.6908,1.6908,1.6862,1.6817,1.6578,1.6312,1.5863,1.546,1.5084,1.4827,1.4726,1.4634,1.4552,1.4524,1.4513,1.4504,1.4485,1.4485,1.6865,1.6602,1.633,1.6235,1.6221,1.6126,1.6089,1.6052,1.5862,1.5615,1.5389,1.5389,1.5389,1.5389,1.5431,1.5431,1.5431,1.5472,1.5499,1.5575,1.5741,1.5899,1.6105,1.6278,1.6402,1.6566,1.6607,1.6599,1.6689,1.6689,1.6689,1.6689,1.6689,1.6689,1.6689,1.6689,1.6689,1.6689,1.6689,1.6689,1.6705,1.6721,1.6776,1.708,1.6897,1.6786,1.7039,1.7432,1.7749,1.7896,1.8386,1.9156,1.9472,1.968,1.9752,1.993,2.0058,2.0079,1.9743,1.9304,1.8838,1.8545,1.8395,1.8419,1.8824,1.9125,1.9306,1.9899,2.0036,2.0014,2.0021,2.0144,1.9959,1.9715,1.9934,1.9788,1.9278,1.8536,1.7977,1.7388,1.6802,1.6317,1.6447,1.6706,1.6781,1.6567,1.6461,1.6225,1.6018,1.6033,1.6069,1.6149,1.6333,1.6595,1.6839,1.6874,1.6908,1.6908,1.6881,1.6771,1.6661,1.6413,1.6013,1.556,1.5194,1.4928,1.4763,1.4634,1.454,1.4494,1.4485,1.4485,1.4485,1.4485,1.4485,1.6243,1.5943,1.5943,1.5935,1.5891,1.5549,1.5496,1.5555,1.5462,1.5425,1.5389,1.5389,1.5389,1.5389,1.5389,1.5389,1.5389,1.5389,1.5431,1.5465,1.5582,1.5692,1.5816,1.5989,1.6196,1.6353,1.6435,1.6517,1.6689,1.6689,1.6689,1.6689,1.6689,1.6689,1.6689,1.6689,1.6689,1.6689,1.6689,1.6689,1.6689,1.6689,1.6745,1.6753,1.6737,1.6642,1.7025,1.7753,1.8066,1.8062,1.9099,1.9639,1.9568,1.9991,2.0144,2.024,1.9996,1.9896,1.9755,1.9407,1.8957,1.8466,1.8459,1.8674,1.9078,1.9385,1.9767,2.0459,2.0461,2.0303,2.0215,2.0003,1.9634,1.9544,1.973,1.9668,1.9156,1.8656,1.8018,1.7586,1.7232,1.6857,1.6892,1.7016,1.7263,1.7272,1.7167,1.6917,1.6559,1.642,1.6455,1.6368,1.6447,1.6656,1.6874,1.6908,1.6908,1.6908,1.6862,1.6752,1.6532,1.6276,1.5835,1.5294,1.4992,1.4781,1.4623,1.4494,1.4485,1.4485,1.4485,1.4485,1.4485,1.4485,1.4485,1.6235,1.5913,1.5913,1.5746,1.5549,1.544,1.5389,1.5389,1.5389,1.5389,1.5389,1.5389,1.5389,1.5389,1.5389,1.5389,1.5389,1.5389,1.5389,1.5431,1.5506,1.5582,1.5699,1.5824,1.6031,1.6312,1.6394,1.6476,1.6689,1.6689,1.6689,1.6689,1.6689,1.6689,1.6689,1.6689,1.6689,1.6689,1.6689,1.6689,1.6689,1.673,1.6689,1.673,1.6771,1.6928,1.7313,1.8266,1.8719,1.8741,1.9913,2.0075,1.9915,2.022,2.0027,2.01,1.999,2.0083,1.9882,1.9614,1.9348,1.8949,1.8878,1.9231,1.991,1.9981,2.0472,2.0653,2.0338,2.0079,1.9948,1.9561,1.9274,1.9243,1.9326,1.9316,1.8941,1.8442,1.7963,1.7703,1.7389,1.7482,1.7516,1.7789,1.8047,1.8007,1.7881,1.7545,1.7198,1.6932,1.6802,1.6577,1.6551,1.6769,1.6943,1.7176,1.7107,1.7038,1.6904,1.6734,1.6477,1.612,1.567,1.5157,1.4891,1.4632,1.4549,1.4485,1.4485,1.4485,1.4485,1.4485,1.4485,1.4485,1.4485,1.5928,1.5717,1.5703,1.5586,1.5411,1.5389,1.5389,1.5389,1.5389,1.5389,1.5389,1.5389,1.5389,1.5389,1.5389,1.5389,1.5389,1.5389,1.5389,1.5389,1.5431,1.5465,1.5582,1.5658,1.5865,1.6196,1.6312,1.6402,1.6689,1.6689,1.6689,1.6689,1.6689,1.6689,1.6689,1.6689,1.6689,1.6689,1.6689,1.6886,1.6968,1.7009,1.6894,1.709,1.7245,1.7383,1.8101,1.8924,1.9753,2.0026,2.0286,2.0519,2.0369,2.0058,1.9907,2.0027,2.0041,2.0,1.9634,1.9499,1.9274,1.9075,1.9419,1.9668,1.9893,1.9747,2.0071,2.0182,1.9917,1.9824,1.9679,1.9285,1.9139,1.9108,1.9108,1.9108,1.9008,1.8526,1.8424,1.8148,1.807,1.8138,1.824,1.862,1.8939,1.8774,1.8633,1.8254,1.7915,1.7711,1.7482,1.7226,1.7123,1.7432,1.7613,1.7647,1.7545,1.7235,1.7092,1.7008,1.6248,1.5854,1.5441,1.5056,1.4781,1.4579,1.4522,1.4485,1.4485,1.4485,1.4485,1.4485,1.4485,1.4485,1.4485,1.5396,1.5389,1.5396,1.5403,1.5389,1.5389,1.5389,1.5389,1.5389,1.5389,1.5389,1.5389,1.5389,1.5389,1.5389,1.5389,1.5389,1.5389,1.5389,1.5389,1.5389,1.5431,1.5431,1.5472,1.5714,1.5963,1.617,1.6319,1.6648,1.6689,1.6689,1.6689,1.6689,1.6689,1.6689,1.6853,1.6812,1.6771,1.673,1.7082,1.744,1.7245,1.744,1.7755,1.8078,1.8189,1.8789,1.9562,2.0053,2.0379,2.0616,2.0617,2.0431,2.0021,2.0089,2.0089,1.9917,1.9575,1.9295,1.9212,1.9181,1.9108,1.9129,1.915,1.9264,1.9417,1.9668,1.9761,1.9585,1.9616,1.9554,1.9326,1.9108,1.9098,1.9098,1.9098,1.9098,1.8975,1.8975,1.8898,1.8898,1.8898,1.8931,1.9241,1.9374,1.9363,1.922,1.921,1.8911,1.88,1.8499,1.8094,1.8094,1.8263,1.8307,1.8148,1.8012,1.774,1.7658,1.748,1.6586,1.5803,1.5523,1.5179,1.4722,1.4506,1.4485,1.4485,1.4485,1.4515,1.4565,1.4545,1.4565,1.4515,1.4485,1.5389,1.5389,1.5389,1.5389,1.5389,1.5389,1.5389,1.5389,1.5389,1.5389,1.5389,1.5389,1.5389,1.5389,1.5389,1.5389,1.5389,1.5389,1.5389,1.5389,1.5389,1.5389,1.5389,1.5431,1.5597,1.5797,1.6038,1.6203,1.6484,1.6607,1.6689,1.6689,1.6812,1.6771,1.7049,1.7335,1.7172,1.7017,1.6968,1.748,1.7917,1.7804,1.8189,1.8669,1.8908,1.9107,1.9747,2.0148,2.0552,2.0825,2.0632,2.0488,2.0395,1.9737,1.943,1.944,1.9336,1.9222,1.9119,1.9098,1.9098,1.9098,1.9098,1.9336,1.9388,1.9347,1.9336,1.9378,1.9347,1.9357,1.9367,1.9212,1.9098,1.9098,1.9098,1.9098,1.9098,1.9098,1.9098,1.9142,1.9142,1.9274,1.9351,1.944,1.9572,1.9704,1.9769,1.9769,1.9726,1.9551,1.9353,1.8911,1.8777,1.8844,1.8643,1.8476,1.8408,1.8263,1.8224,1.7929,1.7103,1.6374,1.5854,1.5317,1.4768,1.4565,1.4485,1.4485,1.4515,1.4645,1.4734,1.4675,1.4654,1.4654,1.4545,1.5389,1.5389,1.5389,1.5389,1.5389,1.5389,1.5389,1.5389,1.5389,1.5389,1.5389,1.5389,1.5389,1.5389,1.5389,1.5389,1.5389,1.5389,1.5389,1.5389,1.5389,1.5389,1.5389,1.5431,1.5548,1.5707,1.5906,1.6072,1.636,1.6648,1.6771,1.7286,1.7204,1.7408,1.7844,1.8278,1.8238,1.7997,1.7917,1.8238,1.8519,1.8678,1.9067,1.958,1.9777,2.0099,2.0498,2.0702,2.1057,2.1185,2.0839,2.0715,2.0478,1.9748,1.9243,1.9253,1.915,1.9139,1.9098,1.9098,1.9098,1.9098,1.9098,1.9222,1.9285,1.9243,1.9295,1.9336,1.9202,1.9119,1.9108,1.9098,1.9098,1.9098,1.9098,1.9098,1.9098,1.9098,1.9142,1.9175,1.9285,1.9384,1.9517,1.9638,1.9726,1.9835,1.9911,1.9976,1.9933,1.9835,1.9726,1.9495,1.9363,1.9297,1.9067,1.8882,1.8862,1.8839,1.8824,1.841,1.7558,1.6866,1.6272,1.5549,1.4821,1.4704,1.4654,1.4545,1.4536,1.4754,1.501,1.5098,1.5069,1.501,1.4852,1.5389,1.5389,1.5389,1.5389,1.5389,1.5389,1.5389,1.5389,1.5389,1.5389,1.5389,1.5389,1.5389,1.5389,1.5389,1.5389,1.5389,1.5389,1.5389,1.5389,1.5389,1.5389,1.5389,1.5431,1.5465,1.5616,1.5775,1.5982,1.6353,1.6599,1.7049,1.7876,1.7723,1.7836,1.847,1.8908,1.9027,1.9225,1.9344,1.9698,1.9864,1.9864,1.9737,2.0459,2.0624,2.0692,2.0857,2.1191,2.1621,2.1466,2.1263,2.1129,2.0452,1.9841,1.945,1.9253,1.9108,1.9098,1.9098,1.9098,1.9098,1.9098,1.9098,1.9139,1.916,1.917,1.9212,1.9222,1.9119,1.9098,1.9098,1.9098,1.9098,1.9098,1.9098,1.9098,1.9098,1.9131,1.9241,1.9308,1.9483,1.9583,1.9714,1.9846,1.9868,1.9933,1.9998,2.0074,2.0064,1.9998,1.9933,1.9824,1.9598,1.949,1.9522,1.9371,1.9393,1.9359,1.925,1.8689,1.776,1.7165,1.6657,1.592,1.5186,1.4941,1.4832,1.4882,1.499,1.5186,1.541,1.5546,1.5526,1.5468,1.5177,1.5389,1.5389,1.5389,1.5389,1.5389,1.5389,1.5389,1.5389,1.5389,1.5389,1.5389,1.5389,1.5389,1.5389,1.5389,1.5389,1.5389,1.5389,1.5389,1.5389,1.5389,1.5389,1.5389,1.5431,1.5431,1.5499,1.5658,1.594,1.6353,1.6607,1.673,1.7049,1.7212,1.7723,1.8669,1.9107,1.962,2.0177,2.0653,2.0653,2.0498,2.0576,2.0615,2.1175,2.1415,2.1377,2.1492,2.1558,2.1756,2.1673,2.1352,2.0803,1.9975,1.9544,1.9264,1.9129,1.9098,1.9098,1.9098,1.9098,1.9098,1.9098,1.9098,1.9098,1.9098,1.9098,1.9098,1.9098,1.9098,1.9098,1.9098,1.9098,1.9098,1.9098,1.9098,1.9098,1.9098,1.9208,1.9341,1.9506,1.9648,1.978,1.9922,1.9987,2.0042,2.0042,2.0085,2.0107,2.0085,2.0031,1.9955,1.9814,1.9574,1.9477,1.9584,1.9508,1.9316,1.9252,1.9124,1.8526,1.7899,1.7235,1.6592,1.6154,1.5642,1.5391,1.5342,1.5565,1.5671,1.5748,1.5874,1.6017,1.6075,1.6017,1.5642,1.5389,1.5389,1.5389,1.5389,1.5389,1.5389,1.5389,1.5389,1.5389,1.5389,1.5389,1.5389,1.5389,1.5389,1.5389,1.5389,1.5389,1.5389,1.5389,1.5389,1.5389,1.5389,1.5389,1.5389,1.5431,1.5465,1.5616,1.594,1.6353,1.6558,1.664,1.7082,1.7286,1.7764,1.8829,1.962,2.0177,2.1088,2.1606,2.1454,2.1011,2.1136,2.1252,2.1731,2.1807,2.1807,2.1807,2.1807,2.1807,2.158,2.1176,2.0705,2.0038,1.9523,1.9181,1.9108,1.9098,1.9098,1.9098,1.9098,1.9098,1.9098,1.9098,1.9098,1.9098,1.9098,1.9098,1.9098,1.9098,1.9098,1.9098,1.9098,1.9098,1.9098,1.9098,1.9142,1.9175,1.9274,1.9473,1.9704,1.9802,1.9878,1.9987,2.0053,2.0085,2.0085,2.0118,2.0074,2.0053,1.9813,1.9791,1.9715,1.9409,1.92,1.9113,1.9069,1.9006,1.894,1.8884,1.8488,1.7916,1.7151,1.6495,1.6285,1.6085,1.5816,1.5845,1.6017,1.6161,1.6189,1.6343,1.6552,1.6542,1.6513,1.6189,1.5389,1.5389,1.5389,1.5389,1.5389,1.5389,1.5389,1.5389,1.5389,1.5389,1.5389,1.5389,1.5389,1.5389,1.5389,1.5389,1.5389,1.5389,1.5389,1.5389,1.5389,1.5389,1.5389,1.5389,1.5431,1.5548,1.5707,1.6023,1.6386,1.6517,1.6919,1.7683,1.8158,1.8598,1.9874,2.0421,2.0576,2.1328,2.1769,2.1769,2.1769,2.1807,2.1769,2.1769,2.1807,2.1807,2.1807,2.1807,2.1807,2.1466,2.101,2.055,2.012,1.9596,1.9243,1.9098,1.9098,1.9098,1.9098,1.9098,1.9098,1.9098,1.9098,1.9098,1.9098,1.9098,1.9098,1.9098,1.9098,1.9098,1.9098,1.9098,1.9098,1.9098,1.9142,1.9175,1.9241,1.9341,1.9605,1.9868,1.9933,1.9976,2.0009,2.0085,2.0074,2.0085,2.0053,2.0031,1.9889,1.9475,1.9224,1.9213,1.9071,1.8884,1.8665,1.8622,1.8611,1.8414,1.8316,1.8206,1.7984,1.7446,1.7006,1.6744,1.6506,1.6436,1.6316,1.6371,1.6485,1.6599,1.6751,1.6902,1.6931,1.6864,1.6684,1.5389,1.5389,1.5389,1.5389,1.5389,1.5389,1.5389,1.5389,1.5389,1.5389,1.5389,1.5389,1.5389,1.5389,1.5389,1.5389,1.5389,1.5389,1.5389,1.5389,1.5389,1.5389,1.5389,1.5431,1.5506,1.5665,1.5824,1.6154,1.6394,1.6525,1.6689,1.7009,1.7049,1.7885,1.9265,1.9816,2.0411,2.1328,2.1807,2.1807,2.1807,2.1807,2.1807,2.1807,2.1807,2.1807,2.1807,2.1807,2.1807,2.1538,2.099,2.0519,2.012,1.9624,1.9222,1.9098,1.9098,1.9098,1.9098,1.9098,1.9098,1.9098,1.9098,1.9098,1.9098,1.9098,1.9098,1.9098,1.9098,1.9098,1.9098,1.9098,1.9098,1.9131,1.9175,1.9241,1.9308,1.9539,1.9769,1.9944,2.0009,2.0009,1.9966,1.9998,2.0009,1.9922,1.9693,1.9639,1.9486,1.9093,1.872,1.8698,1.8687,1.848,1.8228,1.8239,1.8185,1.7955,1.7835,1.7868,1.7901,1.7912,1.755,1.7223,1.7263,1.732,1.7166,1.6751,1.6902,1.7015,1.7127,1.7222,1.725,1.7194,1.6987]}]]